<?xml version='1.0' encoding='UTF-8'?>
<gpx version="1.1" creator="https://www.komoot.de" xmlns="http://www.topografix.com/GPX/1/1" xmlns:xsi="http://www.w3.org/2001/XMLSchema-instance" xsi:schemaLocation="http://www.topografix.com/GPX/1/1 http://www.topografix.com/GPX/1/1/gpx.xsd">
  <metadata>
    <name>Randonnée Gravel 2026 (6/5/26)</name>
    <author>
      <link href="https://www.komoot.de">
        <text>komoot</text>
        <type>text/html</type>
      </link>
    </author>
  </metadata>
  <trk>
    <name>Randonnée Gravel 2026 (6/5/26)</name>
    <trkseg>
      <trkpt lat="43.655924" lon="10.630280">
        <ele>15.930444</ele>
        <time>2026-05-06T19:42:49.019Z</time>
      </trkpt>
      <trkpt lat="43.656002" lon="10.629657">
        <ele>15.930444</ele>
        <time>2026-05-06T19:42:59.375Z</time>
      </trkpt>
      <trkpt lat="43.655938" lon="10.629641">
        <ele>15.930444</ele>
        <time>2026-05-06T19:43:03.876Z</time>
      </trkpt>
      <trkpt lat="43.655783" lon="10.630798">
        <ele>15.490649</ele>
        <time>2026-05-06T19:43:17.767Z</time>
      </trkpt>
      <trkpt lat="43.655747" lon="10.631021">
        <ele>15.337423</ele>
        <time>2026-05-06T19:43:20.308Z</time>
      </trkpt>
      <trkpt lat="43.655659" lon="10.631488">
        <ele>15.013795</ele>
        <time>2026-05-06T19:43:25.538Z</time>
      </trkpt>
      <trkpt lat="43.655590" lon="10.631469">
        <ele>14.948581</ele>
        <time>2026-05-06T19:43:26.601Z</time>
      </trkpt>
      <trkpt lat="43.655438" lon="10.631528">
        <ele>14.802240</ele>
        <time>2026-05-06T19:43:29.001Z</time>
      </trkpt>
      <trkpt lat="43.655125" lon="10.631413">
        <ele>14.502041</ele>
        <time>2026-05-06T19:43:33.976Z</time>
      </trkpt>
      <trkpt lat="43.654984" lon="10.631432">
        <ele>14.370726</ele>
        <time>2026-05-06T19:43:36.172Z</time>
      </trkpt>
      <trkpt lat="43.654679" lon="10.631313">
        <ele>14.127050</ele>
        <time>2026-05-06T19:43:41.066Z</time>
      </trkpt>
      <trkpt lat="43.654628" lon="10.631289">
        <ele>14.090538</ele>
        <time>2026-05-06T19:43:41.898Z</time>
      </trkpt>
      <trkpt lat="43.654604" lon="10.631337">
        <ele>14.061928</ele>
        <time>2026-05-06T19:43:42.551Z</time>
      </trkpt>
      <trkpt lat="43.654409" lon="10.631137">
        <ele>13.897358</ele>
        <time>2026-05-06T19:43:46.297Z</time>
      </trkpt>
      <trkpt lat="43.654390" lon="10.631087">
        <ele>13.869664</ele>
        <time>2026-05-06T19:43:46.932Z</time>
      </trkpt>
      <trkpt lat="43.654348" lon="10.630904">
        <ele>13.775524</ele>
        <time>2026-05-06T19:43:49.094Z</time>
      </trkpt>
      <trkpt lat="43.654250" lon="10.629909">
        <ele>13.283126</ele>
        <time>2026-05-06T19:44:00.870Z</time>
      </trkpt>
      <trkpt lat="43.654165" lon="10.629503">
        <ele>13.075876</ele>
        <time>2026-05-06T19:44:06.032Z</time>
      </trkpt>
      <trkpt lat="43.653977" lon="10.628956">
        <ele>12.997270</ele>
        <time>2026-05-06T19:44:13.594Z</time>
      </trkpt>
      <trkpt lat="43.653551" lon="10.628080">
        <ele>12.905603</ele>
        <time>2026-05-06T19:44:27.184Z</time>
      </trkpt>
      <trkpt lat="43.653520" lon="10.627958">
        <ele>12.894373</ele>
        <time>2026-05-06T19:44:28.849Z</time>
      </trkpt>
      <trkpt lat="43.653513" lon="10.627930">
        <ele>12.891801</ele>
        <time>2026-05-06T19:44:29.227Z</time>
      </trkpt>
      <trkpt lat="43.653511" lon="10.627778">
        <ele>12.878597</ele>
        <time>2026-05-06T19:44:31.204Z</time>
      </trkpt>
      <trkpt lat="43.653522" lon="10.627635">
        <ele>12.866108</ele>
        <time>2026-05-06T19:44:33.037Z</time>
      </trkpt>
      <trkpt lat="43.653462" lon="10.627401">
        <ele>12.844547</ele>
        <time>2026-05-06T19:44:36.178Z</time>
      </trkpt>
      <trkpt lat="43.653390" lon="10.627308">
        <ele>12.832718</ele>
        <time>2026-05-06T19:44:37.852Z</time>
      </trkpt>
      <trkpt lat="43.653309" lon="10.627252">
        <ele>12.829263</ele>
        <time>2026-05-06T19:44:39.396Z</time>
      </trkpt>
      <trkpt lat="43.653194" lon="10.627236">
        <ele>12.831176</ele>
        <time>2026-05-06T19:44:41.373Z</time>
      </trkpt>
      <trkpt lat="43.653039" lon="10.627318">
        <ele>12.833922</ele>
        <time>2026-05-06T19:44:44.182Z</time>
      </trkpt>
      <trkpt lat="43.652945" lon="10.627477">
        <ele>12.836380</ele>
        <time>2026-05-06T19:44:46.716Z</time>
      </trkpt>
      <trkpt lat="43.652919" lon="10.627674">
        <ele>12.838778</ele>
        <time>2026-05-06T19:44:49.178Z</time>
      </trkpt>
      <trkpt lat="43.652858" lon="10.627921">
        <ele>12.841902</ele>
        <time>2026-05-06T19:44:52.398Z</time>
      </trkpt>
      <trkpt lat="43.652692" lon="10.628222">
        <ele>12.846434</ele>
        <time>2026-05-06T19:44:57.155Z</time>
      </trkpt>
      <trkpt lat="43.651701" lon="10.629282">
        <ele>13.250451</ele>
        <time>2026-05-06T19:45:20.727Z</time>
      </trkpt>
      <trkpt lat="43.651325" lon="10.629680">
        <ele>13.590480</ele>
        <time>2026-05-06T19:45:30.581Z</time>
      </trkpt>
      <trkpt lat="43.651169" lon="10.629782">
        <ele>13.714383</ele>
        <time>2026-05-06T19:45:34.133Z</time>
      </trkpt>
      <trkpt lat="43.650994" lon="10.629836">
        <ele>13.843118</ele>
        <time>2026-05-06T19:45:37.855Z</time>
      </trkpt>
      <trkpt lat="43.650865" lon="10.629799">
        <ele>13.937708</ele>
        <time>2026-05-06T19:45:40.595Z</time>
      </trkpt>
      <trkpt lat="43.650773" lon="10.629697">
        <ele>14.022386</ele>
        <time>2026-05-06T19:45:43.035Z</time>
      </trkpt>
      <trkpt lat="43.650663" lon="10.629624">
        <ele>14.109994</ele>
        <time>2026-05-06T19:45:45.583Z</time>
      </trkpt>
      <trkpt lat="43.650582" lon="10.629626">
        <ele>14.166886</ele>
        <time>2026-05-06T19:45:47.283Z</time>
      </trkpt>
      <trkpt lat="43.650506" lon="10.629668">
        <ele>14.221653</ele>
        <time>2026-05-06T19:45:48.968Z</time>
      </trkpt>
      <trkpt lat="43.650424" lon="10.629794">
        <ele>14.303699</ele>
        <time>2026-05-06T19:45:51.469Z</time>
      </trkpt>
      <trkpt lat="43.650414" lon="10.629829">
        <ele>14.321917</ele>
        <time>2026-05-06T19:45:52.013Z</time>
      </trkpt>
      <trkpt lat="43.650311" lon="10.629978">
        <ele>14.421683</ele>
        <time>2026-05-06T19:45:55.041Z</time>
      </trkpt>
      <trkpt lat="43.650064" lon="10.630088">
        <ele>14.595320</ele>
        <time>2026-05-06T19:46:00.184Z</time>
      </trkpt>
      <trkpt lat="43.648362" lon="10.629594">
        <ele>15.714962</ele>
        <time>2026-05-06T19:46:34.328Z</time>
      </trkpt>
      <trkpt lat="43.647164" lon="10.629249">
        <ele>16.438594</ele>
        <time>2026-05-06T19:46:58.581Z</time>
      </trkpt>
      <trkpt lat="43.646987" lon="10.629197">
        <ele>16.510194</ele>
        <time>2026-05-06T19:47:02.107Z</time>
      </trkpt>
      <trkpt lat="43.646035" lon="10.628916">
        <ele>16.895376</ele>
        <time>2026-05-06T19:47:20.620Z</time>
      </trkpt>
      <trkpt lat="43.644256" lon="10.628405">
        <ele>17.612803</ele>
        <time>2026-05-06T19:47:55.141Z</time>
      </trkpt>
      <trkpt lat="43.643094" lon="10.628072">
        <ele>17.972948</ele>
        <time>2026-05-06T19:48:17.686Z</time>
      </trkpt>
      <trkpt lat="43.642718" lon="10.628002">
        <ele>18.053524</ele>
        <time>2026-05-06T19:48:24.930Z</time>
      </trkpt>
      <trkpt lat="43.642326" lon="10.627982">
        <ele>18.136833</ele>
        <time>2026-05-06T19:48:32.203Z</time>
      </trkpt>
      <trkpt lat="43.641749" lon="10.628010">
        <ele>18.182368</ele>
        <time>2026-05-06T19:48:42.379Z</time>
      </trkpt>
      <trkpt lat="43.641685" lon="10.628016">
        <ele>18.161457</ele>
        <time>2026-05-06T19:48:43.484Z</time>
      </trkpt>
      <trkpt lat="43.640730" lon="10.628111">
        <ele>17.849340</ele>
        <time>2026-05-06T19:48:59.461Z</time>
      </trkpt>
      <trkpt lat="43.640232" lon="10.628496">
        <ele>17.663321</ele>
        <time>2026-05-06T19:49:09.253Z</time>
      </trkpt>
      <trkpt lat="43.640014" lon="10.628718">
        <ele>17.620089</ele>
        <time>2026-05-06T19:49:14.030Z</time>
      </trkpt>
      <trkpt lat="43.639782" lon="10.629060">
        <ele>17.583110</ele>
        <time>2026-05-06T19:49:20.166Z</time>
      </trkpt>
      <trkpt lat="43.639640" lon="10.629420">
        <ele>17.550767</ele>
        <time>2026-05-06T19:49:25.578Z</time>
      </trkpt>
      <trkpt lat="43.639546" lon="10.629871">
        <ele>17.513743</ele>
        <time>2026-05-06T19:49:31.796Z</time>
      </trkpt>
      <trkpt lat="43.639463" lon="10.630073">
        <ele>17.495419</ele>
        <time>2026-05-06T19:49:34.892Z</time>
      </trkpt>
      <trkpt lat="43.639465" lon="10.630218">
        <ele>17.483978</ele>
        <time>2026-05-06T19:49:36.831Z</time>
      </trkpt>
      <trkpt lat="43.638996" lon="10.631122">
        <ele>17.513021</ele>
        <time>2026-05-06T19:49:51.917Z</time>
      </trkpt>
      <trkpt lat="43.638868" lon="10.631772">
        <ele>17.582960</ele>
        <time>2026-05-06T19:50:01.059Z</time>
      </trkpt>
      <trkpt lat="43.638836" lon="10.631878">
        <ele>17.594885</ele>
        <time>2026-05-06T19:50:02.609Z</time>
      </trkpt>
      <trkpt lat="43.638741" lon="10.632043">
        <ele>17.616775</ele>
        <time>2026-05-06T19:50:05.472Z</time>
      </trkpt>
      <trkpt lat="43.638587" lon="10.632190">
        <ele>17.643628</ele>
        <time>2026-05-06T19:50:08.971Z</time>
      </trkpt>
      <trkpt lat="43.637491" lon="10.632823">
        <ele>17.942457</ele>
        <time>2026-05-06T19:50:32.432Z</time>
      </trkpt>
      <trkpt lat="43.636833" lon="10.633185">
        <ele>18.163378</ele>
        <time>2026-05-06T19:50:46.127Z</time>
      </trkpt>
      <trkpt lat="43.636609" lon="10.633248">
        <ele>18.234684</ele>
        <time>2026-05-06T19:50:50.536Z</time>
      </trkpt>
      <trkpt lat="43.636094" lon="10.633303">
        <ele>18.337029</ele>
        <time>2026-05-06T19:51:00.608Z</time>
      </trkpt>
      <trkpt lat="43.635384" lon="10.633149">
        <ele>18.459897</ele>
        <time>2026-05-06T19:51:14.230Z</time>
      </trkpt>
      <trkpt lat="43.635121" lon="10.633194">
        <ele>18.505203</ele>
        <time>2026-05-06T19:51:19.201Z</time>
      </trkpt>
      <trkpt lat="43.634806" lon="10.633306">
        <ele>18.560810</ele>
        <time>2026-05-06T19:51:25.424Z</time>
      </trkpt>
      <trkpt lat="43.634594" lon="10.633447">
        <ele>18.606841</ele>
        <time>2026-05-06T19:51:29.941Z</time>
      </trkpt>
      <trkpt lat="43.634204" lon="10.633809">
        <ele>18.703947</ele>
        <time>2026-05-06T19:51:38.990Z</time>
      </trkpt>
      <trkpt lat="43.634104" lon="10.633901">
        <ele>18.728778</ele>
        <time>2026-05-06T19:51:41.239Z</time>
      </trkpt>
      <trkpt lat="43.633857" lon="10.633902">
        <ele>18.779828</ele>
        <time>2026-05-06T19:51:45.874Z</time>
      </trkpt>
      <trkpt lat="43.633001" lon="10.633702">
        <ele>18.967557</ele>
        <time>2026-05-06T19:52:02.692Z</time>
      </trkpt>
      <trkpt lat="43.632865" lon="10.633739">
        <ele>19.012864</ele>
        <time>2026-05-06T19:52:05.450Z</time>
      </trkpt>
      <trkpt lat="43.632545" lon="10.634508">
        <ele>19.222717</ele>
        <time>2026-05-06T19:52:18.227Z</time>
      </trkpt>
      <trkpt lat="43.632377" lon="10.634772">
        <ele>19.305881</ele>
        <time>2026-05-06T19:52:23.286Z</time>
      </trkpt>
      <trkpt lat="43.632315" lon="10.634911">
        <ele>19.344508</ele>
        <time>2026-05-06T19:52:25.653Z</time>
      </trkpt>
      <trkpt lat="43.632171" lon="10.635325">
        <ele>19.453175</ele>
        <time>2026-05-06T19:52:32.166Z</time>
      </trkpt>
      <trkpt lat="43.632063" lon="10.635430">
        <ele>19.496340</ele>
        <time>2026-05-06T19:52:34.691Z</time>
      </trkpt>
      <trkpt lat="43.631951" lon="10.635458">
        <ele>19.532938</ele>
        <time>2026-05-06T19:52:36.852Z</time>
      </trkpt>
      <trkpt lat="43.631766" lon="10.635443">
        <ele>19.536611</ele>
        <time>2026-05-06T19:52:40.340Z</time>
      </trkpt>
      <trkpt lat="43.631534" lon="10.635378">
        <ele>19.541304</ele>
        <time>2026-05-06T19:52:44.761Z</time>
      </trkpt>
      <trkpt lat="43.631334" lon="10.635272">
        <ele>19.545549</ele>
        <time>2026-05-06T19:52:48.764Z</time>
      </trkpt>
      <trkpt lat="43.631000" lon="10.634979">
        <ele>19.553391</ele>
        <time>2026-05-06T19:52:56.269Z</time>
      </trkpt>
      <trkpt lat="43.630814" lon="10.634862">
        <ele>19.557442</ele>
        <time>2026-05-06T19:53:00.187Z</time>
      </trkpt>
      <trkpt lat="43.630297" lon="10.634692">
        <ele>19.567976</ele>
        <time>2026-05-06T19:53:09.861Z</time>
      </trkpt>
      <trkpt lat="43.629951" lon="10.634688">
        <ele>19.401198</ele>
        <time>2026-05-06T19:53:15.838Z</time>
      </trkpt>
      <trkpt lat="43.629733" lon="10.634720">
        <ele>19.285478</ele>
        <time>2026-05-06T19:53:19.623Z</time>
      </trkpt>
      <trkpt lat="43.629383" lon="10.634877">
        <ele>19.091234</ele>
        <time>2026-05-06T19:53:25.857Z</time>
      </trkpt>
      <trkpt lat="43.629213" lon="10.634858">
        <ele>19.001206</ele>
        <time>2026-05-06T19:53:28.699Z</time>
      </trkpt>
      <trkpt lat="43.629448" lon="10.635097">
        <ele>18.847173</ele>
        <time>2026-05-06T19:53:36.748Z</time>
      </trkpt>
      <trkpt lat="43.628568" lon="10.634642">
        <ele>18.504402</ele>
        <time>2026-05-06T19:54:03.127Z</time>
      </trkpt>
      <trkpt lat="43.627877" lon="10.634399">
        <ele>18.343241</ele>
        <time>2026-05-06T19:54:24.271Z</time>
      </trkpt>
      <trkpt lat="43.627649" lon="10.634395">
        <ele>18.291704</ele>
        <time>2026-05-06T19:54:31.059Z</time>
      </trkpt>
      <trkpt lat="43.627539" lon="10.634429">
        <ele>18.266227</ele>
        <time>2026-05-06T19:54:34.402Z</time>
      </trkpt>
      <trkpt lat="43.626721" lon="10.634909">
        <ele>18.092698</ele>
        <time>2026-05-06T19:55:00.063Z</time>
      </trkpt>
      <trkpt lat="43.626610" lon="10.634974">
        <ele>18.070509</ele>
        <time>2026-05-06T19:55:03.492Z</time>
      </trkpt>
      <trkpt lat="43.626460" lon="10.635016">
        <ele>18.042340</ele>
        <time>2026-05-06T19:55:07.824Z</time>
      </trkpt>
      <trkpt lat="43.626279" lon="10.634986">
        <ele>18.008789</ele>
        <time>2026-05-06T19:55:13.023Z</time>
      </trkpt>
      <trkpt lat="43.626177" lon="10.634934">
        <ele>17.988778</ele>
        <time>2026-05-06T19:55:16.142Z</time>
      </trkpt>
      <trkpt lat="43.625958" lon="10.634745">
        <ele>17.941253</ele>
        <time>2026-05-06T19:55:23.633Z</time>
      </trkpt>
      <trkpt lat="43.625797" lon="10.634671">
        <ele>17.910024</ele>
        <time>2026-05-06T19:55:28.574Z</time>
      </trkpt>
      <trkpt lat="43.625306" lon="10.634717">
        <ele>18.075277</ele>
        <time>2026-05-06T19:55:43.289Z</time>
      </trkpt>
      <trkpt lat="43.624787" lon="10.634779">
        <ele>18.374326</ele>
        <time>2026-05-06T19:55:59.530Z</time>
      </trkpt>
      <trkpt lat="43.624706" lon="10.634788">
        <ele>18.420975</ele>
        <time>2026-05-06T19:56:02.124Z</time>
      </trkpt>
      <trkpt lat="43.624512" lon="10.634774">
        <ele>18.532494</ele>
        <time>2026-05-06T19:56:08.376Z</time>
      </trkpt>
      <trkpt lat="43.624359" lon="10.634702">
        <ele>18.625282</ele>
        <time>2026-05-06T19:56:13.584Z</time>
      </trkpt>
      <trkpt lat="43.624031" lon="10.634390">
        <ele>18.853893</ele>
        <time>2026-05-06T19:56:26.513Z</time>
      </trkpt>
      <trkpt lat="43.623902" lon="10.634338">
        <ele>18.962169</ele>
        <time>2026-05-06T19:56:30.884Z</time>
      </trkpt>
      <trkpt lat="43.623753" lon="10.634343">
        <ele>19.204885</ele>
        <time>2026-05-06T19:56:35.775Z</time>
      </trkpt>
      <trkpt lat="43.623411" lon="10.634468">
        <ele>19.780992</ele>
        <time>2026-05-06T19:56:47.425Z</time>
      </trkpt>
      <trkpt lat="43.622870" lon="10.634403">
        <ele>20.665329</ele>
        <time>2026-05-06T19:57:06.309Z</time>
      </trkpt>
      <trkpt lat="43.622374" lon="10.634301">
        <ele>21.481960</ele>
        <time>2026-05-06T19:57:24.820Z</time>
      </trkpt>
      <trkpt lat="43.622238" lon="10.634248">
        <ele>21.712079</ele>
        <time>2026-05-06T19:57:30.042Z</time>
      </trkpt>
      <trkpt lat="43.622102" lon="10.634111">
        <ele>21.953479</ele>
        <time>2026-05-06T19:57:36.212Z</time>
      </trkpt>
      <trkpt lat="43.621790" lon="10.634040">
        <ele>22.350666</ele>
        <time>2026-05-06T19:57:44.118Z</time>
      </trkpt>
      <trkpt lat="43.621893" lon="10.633813">
        <ele>22.594274</ele>
        <time>2026-05-06T19:57:48.712Z</time>
      </trkpt>
      <trkpt lat="43.622179" lon="10.633183">
        <ele>23.270459</ele>
        <time>2026-05-06T19:58:00.873Z</time>
      </trkpt>
      <trkpt lat="43.622445" lon="10.632599">
        <ele>23.897860</ele>
        <time>2026-05-06T19:58:10.929Z</time>
      </trkpt>
      <trkpt lat="43.622471" lon="10.632540">
        <ele>23.960667</ele>
        <time>2026-05-06T19:58:11.843Z</time>
      </trkpt>
      <trkpt lat="43.622915" lon="10.631563">
        <ele>24.255935</ele>
        <time>2026-05-06T19:58:26.207Z</time>
      </trkpt>
      <trkpt lat="43.622935" lon="10.631517">
        <ele>24.264191</ele>
        <time>2026-05-06T19:58:26.891Z</time>
      </trkpt>
      <trkpt lat="43.622870" lon="10.631450">
        <ele>24.281428</ele>
        <time>2026-05-06T19:58:28.403Z</time>
      </trkpt>
      <trkpt lat="43.622611" lon="10.631229">
        <ele>24.346131</ele>
        <time>2026-05-06T19:58:34.128Z</time>
      </trkpt>
      <trkpt lat="43.622416" lon="10.631149">
        <ele>24.389365</ele>
        <time>2026-05-06T19:58:38.131Z</time>
      </trkpt>
      <trkpt lat="43.621904" lon="10.631308">
        <ele>24.517845</ele>
        <time>2026-05-06T19:58:48.957Z</time>
      </trkpt>
      <trkpt lat="43.621581" lon="10.631408">
        <ele>24.661872</ele>
        <time>2026-05-06T19:58:55.668Z</time>
      </trkpt>
      <trkpt lat="43.621350" lon="10.631334">
        <ele>24.765050</ele>
        <time>2026-05-06T19:59:00.608Z</time>
      </trkpt>
      <trkpt lat="43.621320" lon="10.631312">
        <ele>24.779828</ele>
        <time>2026-05-06T19:59:01.481Z</time>
      </trkpt>
      <trkpt lat="43.621159" lon="10.631946">
        <ele>24.991458</ele>
        <time>2026-05-06T19:59:13.796Z</time>
      </trkpt>
      <trkpt lat="43.621193" lon="10.631970">
        <ele>25.008071</ele>
        <time>2026-05-06T19:59:14.725Z</time>
      </trkpt>
      <trkpt lat="43.621301" lon="10.631606">
        <ele>25.131981</ele>
        <time>2026-05-06T19:59:20.125Z</time>
      </trkpt>
      <trkpt lat="43.621243" lon="10.631580">
        <ele>25.158513</ele>
        <time>2026-05-06T19:59:21.340Z</time>
      </trkpt>
      <trkpt lat="43.620550" lon="10.631203">
        <ele>25.160597</ele>
        <time>2026-05-06T19:59:34.861Z</time>
      </trkpt>
      <trkpt lat="43.620542" lon="10.631182">
        <ele>25.156891</ele>
        <time>2026-05-06T19:59:35.180Z</time>
      </trkpt>
      <trkpt lat="43.620522" lon="10.631165">
        <ele>25.151825</ele>
        <time>2026-05-06T19:59:35.566Z</time>
      </trkpt>
      <trkpt lat="43.620450" lon="10.631151">
        <ele>25.136138</ele>
        <time>2026-05-06T19:59:36.785Z</time>
      </trkpt>
      <trkpt lat="43.620047" lon="10.630921">
        <ele>25.042065</ele>
        <time>2026-05-06T19:59:44.563Z</time>
      </trkpt>
      <trkpt lat="43.619827" lon="10.630796">
        <ele>24.990743</ele>
        <time>2026-05-06T19:59:48.619Z</time>
      </trkpt>
      <trkpt lat="43.619776" lon="10.630962">
        <ele>24.962579</ele>
        <time>2026-05-06T19:59:50.792Z</time>
      </trkpt>
      <trkpt lat="43.619738" lon="10.631101">
        <ele>24.939373</ele>
        <time>2026-05-06T19:59:52.566Z</time>
      </trkpt>
      <trkpt lat="43.619643" lon="10.631432">
        <ele>24.883761</ele>
        <time>2026-05-06T19:59:56.771Z</time>
      </trkpt>
      <trkpt lat="43.619583" lon="10.631640">
        <ele>24.782259</ele>
        <time>2026-05-06T19:59:59.409Z</time>
      </trkpt>
      <trkpt lat="43.619511" lon="10.631902">
        <ele>24.642990</ele>
        <time>2026-05-06T20:00:02.688Z</time>
      </trkpt>
      <trkpt lat="43.619456" lon="10.632100">
        <ele>24.537598</ele>
        <time>2026-05-06T20:00:05.208Z</time>
      </trkpt>
      <trkpt lat="43.619373" lon="10.632440">
        <ele>24.359284</ele>
        <time>2026-05-06T20:00:09.486Z</time>
      </trkpt>
      <trkpt lat="43.619284" lon="10.632793">
        <ele>24.173522</ele>
        <time>2026-05-06T20:00:13.865Z</time>
      </trkpt>
      <trkpt lat="43.619277" lon="10.632819">
        <ele>24.159737</ele>
        <time>2026-05-06T20:00:14.182Z</time>
      </trkpt>
      <trkpt lat="43.619214" lon="10.633104">
        <ele>24.011647</ele>
        <time>2026-05-06T20:00:17.378Z</time>
      </trkpt>
      <trkpt lat="43.619216" lon="10.633183">
        <ele>23.972363</ele>
        <time>2026-05-06T20:00:18.237Z</time>
      </trkpt>
      <trkpt lat="43.619253" lon="10.633270">
        <ele>23.922219</ele>
        <time>2026-05-06T20:00:19.311Z</time>
      </trkpt>
      <trkpt lat="43.619372" lon="10.633276">
        <ele>23.840475</ele>
        <time>2026-05-06T20:00:21.139Z</time>
      </trkpt>
      <trkpt lat="43.619900" lon="10.633425">
        <ele>23.677737</ele>
        <time>2026-05-06T20:00:29.816Z</time>
      </trkpt>
      <trkpt lat="43.619799" lon="10.633786">
        <ele>23.714384</ele>
        <time>2026-05-06T20:00:34.514Z</time>
      </trkpt>
      <trkpt lat="43.619692" lon="10.634171">
        <ele>23.753434</ele>
        <time>2026-05-06T20:00:40.105Z</time>
      </trkpt>
      <trkpt lat="43.619507" lon="10.634429">
        <ele>23.787820</ele>
        <time>2026-05-06T20:00:45.198Z</time>
      </trkpt>
      <trkpt lat="43.619193" lon="10.634815">
        <ele>23.842800</ele>
        <time>2026-05-06T20:00:53.075Z</time>
      </trkpt>
      <trkpt lat="43.618878" lon="10.635346">
        <ele>24.008901</ele>
        <time>2026-05-06T20:01:03.278Z</time>
      </trkpt>
      <trkpt lat="43.618390" lon="10.636155">
        <ele>24.469038</ele>
        <time>2026-05-06T20:01:18.769Z</time>
      </trkpt>
      <trkpt lat="43.618017" lon="10.636829">
        <ele>24.839750</ele>
        <time>2026-05-06T20:01:30.562Z</time>
      </trkpt>
      <trkpt lat="43.617922" lon="10.637063">
        <ele>24.956982</ele>
        <time>2026-05-06T20:01:34.229Z</time>
      </trkpt>
      <trkpt lat="43.617803" lon="10.637389">
        <ele>25.022310</ele>
        <time>2026-05-06T20:01:39.232Z</time>
      </trkpt>
      <trkpt lat="43.617669" lon="10.637674">
        <ele>25.078186</ele>
        <time>2026-05-06T20:01:43.920Z</time>
      </trkpt>
      <trkpt lat="43.617524" lon="10.637920">
        <ele>25.130345</ele>
        <time>2026-05-06T20:01:48.263Z</time>
      </trkpt>
      <trkpt lat="43.616900" lon="10.638740">
        <ele>25.325956</ele>
        <time>2026-05-06T20:02:04.105Z</time>
      </trkpt>
      <trkpt lat="43.616666" lon="10.639057">
        <ele>25.385055</ele>
        <time>2026-05-06T20:02:09.886Z</time>
      </trkpt>
      <trkpt lat="43.616334" lon="10.639544">
        <ele>25.431174</ele>
        <time>2026-05-06T20:02:18.468Z</time>
      </trkpt>
      <trkpt lat="43.616009" lon="10.640154">
        <ele>25.483391</ele>
        <time>2026-05-06T20:02:28.470Z</time>
      </trkpt>
      <trkpt lat="43.615851" lon="10.640389">
        <ele>25.505502</ele>
        <time>2026-05-06T20:02:32.693Z</time>
      </trkpt>
      <trkpt lat="43.615655" lon="10.640578">
        <ele>25.528265</ele>
        <time>2026-05-06T20:02:37.048Z</time>
      </trkpt>
      <trkpt lat="43.615229" lon="10.640890">
        <ele>25.606430</ele>
        <time>2026-05-06T20:02:45.887Z</time>
      </trkpt>
      <trkpt lat="43.614859" lon="10.641148">
        <ele>25.689912</ele>
        <time>2026-05-06T20:02:53.411Z</time>
      </trkpt>
      <trkpt lat="43.614428" lon="10.641438">
        <ele>25.786474</ele>
        <time>2026-05-06T20:03:02.214Z</time>
      </trkpt>
      <trkpt lat="43.614038" lon="10.641644">
        <ele>25.870574</ele>
        <time>2026-05-06T20:03:09.908Z</time>
      </trkpt>
      <trkpt lat="43.613532" lon="10.641831">
        <ele>26.161014</ele>
        <time>2026-05-06T20:03:19.875Z</time>
      </trkpt>
      <trkpt lat="43.613306" lon="10.641951">
        <ele>26.341372</ele>
        <time>2026-05-06T20:03:24.631Z</time>
      </trkpt>
      <trkpt lat="43.612841" lon="10.642364">
        <ele>26.753186</ele>
        <time>2026-05-06T20:03:36.023Z</time>
      </trkpt>
      <trkpt lat="43.612629" lon="10.642502">
        <ele>26.927765</ele>
        <time>2026-05-06T20:03:40.918Z</time>
      </trkpt>
      <trkpt lat="43.612025" lon="10.642697">
        <ele>27.367833</ele>
        <time>2026-05-06T20:03:53.950Z</time>
      </trkpt>
      <trkpt lat="43.611916" lon="10.642735">
        <ele>27.438654</ele>
        <time>2026-05-06T20:03:56.269Z</time>
      </trkpt>
      <trkpt lat="43.611547" lon="10.642925">
        <ele>27.686745</ele>
        <time>2026-05-06T20:04:03.979Z</time>
      </trkpt>
      <trkpt lat="43.611200" lon="10.643013">
        <ele>27.909002</ele>
        <time>2026-05-06T20:04:10.343Z</time>
      </trkpt>
      <trkpt lat="43.611148" lon="10.643021">
        <ele>27.941963</ele>
        <time>2026-05-06T20:04:11.280Z</time>
      </trkpt>
      <trkpt lat="43.610943" lon="10.643018">
        <ele>28.071116</ele>
        <time>2026-05-06T20:04:14.979Z</time>
      </trkpt>
      <trkpt lat="43.610695" lon="10.642936">
        <ele>28.231765</ele>
        <time>2026-05-06T20:04:19.989Z</time>
      </trkpt>
      <trkpt lat="43.610590" lon="10.642803">
        <ele>28.321519</ele>
        <time>2026-05-06T20:04:22.922Z</time>
      </trkpt>
      <trkpt lat="43.610426" lon="10.642722">
        <ele>28.385600</ele>
        <time>2026-05-06T20:04:26.639Z</time>
      </trkpt>
      <trkpt lat="43.610253" lon="10.642744">
        <ele>28.396695</ele>
        <time>2026-05-06T20:04:30.546Z</time>
      </trkpt>
      <trkpt lat="43.610103" lon="10.642864">
        <ele>28.407766</ele>
        <time>2026-05-06T20:04:34.567Z</time>
      </trkpt>
      <trkpt lat="43.610001" lon="10.643068">
        <ele>28.419229</ele>
        <time>2026-05-06T20:04:38.567Z</time>
      </trkpt>
      <trkpt lat="43.609974" lon="10.643313">
        <ele>28.430689</ele>
        <time>2026-05-06T20:04:42.275Z</time>
      </trkpt>
      <trkpt lat="43.610008" lon="10.643502">
        <ele>28.439694</ele>
        <time>2026-05-06T20:04:44.986Z</time>
      </trkpt>
      <trkpt lat="43.610087" lon="10.643663">
        <ele>28.448687</ele>
        <time>2026-05-06T20:04:47.588Z</time>
      </trkpt>
      <trkpt lat="43.609933" lon="10.643890">
        <ele>28.463071</ele>
        <time>2026-05-06T20:04:51.505Z</time>
      </trkpt>
      <trkpt lat="43.609898" lon="10.643952">
        <ele>28.466706</ele>
        <time>2026-05-06T20:04:53.133Z</time>
      </trkpt>
      <trkpt lat="43.609732" lon="10.644032">
        <ele>28.477934</ele>
        <time>2026-05-06T20:04:58.073Z</time>
      </trkpt>
      <trkpt lat="43.609603" lon="10.643922">
        <ele>28.487616</ele>
        <time>2026-05-06T20:05:02.189Z</time>
      </trkpt>
      <trkpt lat="43.609362" lon="10.643212">
        <ele>27.862091</ele>
        <time>2026-05-06T20:05:16.343Z</time>
      </trkpt>
      <trkpt lat="43.609219" lon="10.643010">
        <ele>27.572431</ele>
        <time>2026-05-06T20:05:21.259Z</time>
      </trkpt>
      <trkpt lat="43.609107" lon="10.642966">
        <ele>27.407538</ele>
        <time>2026-05-06T20:05:23.993Z</time>
      </trkpt>
      <trkpt lat="43.608539" lon="10.642882">
        <ele>26.598608</ele>
        <time>2026-05-06T20:05:37.835Z</time>
      </trkpt>
      <trkpt lat="43.605530" lon="10.642439">
        <ele>27.508504</ele>
        <time>2026-05-06T20:07:15.437Z</time>
      </trkpt>
      <trkpt lat="43.604404" lon="10.642416">
        <ele>27.933893</ele>
        <time>2026-05-06T20:07:49.528Z</time>
      </trkpt>
      <trkpt lat="43.598622" lon="10.642299">
        <ele>28.424197</ele>
        <time>2026-05-06T20:10:39.596Z</time>
      </trkpt>
      <trkpt lat="43.598235" lon="10.643181">
        <ele>29.503201</ele>
        <time>2026-05-06T20:10:57.820Z</time>
      </trkpt>
      <trkpt lat="43.597994" lon="10.643871">
        <ele>30.304730</ele>
        <time>2026-05-06T20:11:12.522Z</time>
      </trkpt>
      <trkpt lat="43.597771" lon="10.644423">
        <ele>31.375546</ele>
        <time>2026-05-06T20:11:24.302Z</time>
      </trkpt>
      <trkpt lat="43.597759" lon="10.644486">
        <ele>31.487305</ele>
        <time>2026-05-06T20:11:26.000Z</time>
      </trkpt>
      <trkpt lat="43.597784" lon="10.644580">
        <ele>31.659103</ele>
        <time>2026-05-06T20:11:28.647Z</time>
      </trkpt>
      <trkpt lat="43.598242" lon="10.645327">
        <ele>33.338264</ele>
        <time>2026-05-06T20:11:53.915Z</time>
      </trkpt>
      <trkpt lat="43.598702" lon="10.645994">
        <ele>35.417177</ele>
        <time>2026-05-06T20:12:19.221Z</time>
      </trkpt>
      <trkpt lat="43.598814" lon="10.646219">
        <ele>36.590224</ele>
        <time>2026-05-06T20:12:27.280Z</time>
      </trkpt>
      <trkpt lat="43.598830" lon="10.646308">
        <ele>36.984215</ele>
        <time>2026-05-06T20:12:30.068Z</time>
      </trkpt>
      <trkpt lat="43.598821" lon="10.646418">
        <ele>37.459831</ele>
        <time>2026-05-06T20:12:33.497Z</time>
      </trkpt>
      <trkpt lat="43.598546" lon="10.647313">
        <ele>41.636966</ele>
        <time>2026-05-06T20:13:07.097Z</time>
      </trkpt>
      <trkpt lat="43.598482" lon="10.647674">
        <ele>43.233794</ele>
        <time>2026-05-06T20:13:21.621Z</time>
      </trkpt>
      <trkpt lat="43.598478" lon="10.647864">
        <ele>44.050469</ele>
        <time>2026-05-06T20:13:29.375Z</time>
      </trkpt>
      <trkpt lat="43.598652" lon="10.648356">
        <ele>46.805342</ele>
        <time>2026-05-06T20:13:52.771Z</time>
      </trkpt>
      <trkpt lat="43.598892" lon="10.648886">
        <ele>50.434827</ele>
        <time>2026-05-06T20:14:20.651Z</time>
      </trkpt>
      <trkpt lat="43.598940" lon="10.649064">
        <ele>51.537691</ele>
        <time>2026-05-06T20:14:29.017Z</time>
      </trkpt>
      <trkpt lat="43.598958" lon="10.649336">
        <ele>53.123606</ele>
        <time>2026-05-06T20:14:40.763Z</time>
      </trkpt>
      <trkpt lat="43.598918" lon="10.649584">
        <ele>54.598870</ele>
        <time>2026-05-06T20:14:51.356Z</time>
      </trkpt>
      <trkpt lat="43.598843" lon="10.649792">
        <ele>55.948022</ele>
        <time>2026-05-06T20:15:00.598Z</time>
      </trkpt>
      <trkpt lat="43.598785" lon="10.649895">
        <ele>56.705604</ele>
        <time>2026-05-06T20:15:05.596Z</time>
      </trkpt>
      <trkpt lat="43.598622" lon="10.650076">
        <ele>58.382658</ele>
        <time>2026-05-06T20:15:16.269Z</time>
      </trkpt>
      <trkpt lat="43.598033" lon="10.650300">
        <ele>61.062520</ele>
        <time>2026-05-06T20:15:44.259Z</time>
      </trkpt>
      <trkpt lat="43.597833" lon="10.650443">
        <ele>61.756094</ele>
        <time>2026-05-06T20:15:53.385Z</time>
      </trkpt>
      <trkpt lat="43.597754" lon="10.650585">
        <ele>62.155439</ele>
        <time>2026-05-06T20:15:58.319Z</time>
      </trkpt>
      <trkpt lat="43.596956" lon="10.652611">
        <ele>65.783765</ele>
        <time>2026-05-06T20:16:57.095Z</time>
      </trkpt>
      <trkpt lat="43.596695" lon="10.652710">
        <ele>66.010379</ele>
        <time>2026-05-06T20:17:06.037Z</time>
      </trkpt>
      <trkpt lat="43.596508" lon="10.652842">
        <ele>66.186214</ele>
        <time>2026-05-06T20:17:12.785Z</time>
      </trkpt>
      <trkpt lat="43.596397" lon="10.652986">
        <ele>66.313729</ele>
        <time>2026-05-06T20:17:17.582Z</time>
      </trkpt>
      <trkpt lat="43.596189" lon="10.653534">
        <ele>66.688874</ele>
        <time>2026-05-06T20:17:31.153Z</time>
      </trkpt>
      <trkpt lat="43.595150" lon="10.654231">
        <ele>65.376219</ele>
        <time>2026-05-06T20:18:02.736Z</time>
      </trkpt>
      <trkpt lat="43.594396" lon="10.654475">
        <ele>64.347499</ele>
        <time>2026-05-06T20:18:22.436Z</time>
      </trkpt>
      <trkpt lat="43.593652" lon="10.654650">
        <ele>62.660928</ele>
        <time>2026-05-06T20:18:40.500Z</time>
      </trkpt>
      <trkpt lat="43.593573" lon="10.654704">
        <ele>62.463937</ele>
        <time>2026-05-06T20:18:42.600Z</time>
      </trkpt>
      <trkpt lat="43.593432" lon="10.654801">
        <ele>62.111900</ele>
        <time>2026-05-06T20:18:46.380Z</time>
      </trkpt>
      <trkpt lat="43.593063" lon="10.655197">
        <ele>61.067508</ele>
        <time>2026-05-06T20:18:57.822Z</time>
      </trkpt>
      <trkpt lat="43.592664" lon="10.656137">
        <ele>61.377619</ele>
        <time>2026-05-06T20:19:19.052Z</time>
      </trkpt>
      <trkpt lat="43.592515" lon="10.656560">
        <ele>61.907110</ele>
        <time>2026-05-06T20:19:30.801Z</time>
      </trkpt>
      <trkpt lat="43.592465" lon="10.656699">
        <ele>62.081815</ele>
        <time>2026-05-06T20:19:35.064Z</time>
      </trkpt>
      <trkpt lat="43.592238" lon="10.657070">
        <ele>62.628524</ele>
        <time>2026-05-06T20:19:49.352Z</time>
      </trkpt>
      <trkpt lat="43.592121" lon="10.657334">
        <ele>62.976927</ele>
        <time>2026-05-06T20:19:58.950Z</time>
      </trkpt>
      <trkpt lat="43.592037" lon="10.657643">
        <ele>63.326659</ele>
        <time>2026-05-06T20:20:09.217Z</time>
      </trkpt>
      <trkpt lat="43.591911" lon="10.658347">
        <ele>63.455441</ele>
        <time>2026-05-06T20:20:30.134Z</time>
      </trkpt>
      <trkpt lat="43.591867" lon="10.658524">
        <ele>63.488674</ele>
        <time>2026-05-06T20:20:34.976Z</time>
      </trkpt>
      <trkpt lat="43.591777" lon="10.658738">
        <ele>63.532620</ele>
        <time>2026-05-06T20:20:40.995Z</time>
      </trkpt>
      <trkpt lat="43.591628" lon="10.658916">
        <ele>63.580931</ele>
        <time>2026-05-06T20:20:47.027Z</time>
      </trkpt>
      <trkpt lat="43.591424" lon="10.659082">
        <ele>63.638992</ele>
        <time>2026-05-06T20:20:53.472Z</time>
      </trkpt>
      <trkpt lat="43.590727" lon="10.659545">
        <ele>62.934965</ele>
        <time>2026-05-06T20:21:11.737Z</time>
      </trkpt>
      <trkpt lat="43.589769" lon="10.660353">
        <ele>59.428610</ele>
        <time>2026-05-06T20:21:37.306Z</time>
      </trkpt>
      <trkpt lat="43.589035" lon="10.661217">
        <ele>56.728416</ele>
        <time>2026-05-06T20:22:02.408Z</time>
      </trkpt>
      <trkpt lat="43.588443" lon="10.662262">
        <ele>54.269306</ele>
        <time>2026-05-06T20:22:26.320Z</time>
      </trkpt>
      <trkpt lat="43.588295" lon="10.662518">
        <ele>53.662162</ele>
        <time>2026-05-06T20:22:29.464Z</time>
      </trkpt>
      <trkpt lat="43.587954" lon="10.662150">
        <ele>52.021331</ele>
        <time>2026-05-06T20:22:39.137Z</time>
      </trkpt>
      <trkpt lat="43.587883" lon="10.662105">
        <ele>51.713529</ele>
        <time>2026-05-06T20:22:40.850Z</time>
      </trkpt>
      <trkpt lat="43.587810" lon="10.662107">
        <ele>51.425860</ele>
        <time>2026-05-06T20:22:42.444Z</time>
      </trkpt>
      <trkpt lat="43.587465" lon="10.662384">
        <ele>49.853446</ele>
        <time>2026-05-06T20:22:51.094Z</time>
      </trkpt>
      <trkpt lat="43.587224" lon="10.662454">
        <ele>48.883143</ele>
        <time>2026-05-06T20:22:56.472Z</time>
      </trkpt>
      <trkpt lat="43.587160" lon="10.662422">
        <ele>48.614961</ele>
        <time>2026-05-06T20:22:57.980Z</time>
      </trkpt>
      <trkpt lat="43.587041" lon="10.662294">
        <ele>48.020612</ele>
        <time>2026-05-06T20:23:01.402Z</time>
      </trkpt>
      <trkpt lat="43.586824" lon="10.661995">
        <ele>46.812701</ele>
        <time>2026-05-06T20:23:08.848Z</time>
      </trkpt>
      <trkpt lat="43.586702" lon="10.661881">
        <ele>46.385878</ele>
        <time>2026-05-06T20:23:12.638Z</time>
      </trkpt>
      <trkpt lat="43.586625" lon="10.661760">
        <ele>46.241410</ele>
        <time>2026-05-06T20:23:15.718Z</time>
      </trkpt>
      <trkpt lat="43.586540" lon="10.661551">
        <ele>46.026417</ele>
        <time>2026-05-06T20:23:20.350Z</time>
      </trkpt>
      <trkpt lat="43.586389" lon="10.661447">
        <ele>45.817452</ele>
        <time>2026-05-06T20:23:24.911Z</time>
      </trkpt>
      <trkpt lat="43.586239" lon="10.661415">
        <ele>45.629499</ele>
        <time>2026-05-06T20:23:28.995Z</time>
      </trkpt>
      <trkpt lat="43.585776" lon="10.661452">
        <ele>45.055194</ele>
        <time>2026-05-06T20:23:41.380Z</time>
      </trkpt>
      <trkpt lat="43.585426" lon="10.660097">
        <ele>44.337108</ele>
        <time>2026-05-06T20:24:09.953Z</time>
      </trkpt>
      <trkpt lat="43.585285" lon="10.659288">
        <ele>44.510989</ele>
        <time>2026-05-06T20:24:27.187Z</time>
      </trkpt>
      <trkpt lat="43.584310" lon="10.659576">
        <ele>45.355351</ele>
        <time>2026-05-06T20:25:00.214Z</time>
      </trkpt>
      <trkpt lat="43.584050" lon="10.659839">
        <ele>46.468092</ele>
        <time>2026-05-06T20:25:11.773Z</time>
      </trkpt>
      <trkpt lat="43.583823" lon="10.660015">
        <ele>47.366883</ele>
        <time>2026-05-06T20:25:21.580Z</time>
      </trkpt>
      <trkpt lat="43.583134" lon="10.659882">
        <ele>49.768616</ele>
        <time>2026-05-06T20:25:51.230Z</time>
      </trkpt>
      <trkpt lat="43.582859" lon="10.659862">
        <ele>50.719299</ele>
        <time>2026-05-06T20:26:04.108Z</time>
      </trkpt>
      <trkpt lat="43.582675" lon="10.659962">
        <ele>51.739167</ele>
        <time>2026-05-06T20:26:13.636Z</time>
      </trkpt>
      <trkpt lat="43.582188" lon="10.660002">
        <ele>54.700343</ele>
        <time>2026-05-06T20:26:38.050Z</time>
      </trkpt>
      <trkpt lat="43.580937" lon="10.660741">
        <ele>62.916717</ele>
        <time>2026-05-06T20:27:45.817Z</time>
      </trkpt>
      <trkpt lat="43.580759" lon="10.660871">
        <ele>64.090754</ele>
        <time>2026-05-06T20:27:55.374Z</time>
      </trkpt>
      <trkpt lat="43.580219" lon="10.661001">
        <ele>67.286505</ele>
        <time>2026-05-06T20:28:22.017Z</time>
      </trkpt>
      <trkpt lat="43.579911" lon="10.661147">
        <ele>69.185084</ele>
        <time>2026-05-06T20:28:38.112Z</time>
      </trkpt>
      <trkpt lat="43.579604" lon="10.661247">
        <ele>71.024068</ele>
        <time>2026-05-06T20:28:52.799Z</time>
      </trkpt>
      <trkpt lat="43.579380" lon="10.661137">
        <ele>72.415892</ele>
        <time>2026-05-06T20:29:03.659Z</time>
      </trkpt>
      <trkpt lat="43.579173" lon="10.661104">
        <ele>73.771000</ele>
        <time>2026-05-06T20:29:13.261Z</time>
      </trkpt>
      <trkpt lat="43.579006" lon="10.661180">
        <ele>74.914529</ele>
        <time>2026-05-06T20:29:21.804Z</time>
      </trkpt>
      <trkpt lat="43.578896" lon="10.661267">
        <ele>75.738978</ele>
        <time>2026-05-06T20:29:28.290Z</time>
      </trkpt>
      <trkpt lat="43.578962" lon="10.661388">
        <ele>76.452537</ele>
        <time>2026-05-06T20:29:33.929Z</time>
      </trkpt>
      <trkpt lat="43.579022" lon="10.661690">
        <ele>77.927816</ele>
        <time>2026-05-06T20:29:45.811Z</time>
      </trkpt>
      <trkpt lat="43.578962" lon="10.661388">
        <ele>79.403095</ele>
        <time>2026-05-06T20:29:57.947Z</time>
      </trkpt>
      <trkpt lat="43.578896" lon="10.661267">
        <ele>80.116655</ele>
        <time>2026-05-06T20:30:03.646Z</time>
      </trkpt>
      <trkpt lat="43.578478" lon="10.661400">
        <ele>82.906267</ele>
        <time>2026-05-06T20:30:25.882Z</time>
      </trkpt>
      <trkpt lat="43.578039" lon="10.661607">
        <ele>85.060470</ele>
        <time>2026-05-06T20:30:49.500Z</time>
      </trkpt>
      <trkpt lat="43.577771" lon="10.661790">
        <ele>86.105762</ele>
        <time>2026-05-06T20:31:04.639Z</time>
      </trkpt>
      <trkpt lat="43.577398" lon="10.661986">
        <ele>87.501054</ele>
        <time>2026-05-06T20:31:22.368Z</time>
      </trkpt>
      <trkpt lat="43.576967" lon="10.662100">
        <ele>89.035240</ele>
        <time>2026-05-06T20:31:38.360Z</time>
      </trkpt>
      <trkpt lat="43.576691" lon="10.662003">
        <ele>90.030917</ele>
        <time>2026-05-06T20:31:46.756Z</time>
      </trkpt>
      <trkpt lat="43.576422" lon="10.662004">
        <ele>90.114520</ele>
        <time>2026-05-06T20:31:54.149Z</time>
      </trkpt>
      <trkpt lat="43.576256" lon="10.662147">
        <ele>89.861852</ele>
        <time>2026-05-06T20:31:57.332Z</time>
      </trkpt>
      <trkpt lat="43.576422" lon="10.662004">
        <ele>89.609184</ele>
        <time>2026-05-06T20:32:00.429Z</time>
      </trkpt>
      <trkpt lat="43.576584" lon="10.661773">
        <ele>89.308427</ele>
        <time>2026-05-06T20:32:04.121Z</time>
      </trkpt>
      <trkpt lat="43.576666" lon="10.661608">
        <ele>89.121248</ele>
        <time>2026-05-06T20:32:06.431Z</time>
      </trkpt>
      <trkpt lat="43.577154" lon="10.660406">
        <ele>87.465421</ele>
        <time>2026-05-06T20:32:21.251Z</time>
      </trkpt>
      <trkpt lat="43.577215" lon="10.660249">
        <ele>86.978324</ele>
        <time>2026-05-06T20:32:23.165Z</time>
      </trkpt>
      <trkpt lat="43.577355" lon="10.660006">
        <ele>86.129444</ele>
        <time>2026-05-06T20:32:26.428Z</time>
      </trkpt>
      <trkpt lat="43.577563" lon="10.659762">
        <ele>85.099250</ele>
        <time>2026-05-06T20:32:30.336Z</time>
      </trkpt>
      <trkpt lat="43.577786" lon="10.659692">
        <ele>84.236140</ele>
        <time>2026-05-06T20:32:33.523Z</time>
      </trkpt>
      <trkpt lat="43.578499" lon="10.659748">
        <ele>81.540857</ele>
        <time>2026-05-06T20:32:42.609Z</time>
      </trkpt>
      <trkpt lat="43.578784" lon="10.659557">
        <ele>79.462633</ele>
        <time>2026-05-06T20:32:49.295Z</time>
      </trkpt>
      <trkpt lat="43.578932" lon="10.659399">
        <ele>78.056050</ele>
        <time>2026-05-06T20:32:53.163Z</time>
      </trkpt>
      <trkpt lat="43.579162" lon="10.657688">
        <ele>68.578535</ele>
        <time>2026-05-06T20:33:18.475Z</time>
      </trkpt>
      <trkpt lat="43.579403" lon="10.656890">
        <ele>65.964060</ele>
        <time>2026-05-06T20:33:31.630Z</time>
      </trkpt>
      <trkpt lat="43.579440" lon="10.656567">
        <ele>65.153634</ele>
        <time>2026-05-06T20:33:36.985Z</time>
      </trkpt>
      <trkpt lat="43.579268" lon="10.656094">
        <ele>63.842017</ele>
        <time>2026-05-06T20:33:46.295Z</time>
      </trkpt>
      <trkpt lat="43.579210" lon="10.655779">
        <ele>63.036539</ele>
        <time>2026-05-06T20:33:52.477Z</time>
      </trkpt>
      <trkpt lat="43.579195" lon="10.655143">
        <ele>61.512421</ele>
        <time>2026-05-06T20:34:05.616Z</time>
      </trkpt>
      <trkpt lat="43.579293" lon="10.654829">
        <ele>61.113537</ele>
        <time>2026-05-06T20:34:13.050Z</time>
      </trkpt>
      <trkpt lat="43.579384" lon="10.654540">
        <ele>60.745898</ele>
        <time>2026-05-06T20:34:19.854Z</time>
      </trkpt>
      <trkpt lat="43.579549" lon="10.654171">
        <ele>60.239993</ele>
        <time>2026-05-06T20:34:28.781Z</time>
      </trkpt>
      <trkpt lat="43.579749" lon="10.654030">
        <ele>59.878323</ele>
        <time>2026-05-06T20:34:34.767Z</time>
      </trkpt>
      <trkpt lat="43.580121" lon="10.653702">
        <ele>59.167445</ele>
        <time>2026-05-06T20:34:45.848Z</time>
      </trkpt>
      <trkpt lat="43.581038" lon="10.652841">
        <ele>54.563316</ele>
        <time>2026-05-06T20:35:11.157Z</time>
      </trkpt>
      <trkpt lat="43.581326" lon="10.652516">
        <ele>52.646752</ele>
        <time>2026-05-06T20:35:19.112Z</time>
      </trkpt>
      <trkpt lat="43.581531" lon="10.652191">
        <ele>51.038347</ele>
        <time>2026-05-06T20:35:25.675Z</time>
      </trkpt>
      <trkpt lat="43.581623" lon="10.651777">
        <ele>49.422107</ele>
        <time>2026-05-06T20:35:32.211Z</time>
      </trkpt>
      <trkpt lat="43.581462" lon="10.651454">
        <ele>48.557175</ele>
        <time>2026-05-06T20:35:35.640Z</time>
      </trkpt>
      <trkpt lat="43.581144" lon="10.650697">
        <ele>46.651321</ele>
        <time>2026-05-06T20:35:43.486Z</time>
      </trkpt>
      <trkpt lat="43.580894" lon="10.649850">
        <ele>44.659355</ele>
        <time>2026-05-06T20:35:52.961Z</time>
      </trkpt>
      <trkpt lat="43.579913" lon="10.646257">
        <ele>54.509387</ele>
        <time>2026-05-06T20:37:24.185Z</time>
      </trkpt>
      <trkpt lat="43.579590" lon="10.645801">
        <ele>56.567986</ele>
        <time>2026-05-06T20:37:42.370Z</time>
      </trkpt>
      <trkpt lat="43.579453" lon="10.645491">
        <ele>57.740126</ele>
        <time>2026-05-06T20:37:51.953Z</time>
      </trkpt>
      <trkpt lat="43.579360" lon="10.645210">
        <ele>58.737332</ele>
        <time>2026-05-06T20:37:58.965Z</time>
      </trkpt>
      <trkpt lat="43.579314" lon="10.645071">
        <ele>59.060915</ele>
        <time>2026-05-06T20:38:01.970Z</time>
      </trkpt>
      <trkpt lat="43.579111" lon="10.644742">
        <ele>57.864847</ele>
        <time>2026-05-06T20:38:09.019Z</time>
      </trkpt>
      <trkpt lat="43.578955" lon="10.644569">
        <ele>57.100351</ele>
        <time>2026-05-06T20:38:12.410Z</time>
      </trkpt>
      <trkpt lat="43.578950" lon="10.644322">
        <ele>56.416478</ele>
        <time>2026-05-06T20:38:14.821Z</time>
      </trkpt>
      <trkpt lat="43.578878" lon="10.643788">
        <ele>54.913181</ele>
        <time>2026-05-06T20:38:19.562Z</time>
      </trkpt>
      <trkpt lat="43.578831" lon="10.643561">
        <ele>54.259770</ele>
        <time>2026-05-06T20:38:21.527Z</time>
      </trkpt>
      <trkpt lat="43.578717" lon="10.643200">
        <ele>53.169850</ele>
        <time>2026-05-06T20:38:24.733Z</time>
      </trkpt>
      <trkpt lat="43.578518" lon="10.642844">
        <ele>51.653144</ele>
        <time>2026-05-06T20:38:28.316Z</time>
      </trkpt>
      <trkpt lat="43.578310" lon="10.642599">
        <ele>49.777722</ele>
        <time>2026-05-06T20:38:31.331Z</time>
      </trkpt>
      <trkpt lat="43.578086" lon="10.642454">
        <ele>48.080807</ele>
        <time>2026-05-06T20:38:34.084Z</time>
      </trkpt>
      <trkpt lat="43.577014" lon="10.641947">
        <ele>40.308563</ele>
        <time>2026-05-06T20:38:47.194Z</time>
      </trkpt>
      <trkpt lat="43.576774" lon="10.641761">
        <ele>39.474150</ele>
        <time>2026-05-06T20:38:50.617Z</time>
      </trkpt>
      <trkpt lat="43.576582" lon="10.641538">
        <ele>38.953496</ele>
        <time>2026-05-06T20:38:53.839Z</time>
      </trkpt>
      <trkpt lat="43.576388" lon="10.641193">
        <ele>38.296999</ele>
        <time>2026-05-06T20:38:58.047Z</time>
      </trkpt>
      <trkpt lat="43.576266" lon="10.640823">
        <ele>37.685914</ele>
        <time>2026-05-06T20:39:02.239Z</time>
      </trkpt>
      <trkpt lat="43.576227" lon="10.640587">
        <ele>37.322045</ele>
        <time>2026-05-06T20:39:04.970Z</time>
      </trkpt>
      <trkpt lat="43.576181" lon="10.639788">
        <ele>36.205990</ele>
        <time>2026-05-06T20:39:15.841Z</time>
      </trkpt>
      <trkpt lat="43.576176" lon="10.639677">
        <ele>36.220340</ele>
        <time>2026-05-06T20:39:17.452Z</time>
      </trkpt>
      <trkpt lat="43.576127" lon="10.638816">
        <ele>36.331772</ele>
        <time>2026-05-06T20:39:29.623Z</time>
      </trkpt>
      <trkpt lat="43.576026" lon="10.638353">
        <ele>36.394160</ele>
        <time>2026-05-06T20:39:36.272Z</time>
      </trkpt>
      <trkpt lat="43.575930" lon="10.638154">
        <ele>36.425007</ele>
        <time>2026-05-06T20:39:39.516Z</time>
      </trkpt>
      <trkpt lat="43.575789" lon="10.637968">
        <ele>36.459743</ele>
        <time>2026-05-06T20:39:43.076Z</time>
      </trkpt>
      <trkpt lat="43.575636" lon="10.637813">
        <ele>36.493543</ele>
        <time>2026-05-06T20:39:46.435Z</time>
      </trkpt>
      <trkpt lat="43.575430" lon="10.637683">
        <ele>36.513826</ele>
        <time>2026-05-06T20:39:50.332Z</time>
      </trkpt>
      <trkpt lat="43.575216" lon="10.637611">
        <ele>36.499080</ele>
        <time>2026-05-06T20:39:53.904Z</time>
      </trkpt>
      <trkpt lat="43.574891" lon="10.637553">
        <ele>36.477142</ele>
        <time>2026-05-06T20:39:59.010Z</time>
      </trkpt>
      <trkpt lat="43.573529" lon="10.637346">
        <ele>36.406261</ele>
        <time>2026-05-06T20:40:23.823Z</time>
      </trkpt>
      <trkpt lat="43.573278" lon="10.637227">
        <ele>36.415966</ele>
        <time>2026-05-06T20:40:29.269Z</time>
      </trkpt>
      <trkpt lat="43.573146" lon="10.637119">
        <ele>36.421578</ele>
        <time>2026-05-06T20:40:32.421Z</time>
      </trkpt>
      <trkpt lat="43.572972" lon="10.636913">
        <ele>36.429961</ele>
        <time>2026-05-06T20:40:36.874Z</time>
      </trkpt>
      <trkpt lat="43.572827" lon="10.636639">
        <ele>36.438950</ele>
        <time>2026-05-06T20:40:41.419Z</time>
      </trkpt>
      <trkpt lat="43.572701" lon="10.636189">
        <ele>36.451732</ele>
        <time>2026-05-06T20:40:47.414Z</time>
      </trkpt>
      <trkpt lat="43.572675" lon="10.635913">
        <ele>36.459106</ele>
        <time>2026-05-06T20:40:50.693Z</time>
      </trkpt>
      <trkpt lat="43.572685" lon="10.635766">
        <ele>36.463017</ele>
        <time>2026-05-06T20:40:52.353Z</time>
      </trkpt>
      <trkpt lat="43.572910" lon="10.634324">
        <ele>36.094437</ele>
        <time>2026-05-06T20:41:09.040Z</time>
      </trkpt>
      <trkpt lat="43.570726" lon="10.633726">
        <ele>36.294631</ele>
        <time>2026-05-06T20:41:50.675Z</time>
      </trkpt>
      <trkpt lat="43.570324" lon="10.633684">
        <ele>36.442603</ele>
        <time>2026-05-06T20:41:58.452Z</time>
      </trkpt>
      <trkpt lat="43.568283" lon="10.633634">
        <ele>37.762933</ele>
        <time>2026-05-06T20:42:38.354Z</time>
      </trkpt>
      <trkpt lat="43.567628" lon="10.633799">
        <ele>38.413975</ele>
        <time>2026-05-06T20:42:52.489Z</time>
      </trkpt>
      <trkpt lat="43.567573" lon="10.633813">
        <ele>38.468661</ele>
        <time>2026-05-06T20:42:53.712Z</time>
      </trkpt>
      <trkpt lat="43.566647" lon="10.634042">
        <ele>39.305952</ele>
        <time>2026-05-06T20:43:14.176Z</time>
      </trkpt>
      <trkpt lat="43.566608" lon="10.633974">
        <ele>39.335456</ele>
        <time>2026-05-06T20:43:15.528Z</time>
      </trkpt>
      <trkpt lat="43.566514" lon="10.633918">
        <ele>39.383527</ele>
        <time>2026-05-06T20:43:17.748Z</time>
      </trkpt>
      <trkpt lat="43.565988" lon="10.633972">
        <ele>39.631178</ele>
        <time>2026-05-06T20:43:28.682Z</time>
      </trkpt>
      <trkpt lat="43.565792" lon="10.633942">
        <ele>39.723768</ele>
        <time>2026-05-06T20:43:32.602Z</time>
      </trkpt>
      <trkpt lat="43.565425" lon="10.633740">
        <ele>39.909281</ele>
        <time>2026-05-06T20:43:40.125Z</time>
      </trkpt>
      <trkpt lat="43.565191" lon="10.633475">
        <ele>40.051404</ele>
        <time>2026-05-06T20:43:45.614Z</time>
      </trkpt>
      <trkpt lat="43.564833" lon="10.633270">
        <ele>40.118227</ele>
        <time>2026-05-06T20:43:52.511Z</time>
      </trkpt>
      <trkpt lat="43.564405" lon="10.633225">
        <ele>40.173990</ele>
        <time>2026-05-06T20:44:00.263Z</time>
      </trkpt>
      <trkpt lat="43.564392" lon="10.633252">
        <ele>40.177042</ele>
        <time>2026-05-06T20:44:00.699Z</time>
      </trkpt>
      <trkpt lat="43.564068" lon="10.633213">
        <ele>40.219293</ele>
        <time>2026-05-06T20:44:10.357Z</time>
      </trkpt>
      <trkpt lat="43.563659" lon="10.633054">
        <ele>40.274495</ele>
        <time>2026-05-06T20:44:23.335Z</time>
      </trkpt>
      <trkpt lat="43.562567" lon="10.632699">
        <ele>40.695562</ele>
        <time>2026-05-06T20:44:58.833Z</time>
      </trkpt>
      <trkpt lat="43.562051" lon="10.632422">
        <ele>40.943671</ele>
        <time>2026-05-06T20:45:16.125Z</time>
      </trkpt>
      <trkpt lat="43.561469" lon="10.632237">
        <ele>41.103841</ele>
        <time>2026-05-06T20:45:34.335Z</time>
      </trkpt>
      <trkpt lat="43.560880" lon="10.631992">
        <ele>41.075528</ele>
        <time>2026-05-06T20:45:52.672Z</time>
      </trkpt>
      <trkpt lat="43.560685" lon="10.631960">
        <ele>41.066490</ele>
        <time>2026-05-06T20:45:58.450Z</time>
      </trkpt>
      <trkpt lat="43.560207" lon="10.632081">
        <ele>41.044124</ele>
        <time>2026-05-06T20:46:12.736Z</time>
      </trkpt>
      <trkpt lat="43.559835" lon="10.632122">
        <ele>41.010950</ele>
        <time>2026-05-06T20:46:23.479Z</time>
      </trkpt>
      <trkpt lat="43.559770" lon="10.632204">
        <ele>40.991161</ele>
        <time>2026-05-06T20:46:25.967Z</time>
      </trkpt>
      <trkpt lat="43.559562" lon="10.632464">
        <ele>40.928101</ele>
        <time>2026-05-06T20:46:33.810Z</time>
      </trkpt>
      <trkpt lat="43.559322" lon="10.632626">
        <ele>40.868069</ele>
        <time>2026-05-06T20:46:41.247Z</time>
      </trkpt>
      <trkpt lat="43.559135" lon="10.632664">
        <ele>40.825598</ele>
        <time>2026-05-06T20:46:46.556Z</time>
      </trkpt>
      <trkpt lat="43.558957" lon="10.632696">
        <ele>40.785264</ele>
        <time>2026-05-06T20:46:51.667Z</time>
      </trkpt>
      <trkpt lat="43.558460" lon="10.632626">
        <ele>40.673011</ele>
        <time>2026-05-06T20:47:06.300Z</time>
      </trkpt>
      <trkpt lat="43.558303" lon="10.632521">
        <ele>40.633809</ele>
        <time>2026-05-06T20:47:11.548Z</time>
      </trkpt>
      <trkpt lat="43.558127" lon="10.632527">
        <ele>40.807104</ele>
        <time>2026-05-06T20:47:16.898Z</time>
      </trkpt>
      <trkpt lat="43.557667" lon="10.632664">
        <ele>41.390206</ele>
        <time>2026-05-06T20:47:31.827Z</time>
      </trkpt>
      <trkpt lat="43.556785" lon="10.633216">
        <ele>42.590228</ele>
        <time>2026-05-06T20:48:05.231Z</time>
      </trkpt>
      <trkpt lat="43.556465" lon="10.633585">
        <ele>43.262557</ele>
        <time>2026-05-06T20:48:20.377Z</time>
      </trkpt>
      <trkpt lat="43.556331" lon="10.633707">
        <ele>43.584618</ele>
        <time>2026-05-06T20:48:26.373Z</time>
      </trkpt>
      <trkpt lat="43.555718" lon="10.634066">
        <ele>44.920540</ele>
        <time>2026-05-06T20:48:50.833Z</time>
      </trkpt>
      <trkpt lat="43.555378" lon="10.634314">
        <ele>45.692052</ele>
        <time>2026-05-06T20:49:04.901Z</time>
      </trkpt>
      <trkpt lat="43.555225" lon="10.634118">
        <ele>46.110870</ele>
        <time>2026-05-06T20:49:10.129Z</time>
      </trkpt>
      <trkpt lat="43.555020" lon="10.634006">
        <ele>46.509763</ele>
        <time>2026-05-06T20:49:15.585Z</time>
      </trkpt>
      <trkpt lat="43.554706" lon="10.633908">
        <ele>46.841584</ele>
        <time>2026-05-06T20:49:23.245Z</time>
      </trkpt>
      <trkpt lat="43.553407" lon="10.633501">
        <ele>48.214572</ele>
        <time>2026-05-06T20:49:51.436Z</time>
      </trkpt>
      <trkpt lat="43.553249" lon="10.633439">
        <ele>48.343586</ele>
        <time>2026-05-06T20:49:54.787Z</time>
      </trkpt>
      <trkpt lat="43.553099" lon="10.633324">
        <ele>48.412646</ele>
        <time>2026-05-06T20:49:58.265Z</time>
      </trkpt>
      <trkpt lat="43.553058" lon="10.633262">
        <ele>48.437126</ele>
        <time>2026-05-06T20:49:59.513Z</time>
      </trkpt>
      <trkpt lat="43.553038" lon="10.633128">
        <ele>48.477031</ele>
        <time>2026-05-06T20:50:01.506Z</time>
      </trkpt>
      <trkpt lat="43.552921" lon="10.633150">
        <ele>48.524553</ele>
        <time>2026-05-06T20:50:03.922Z</time>
      </trkpt>
      <trkpt lat="43.552847" lon="10.633117">
        <ele>48.555851</ele>
        <time>2026-05-06T20:50:05.486Z</time>
      </trkpt>
      <trkpt lat="43.552231" lon="10.632758">
        <ele>48.824968</ele>
        <time>2026-05-06T20:50:18.622Z</time>
      </trkpt>
      <trkpt lat="43.552003" lon="10.632575">
        <ele>48.931122</ele>
        <time>2026-05-06T20:50:23.795Z</time>
      </trkpt>
      <trkpt lat="43.551710" lon="10.632264">
        <ele>49.058397</ele>
        <time>2026-05-06T20:50:30.782Z</time>
      </trkpt>
      <trkpt lat="43.551510" lon="10.632051">
        <ele>49.102938</ele>
        <time>2026-05-06T20:50:35.511Z</time>
      </trkpt>
      <trkpt lat="43.551180" lon="10.631837">
        <ele>49.167220</ele>
        <time>2026-05-06T20:50:42.372Z</time>
      </trkpt>
      <trkpt lat="43.550850" lon="10.631753">
        <ele>49.226379</ele>
        <time>2026-05-06T20:50:48.656Z</time>
      </trkpt>
      <trkpt lat="43.549408" lon="10.631908">
        <ele>49.564527</ele>
        <time>2026-05-06T20:51:16.600Z</time>
      </trkpt>
      <trkpt lat="43.549358" lon="10.631922">
        <ele>49.579621</ele>
        <time>2026-05-06T20:51:17.606Z</time>
      </trkpt>
      <trkpt lat="43.549269" lon="10.631947">
        <ele>49.606491</ele>
        <time>2026-05-06T20:51:19.404Z</time>
      </trkpt>
      <trkpt lat="43.549109" lon="10.632048">
        <ele>49.658545</ele>
        <time>2026-05-06T20:51:22.865Z</time>
      </trkpt>
      <trkpt lat="43.547684" lon="10.633136">
        <ele>50.428779</ele>
        <time>2026-05-06T20:51:54.998Z</time>
      </trkpt>
      <trkpt lat="43.547544" lon="10.633232">
        <ele>50.528491</ele>
        <time>2026-05-06T20:51:58.198Z</time>
      </trkpt>
      <trkpt lat="43.547036" lon="10.633583">
        <ele>50.890851</ele>
        <time>2026-05-06T20:52:10.172Z</time>
      </trkpt>
      <trkpt lat="43.546852" lon="10.633751">
        <ele>51.031576</ele>
        <time>2026-05-06T20:52:14.940Z</time>
      </trkpt>
      <trkpt lat="43.546138" lon="10.634688">
        <ele>51.938224</ele>
        <time>2026-05-06T20:52:36.257Z</time>
      </trkpt>
      <trkpt lat="43.545952" lon="10.634924">
        <ele>52.171463</ele>
        <time>2026-05-06T20:52:41.783Z</time>
      </trkpt>
      <trkpt lat="43.545710" lon="10.635229">
        <ele>52.473995</ele>
        <time>2026-05-06T20:52:48.902Z</time>
      </trkpt>
      <trkpt lat="43.545421" lon="10.635466">
        <ele>52.740455</ele>
        <time>2026-05-06T20:52:56.063Z</time>
      </trkpt>
      <trkpt lat="43.545210" lon="10.635539">
        <ele>52.839056</ele>
        <time>2026-05-06T20:53:00.584Z</time>
      </trkpt>
      <trkpt lat="43.544617" lon="10.635640">
        <ele>53.109885</ele>
        <time>2026-05-06T20:53:12.864Z</time>
      </trkpt>
      <trkpt lat="43.544399" lon="10.635784">
        <ele>53.219440</ele>
        <time>2026-05-06T20:53:17.748Z</time>
      </trkpt>
      <trkpt lat="43.543922" lon="10.636305">
        <ele>53.495206</ele>
        <time>2026-05-06T20:53:29.487Z</time>
      </trkpt>
      <trkpt lat="43.544399" lon="10.635784">
        <ele>53.314191</ele>
        <time>2026-05-06T20:53:40.326Z</time>
      </trkpt>
      <trkpt lat="43.544617" lon="10.635640">
        <ele>53.229452</ele>
        <time>2026-05-06T20:53:44.469Z</time>
      </trkpt>
      <trkpt lat="43.545210" lon="10.635539">
        <ele>53.019971</ele>
        <time>2026-05-06T20:53:54.566Z</time>
      </trkpt>
      <trkpt lat="43.545421" lon="10.635466">
        <ele>52.943705</ele>
        <time>2026-05-06T20:53:58.266Z</time>
      </trkpt>
      <trkpt lat="43.545710" lon="10.635229">
        <ele>52.917241</ele>
        <time>2026-05-06T20:54:04.114Z</time>
      </trkpt>
      <trkpt lat="43.545952" lon="10.634924">
        <ele>52.986671</ele>
        <time>2026-05-06T20:54:10.050Z</time>
      </trkpt>
      <trkpt lat="43.545710" lon="10.635229">
        <ele>53.056102</ele>
        <time>2026-05-06T20:54:16.278Z</time>
      </trkpt>
      <trkpt lat="43.545421" lon="10.635466">
        <ele>53.127317</ele>
        <time>2026-05-06T20:54:22.925Z</time>
      </trkpt>
      <trkpt lat="43.545210" lon="10.635539">
        <ele>53.173396</ele>
        <time>2026-05-06T20:54:27.348Z</time>
      </trkpt>
      <trkpt lat="43.544617" lon="10.635640">
        <ele>53.342323</ele>
        <time>2026-05-06T20:54:39.633Z</time>
      </trkpt>
      <trkpt lat="43.544399" lon="10.635784">
        <ele>53.453513</ele>
        <time>2026-05-06T20:54:44.583Z</time>
      </trkpt>
      <trkpt lat="43.543922" lon="10.636305">
        <ele>53.733398</ele>
        <time>2026-05-06T20:54:56.785Z</time>
      </trkpt>
      <trkpt lat="43.543768" lon="10.636473">
        <ele>53.823716</ele>
        <time>2026-05-06T20:55:00.665Z</time>
      </trkpt>
      <trkpt lat="43.542650" lon="10.637818">
        <ele>54.270835</ele>
        <time>2026-05-06T20:55:29.719Z</time>
      </trkpt>
      <trkpt lat="43.541394" lon="10.639261">
        <ele>53.883629</ele>
        <time>2026-05-06T20:56:00.309Z</time>
      </trkpt>
      <trkpt lat="43.541190" lon="10.639546">
        <ele>53.660948</ele>
        <time>2026-05-06T20:56:05.259Z</time>
      </trkpt>
      <trkpt lat="43.541066" lon="10.639719">
        <ele>53.525686</ele>
        <time>2026-05-06T20:56:08.137Z</time>
      </trkpt>
      <trkpt lat="43.540825" lon="10.640165">
        <ele>53.216411</ele>
        <time>2026-05-06T20:56:14.405Z</time>
      </trkpt>
      <trkpt lat="43.539827" lon="10.638865">
        <ele>51.902497</ele>
        <time>2026-05-06T20:56:36.018Z</time>
      </trkpt>
      <trkpt lat="43.539692" lon="10.638600">
        <ele>51.670524</ele>
        <time>2026-05-06T20:56:40.170Z</time>
      </trkpt>
      <trkpt lat="43.539572" lon="10.638525">
        <ele>51.540363</ele>
        <time>2026-05-06T20:56:42.770Z</time>
      </trkpt>
      <trkpt lat="43.539013" lon="10.637884">
        <ele>52.106734</ele>
        <time>2026-05-06T20:57:01.402Z</time>
      </trkpt>
      <trkpt lat="43.538330" lon="10.637007">
        <ele>53.700913</ele>
        <time>2026-05-06T20:57:27.926Z</time>
      </trkpt>
      <trkpt lat="43.537964" lon="10.637620">
        <ele>54.384646</ele>
        <time>2026-05-06T20:57:47.108Z</time>
      </trkpt>
      <trkpt lat="43.537468" lon="10.638785">
        <ele>54.483569</ele>
        <time>2026-05-06T20:58:13.763Z</time>
      </trkpt>
      <trkpt lat="43.537023" lon="10.639219">
        <ele>54.538613</ele>
        <time>2026-05-06T20:58:29.552Z</time>
      </trkpt>
      <trkpt lat="43.536813" lon="10.639487">
        <ele>55.094020</ele>
        <time>2026-05-06T20:58:38.699Z</time>
      </trkpt>
      <trkpt lat="43.535485" lon="10.640495">
        <ele>59.270334</ele>
        <time>2026-05-06T20:59:38.008Z</time>
      </trkpt>
      <trkpt lat="43.535231" lon="10.640616">
        <ele>60.439751</ele>
        <time>2026-05-06T20:59:50.267Z</time>
      </trkpt>
      <trkpt lat="43.535032" lon="10.640640">
        <ele>61.455364</ele>
        <time>2026-05-06T20:59:59.486Z</time>
      </trkpt>
      <trkpt lat="43.534742" lon="10.640930">
        <ele>63.276465</ele>
        <time>2026-05-06T21:00:16.256Z</time>
      </trkpt>
      <trkpt lat="43.534540" lon="10.641063">
        <ele>64.414468</ele>
        <time>2026-05-06T21:00:26.914Z</time>
      </trkpt>
      <trkpt lat="43.534386" lon="10.641043">
        <ele>65.200896</ele>
        <time>2026-05-06T21:00:34.352Z</time>
      </trkpt>
      <trkpt lat="43.532916" lon="10.639927">
        <ele>74.201275</ele>
        <time>2026-05-06T21:01:52.507Z</time>
      </trkpt>
      <trkpt lat="43.531197" lon="10.638543">
        <ele>85.508076</ele>
        <time>2026-05-06T21:03:29.227Z</time>
      </trkpt>
      <trkpt lat="43.531037" lon="10.638502">
        <ele>86.446382</ele>
        <time>2026-05-06T21:03:37.320Z</time>
      </trkpt>
      <trkpt lat="43.530804" lon="10.638510">
        <ele>87.790220</ele>
        <time>2026-05-06T21:03:48.788Z</time>
      </trkpt>
      <trkpt lat="43.530528" lon="10.638274">
        <ele>89.440569</ele>
        <time>2026-05-06T21:04:04.370Z</time>
      </trkpt>
      <trkpt lat="43.529618" lon="10.637191">
        <ele>94.022831</ele>
        <time>2026-05-06T21:04:55.911Z</time>
      </trkpt>
      <trkpt lat="43.528739" lon="10.635195">
        <ele>99.209364</ele>
        <time>2026-05-06T21:05:58.034Z</time>
      </trkpt>
      <trkpt lat="43.528634" lon="10.635096">
        <ele>99.560924</ele>
        <time>2026-05-06T21:06:02.834Z</time>
      </trkpt>
      <trkpt lat="43.527312" lon="10.634251">
        <ele>106.011999</ele>
        <time>2026-05-06T21:07:04.098Z</time>
      </trkpt>
      <trkpt lat="43.527182" lon="10.634093">
        <ele>106.912693</ele>
        <time>2026-05-06T21:07:12.515Z</time>
      </trkpt>
      <trkpt lat="43.526285" lon="10.632517">
        <ele>116.194750</ele>
        <time>2026-05-06T21:08:29.244Z</time>
      </trkpt>
      <trkpt lat="43.526212" lon="10.632337">
        <ele>117.286532</ele>
        <time>2026-05-06T21:08:37.377Z</time>
      </trkpt>
      <trkpt lat="43.526156" lon="10.631661">
        <ele>120.888310</ele>
        <time>2026-05-06T21:09:04.099Z</time>
      </trkpt>
      <trkpt lat="43.525326" lon="10.631145">
        <ele>126.966780</ele>
        <time>2026-05-06T21:09:52.078Z</time>
      </trkpt>
      <trkpt lat="43.525244" lon="10.631134">
        <ele>127.487206</ele>
        <time>2026-05-06T21:09:56.346Z</time>
      </trkpt>
      <trkpt lat="43.524863" lon="10.631300">
        <ele>130.011168</ele>
        <time>2026-05-06T21:10:16.627Z</time>
      </trkpt>
      <trkpt lat="43.524710" lon="10.631262">
        <ele>130.993194</ele>
        <time>2026-05-06T21:10:24.271Z</time>
      </trkpt>
      <trkpt lat="43.524499" lon="10.630774">
        <ele>133.595574</ele>
        <time>2026-05-06T21:10:43.724Z</time>
      </trkpt>
      <trkpt lat="43.524376" lon="10.630404">
        <ele>135.284820</ele>
        <time>2026-05-06T21:10:57.245Z</time>
      </trkpt>
      <trkpt lat="43.524281" lon="10.629760">
        <ele>137.619836</ele>
        <time>2026-05-06T21:11:19.015Z</time>
      </trkpt>
      <trkpt lat="43.524269" lon="10.629320">
        <ele>139.184270</ele>
        <time>2026-05-06T21:11:33.177Z</time>
      </trkpt>
      <trkpt lat="43.524297" lon="10.628682">
        <ele>141.455245</ele>
        <time>2026-05-06T21:11:53.443Z</time>
      </trkpt>
      <trkpt lat="43.524281" lon="10.627929">
        <ele>144.233687</ele>
        <time>2026-05-06T21:12:18.403Z</time>
      </trkpt>
      <trkpt lat="43.524272" lon="10.627728">
        <ele>145.063295</ele>
        <time>2026-05-06T21:12:25.308Z</time>
      </trkpt>
      <trkpt lat="43.524240" lon="10.627779">
        <ele>145.341135</ele>
        <time>2026-05-06T21:12:27.085Z</time>
      </trkpt>
      <trkpt lat="43.523616" lon="10.627786">
        <ele>148.886507</ele>
        <time>2026-05-06T21:12:49.790Z</time>
      </trkpt>
      <trkpt lat="43.523570" lon="10.627773">
        <ele>149.153287</ele>
        <time>2026-05-06T21:12:51.555Z</time>
      </trkpt>
      <trkpt lat="43.523502" lon="10.627754">
        <ele>149.547478</ele>
        <time>2026-05-06T21:12:54.146Z</time>
      </trkpt>
      <trkpt lat="43.523212" lon="10.627352">
        <ele>151.883569</ele>
        <time>2026-05-06T21:13:09.961Z</time>
      </trkpt>
      <trkpt lat="43.523178" lon="10.627330">
        <ele>152.096945</ele>
        <time>2026-05-06T21:13:11.434Z</time>
      </trkpt>
      <trkpt lat="43.523130" lon="10.627298">
        <ele>152.399848</ele>
        <time>2026-05-06T21:13:13.527Z</time>
      </trkpt>
      <trkpt lat="43.522584" lon="10.627132">
        <ele>155.123424</ele>
        <time>2026-05-06T21:13:35.030Z</time>
      </trkpt>
      <trkpt lat="43.522177" lon="10.627009">
        <ele>156.915511</ele>
        <time>2026-05-06T21:13:49.825Z</time>
      </trkpt>
      <trkpt lat="43.521856" lon="10.626885">
        <ele>158.349304</ele>
        <time>2026-05-06T21:14:00.728Z</time>
      </trkpt>
      <trkpt lat="43.521649" lon="10.626785">
        <ele>159.292677</ele>
        <time>2026-05-06T21:14:07.386Z</time>
      </trkpt>
      <trkpt lat="43.521495" lon="10.626688">
        <ele>160.020862</ele>
        <time>2026-05-06T21:14:12.190Z</time>
      </trkpt>
      <trkpt lat="43.520851" lon="10.626285">
        <ele>162.360596</ele>
        <time>2026-05-06T21:14:30.221Z</time>
      </trkpt>
      <trkpt lat="43.520747" lon="10.626170">
        <ele>162.684652</ele>
        <time>2026-05-06T21:14:33.454Z</time>
      </trkpt>
      <trkpt lat="43.520587" lon="10.625712">
        <ele>163.580804</ele>
        <time>2026-05-06T21:14:42.667Z</time>
      </trkpt>
      <trkpt lat="43.520517" lon="10.625595">
        <ele>163.848187</ele>
        <time>2026-05-06T21:14:45.695Z</time>
      </trkpt>
      <trkpt lat="43.520492" lon="10.625554">
        <ele>163.942616</ele>
        <time>2026-05-06T21:14:46.809Z</time>
      </trkpt>
      <trkpt lat="43.519877" lon="10.625045">
        <ele>165.686238</ele>
        <time>2026-05-06T21:15:06.407Z</time>
      </trkpt>
      <trkpt lat="43.519532" lon="10.624706">
        <ele>166.023918</ele>
        <time>2026-05-06T21:15:17.555Z</time>
      </trkpt>
      <trkpt lat="43.519480" lon="10.624764">
        <ele>166.060845</ele>
        <time>2026-05-06T21:15:19.233Z</time>
      </trkpt>
      <trkpt lat="43.519227" lon="10.625047">
        <ele>166.240715</ele>
        <time>2026-05-06T21:15:27.150Z</time>
      </trkpt>
      <trkpt lat="43.518749" lon="10.625593">
        <ele>166.583423</ele>
        <time>2026-05-06T21:15:39.307Z</time>
      </trkpt>
      <trkpt lat="43.518588" lon="10.625844">
        <ele>166.717596</ele>
        <time>2026-05-06T21:15:42.866Z</time>
      </trkpt>
      <trkpt lat="43.518113" lon="10.626764">
        <ele>164.593190</ele>
        <time>2026-05-06T21:15:53.878Z</time>
      </trkpt>
      <trkpt lat="43.518006" lon="10.626932">
        <ele>164.035027</ele>
        <time>2026-05-06T21:15:55.952Z</time>
      </trkpt>
      <trkpt lat="43.517610" lon="10.627168">
        <ele>162.549987</ele>
        <time>2026-05-06T21:16:01.333Z</time>
      </trkpt>
      <trkpt lat="43.517250" lon="10.627802">
        <ele>160.502840</ele>
        <time>2026-05-06T21:16:08.628Z</time>
      </trkpt>
      <trkpt lat="43.516586" lon="10.628316">
        <ele>156.699665</ele>
        <time>2026-05-06T21:16:17.951Z</time>
      </trkpt>
      <trkpt lat="43.516309" lon="10.628605">
        <ele>154.964814</ele>
        <time>2026-05-06T21:16:22.113Z</time>
      </trkpt>
      <trkpt lat="43.516233" lon="10.628751">
        <ele>154.313878</ele>
        <time>2026-05-06T21:16:23.668Z</time>
      </trkpt>
      <trkpt lat="43.516209" lon="10.628863">
        <ele>153.890881</ele>
        <time>2026-05-06T21:16:24.667Z</time>
      </trkpt>
      <trkpt lat="43.516194" lon="10.629310">
        <ele>152.270139</ele>
        <time>2026-05-06T21:16:28.526Z</time>
      </trkpt>
      <trkpt lat="43.516157" lon="10.629491">
        <ele>151.581851</ele>
        <time>2026-05-06T21:16:30.169Z</time>
      </trkpt>
      <trkpt lat="43.516093" lon="10.629638">
        <ele>150.871059</ele>
        <time>2026-05-06T21:16:31.666Z</time>
      </trkpt>
      <trkpt lat="43.515812" lon="10.630048">
        <ele>148.532389</ele>
        <time>2026-05-06T21:16:36.534Z</time>
      </trkpt>
      <trkpt lat="43.515669" lon="10.630121">
        <ele>147.660694</ele>
        <time>2026-05-06T21:16:38.301Z</time>
      </trkpt>
      <trkpt lat="43.515299" lon="10.630115">
        <ele>145.545399</ele>
        <time>2026-05-06T21:16:42.612Z</time>
      </trkpt>
      <trkpt lat="43.515218" lon="10.630169">
        <ele>145.031077</ele>
        <time>2026-05-06T21:16:43.664Z</time>
      </trkpt>
      <trkpt lat="43.515166" lon="10.630242">
        <ele>144.606869</ele>
        <time>2026-05-06T21:16:44.527Z</time>
      </trkpt>
      <trkpt lat="43.515136" lon="10.630361">
        <ele>144.084578</ele>
        <time>2026-05-06T21:16:45.591Z</time>
      </trkpt>
      <trkpt lat="43.515134" lon="10.630547">
        <ele>143.313402</ele>
        <time>2026-05-06T21:16:47.173Z</time>
      </trkpt>
      <trkpt lat="43.515246" lon="10.631057">
        <ele>141.146919</ele>
        <time>2026-05-06T21:16:51.754Z</time>
      </trkpt>
      <trkpt lat="43.515232" lon="10.631216">
        <ele>140.595145</ele>
        <time>2026-05-06T21:16:53.184Z</time>
      </trkpt>
      <trkpt lat="43.515191" lon="10.631323">
        <ele>140.178241</ele>
        <time>2026-05-06T21:16:54.296Z</time>
      </trkpt>
      <trkpt lat="43.515099" lon="10.631403">
        <ele>139.661561</ele>
        <time>2026-05-06T21:16:55.625Z</time>
      </trkpt>
      <trkpt lat="43.514970" lon="10.631408">
        <ele>139.048513</ele>
        <time>2026-05-06T21:16:57.198Z</time>
      </trkpt>
      <trkpt lat="43.514642" lon="10.631241">
        <ele>137.387551</ele>
        <time>2026-05-06T21:17:01.376Z</time>
      </trkpt>
      <trkpt lat="43.514551" lon="10.631192">
        <ele>136.923471</ele>
        <time>2026-05-06T21:17:02.538Z</time>
      </trkpt>
      <trkpt lat="43.514343" lon="10.631124">
        <ele>135.907991</ele>
        <time>2026-05-06T21:17:05.069Z</time>
      </trkpt>
      <trkpt lat="43.514165" lon="10.631161">
        <ele>135.052860</ele>
        <time>2026-05-06T21:17:07.218Z</time>
      </trkpt>
      <trkpt lat="43.513781" lon="10.631404">
        <ele>133.045773</ele>
        <time>2026-05-06T21:17:12.402Z</time>
      </trkpt>
      <trkpt lat="43.513382" lon="10.631804">
        <ele>132.675589</ele>
        <time>2026-05-06T21:17:19.303Z</time>
      </trkpt>
      <trkpt lat="43.513146" lon="10.631936">
        <ele>132.597307</ele>
        <time>2026-05-06T21:17:22.831Z</time>
      </trkpt>
      <trkpt lat="43.512976" lon="10.631890">
        <ele>132.544056</ele>
        <time>2026-05-06T21:17:25.208Z</time>
      </trkpt>
      <trkpt lat="43.512761" lon="10.631646">
        <ele>132.458465</ele>
        <time>2026-05-06T21:17:29.428Z</time>
      </trkpt>
      <trkpt lat="43.512671" lon="10.631599">
        <ele>132.428884</ele>
        <time>2026-05-06T21:17:31.414Z</time>
      </trkpt>
      <trkpt lat="43.512520" lon="10.631618">
        <ele>132.382277</ele>
        <time>2026-05-06T21:17:34.808Z</time>
      </trkpt>
      <trkpt lat="43.512348" lon="10.631725">
        <ele>132.324276</ele>
        <time>2026-05-06T21:17:39.837Z</time>
      </trkpt>
      <trkpt lat="43.512017" lon="10.631964">
        <ele>132.771843</ele>
        <time>2026-05-06T21:17:51.974Z</time>
      </trkpt>
      <trkpt lat="43.511962" lon="10.632018">
        <ele>132.985430</ele>
        <time>2026-05-06T21:17:54.323Z</time>
      </trkpt>
      <trkpt lat="43.511744" lon="10.632285">
        <ele>133.907816</ele>
        <time>2026-05-06T21:18:04.485Z</time>
      </trkpt>
      <trkpt lat="43.511329" lon="10.632636">
        <ele>135.447923</ele>
        <time>2026-05-06T21:18:18.674Z</time>
      </trkpt>
      <trkpt lat="43.511257" lon="10.632755">
        <ele>135.803469</ele>
        <time>2026-05-06T21:18:21.823Z</time>
      </trkpt>
      <trkpt lat="43.511223" lon="10.632904">
        <ele>136.161829</ele>
        <time>2026-05-06T21:18:24.968Z</time>
      </trkpt>
      <trkpt lat="43.511240" lon="10.633166">
        <ele>136.765316</ele>
        <time>2026-05-06T21:18:30.338Z</time>
      </trkpt>
      <trkpt lat="43.511320" lon="10.633429">
        <ele>137.419620</ele>
        <time>2026-05-06T21:18:35.733Z</time>
      </trkpt>
      <trkpt lat="43.511630" lon="10.633981">
        <ele>138.016879</ele>
        <time>2026-05-06T21:18:46.916Z</time>
      </trkpt>
      <trkpt lat="43.511728" lon="10.634246">
        <ele>138.060040</ele>
        <time>2026-05-06T21:18:50.960Z</time>
      </trkpt>
      <trkpt lat="43.511748" lon="10.634490">
        <ele>138.095668</ele>
        <time>2026-05-06T21:18:54.199Z</time>
      </trkpt>
      <trkpt lat="43.511716" lon="10.634627">
        <ele>138.116551</ele>
        <time>2026-05-06T21:18:56.065Z</time>
      </trkpt>
      <trkpt lat="43.511650" lon="10.634761">
        <ele>138.140054</ele>
        <time>2026-05-06T21:18:58.171Z</time>
      </trkpt>
      <trkpt lat="43.511440" lon="10.634956">
        <ele>138.190707</ele>
        <time>2026-05-06T21:19:02.484Z</time>
      </trkpt>
      <trkpt lat="43.510861" lon="10.635266">
        <ele>138.297560</ele>
        <time>2026-05-06T21:19:12.428Z</time>
      </trkpt>
      <trkpt lat="43.510646" lon="10.635280">
        <ele>138.216882</ele>
        <time>2026-05-06T21:19:15.826Z</time>
      </trkpt>
      <trkpt lat="43.510254" lon="10.635158">
        <ele>138.066253</ele>
        <time>2026-05-06T21:19:22.094Z</time>
      </trkpt>
      <trkpt lat="43.509928" lon="10.634980">
        <ele>137.934826</ele>
        <time>2026-05-06T21:19:27.472Z</time>
      </trkpt>
      <trkpt lat="43.509587" lon="10.634727">
        <ele>137.789679</ele>
        <time>2026-05-06T21:19:33.394Z</time>
      </trkpt>
      <trkpt lat="43.508793" lon="10.633931">
        <ele>137.992876</ele>
        <time>2026-05-06T21:19:54.743Z</time>
      </trkpt>
      <trkpt lat="43.508384" lon="10.633207">
        <ele>138.412337</ele>
        <time>2026-05-06T21:20:07.795Z</time>
      </trkpt>
      <trkpt lat="43.508278" lon="10.633142">
        <ele>138.485448</ele>
        <time>2026-05-06T21:20:10.108Z</time>
      </trkpt>
      <trkpt lat="43.508181" lon="10.633143">
        <ele>138.546581</ele>
        <time>2026-05-06T21:20:12.015Z</time>
      </trkpt>
      <trkpt lat="43.508069" lon="10.633215">
        <ele>138.624459</ele>
        <time>2026-05-06T21:20:14.388Z</time>
      </trkpt>
      <trkpt lat="43.507854" lon="10.633386">
        <ele>138.786773</ele>
        <time>2026-05-06T21:20:19.277Z</time>
      </trkpt>
      <trkpt lat="43.507769" lon="10.633384">
        <ele>138.865339</ele>
        <time>2026-05-06T21:20:20.939Z</time>
      </trkpt>
      <trkpt lat="43.507691" lon="10.633345">
        <ele>138.942017</ele>
        <time>2026-05-06T21:20:22.385Z</time>
      </trkpt>
      <trkpt lat="43.507636" lon="10.633245">
        <ele>139.026139</ele>
        <time>2026-05-06T21:20:24.062Z</time>
      </trkpt>
      <trkpt lat="43.507529" lon="10.632889">
        <ele>139.284438</ele>
        <time>2026-05-06T21:20:28.724Z</time>
      </trkpt>
      <trkpt lat="43.507413" lon="10.632663">
        <ele>139.470019</ele>
        <time>2026-05-06T21:20:31.806Z</time>
      </trkpt>
      <trkpt lat="43.507280" lon="10.632505">
        <ele>139.632265</ele>
        <time>2026-05-06T21:20:34.554Z</time>
      </trkpt>
      <trkpt lat="43.507044" lon="10.632342">
        <ele>139.876205</ele>
        <time>2026-05-06T21:20:40.006Z</time>
      </trkpt>
      <trkpt lat="43.506789" lon="10.632249">
        <ele>140.119973</ele>
        <time>2026-05-06T21:20:46.097Z</time>
      </trkpt>
      <trkpt lat="43.506291" lon="10.632139">
        <ele>141.134658</ele>
        <time>2026-05-06T21:20:59.170Z</time>
      </trkpt>
      <trkpt lat="43.506017" lon="10.632126">
        <ele>142.281458</ele>
        <time>2026-05-06T21:21:07.753Z</time>
      </trkpt>
      <trkpt lat="43.505792" lon="10.632169">
        <ele>143.231614</ele>
        <time>2026-05-06T21:21:15.164Z</time>
      </trkpt>
      <trkpt lat="43.505599" lon="10.632278">
        <ele>144.104025</ele>
        <time>2026-05-06T21:21:22.001Z</time>
      </trkpt>
      <trkpt lat="43.505212" lon="10.632500">
        <ele>145.857344</ele>
        <time>2026-05-06T21:21:35.624Z</time>
      </trkpt>
      <trkpt lat="43.505155" lon="10.632535">
        <ele>146.118348</ele>
        <time>2026-05-06T21:21:37.670Z</time>
      </trkpt>
      <trkpt lat="43.505110" lon="10.632614">
        <ele>146.423106</ele>
        <time>2026-05-06T21:21:40.013Z</time>
      </trkpt>
      <trkpt lat="43.505075" lon="10.632804">
        <ele>147.017853</ele>
        <time>2026-05-06T21:21:44.595Z</time>
      </trkpt>
      <trkpt lat="43.505175" lon="10.633567">
        <ele>149.257047</ele>
        <time>2026-05-06T21:22:03.544Z</time>
      </trkpt>
      <trkpt lat="43.505177" lon="10.633871">
        <ele>150.105681</ele>
        <time>2026-05-06T21:22:10.876Z</time>
      </trkpt>
      <trkpt lat="43.505131" lon="10.634148">
        <ele>150.898919</ele>
        <time>2026-05-06T21:22:17.302Z</time>
      </trkpt>
      <trkpt lat="43.505117" lon="10.634452">
        <ele>151.749228</ele>
        <time>2026-05-06T21:22:23.675Z</time>
      </trkpt>
      <trkpt lat="43.505246" lon="10.634958">
        <ele>153.246411</ele>
        <time>2026-05-06T21:22:34.604Z</time>
      </trkpt>
      <trkpt lat="43.505273" lon="10.635187">
        <ele>153.894042</ele>
        <time>2026-05-06T21:22:39.310Z</time>
      </trkpt>
      <trkpt lat="43.505260" lon="10.635335">
        <ele>154.310194</ele>
        <time>2026-05-06T21:22:42.327Z</time>
      </trkpt>
      <trkpt lat="43.505177" lon="10.635659">
        <ele>155.281334</ele>
        <time>2026-05-06T21:22:49.341Z</time>
      </trkpt>
      <trkpt lat="43.505175" lon="10.635873">
        <ele>155.896933</ele>
        <time>2026-05-06T21:22:53.606Z</time>
      </trkpt>
      <trkpt lat="43.505204" lon="10.635969">
        <ele>156.196059</ele>
        <time>2026-05-06T21:22:55.691Z</time>
      </trkpt>
      <trkpt lat="43.505429" lon="10.636388">
        <ele>157.695625</ele>
        <time>2026-05-06T21:23:06.150Z</time>
      </trkpt>
      <trkpt lat="43.505454" lon="10.636486">
        <ele>157.994437</ele>
        <time>2026-05-06T21:23:08.256Z</time>
      </trkpt>
      <trkpt lat="43.505448" lon="10.636667">
        <ele>158.515605</ele>
        <time>2026-05-06T21:23:11.941Z</time>
      </trkpt>
      <trkpt lat="43.505417" lon="10.636759">
        <ele>158.807394</ele>
        <time>2026-05-06T21:23:14.032Z</time>
      </trkpt>
      <trkpt lat="43.505311" lon="10.636862">
        <ele>159.321674</ele>
        <time>2026-05-06T21:23:17.768Z</time>
      </trkpt>
      <trkpt lat="43.505182" lon="10.636860">
        <ele>159.833285</ele>
        <time>2026-05-06T21:23:21.659Z</time>
      </trkpt>
      <trkpt lat="43.505131" lon="10.636811">
        <ele>160.079803</ele>
        <time>2026-05-06T21:23:23.582Z</time>
      </trkpt>
      <trkpt lat="43.505094" lon="10.636739">
        <ele>160.333615</ele>
        <time>2026-05-06T21:23:25.617Z</time>
      </trkpt>
      <trkpt lat="43.505014" lon="10.636378">
        <ele>161.419380</ele>
        <time>2026-05-06T21:23:34.855Z</time>
      </trkpt>
      <trkpt lat="43.504943" lon="10.636201">
        <ele>162.001175</ele>
        <time>2026-05-06T21:23:40.046Z</time>
      </trkpt>
      <trkpt lat="43.504693" lon="10.635811">
        <ele>164.546014</ele>
        <time>2026-05-06T21:23:54.053Z</time>
      </trkpt>
      <trkpt lat="43.504263" lon="10.635309">
        <ele>168.352787</ele>
        <time>2026-05-06T21:24:16.431Z</time>
      </trkpt>
      <trkpt lat="43.504161" lon="10.635253">
        <ele>169.094548</ele>
        <time>2026-05-06T21:24:21.072Z</time>
      </trkpt>
      <trkpt lat="43.504090" lon="10.635263">
        <ele>169.576733</ele>
        <time>2026-05-06T21:24:24.142Z</time>
      </trkpt>
      <trkpt lat="43.503997" lon="10.635332">
        <ele>170.290262</ele>
        <time>2026-05-06T21:24:28.636Z</time>
      </trkpt>
      <trkpt lat="43.503957" lon="10.635409">
        <ele>170.754389</ele>
        <time>2026-05-06T21:24:31.542Z</time>
      </trkpt>
      <trkpt lat="43.503832" lon="10.635914">
        <ele>173.369245</ele>
        <time>2026-05-06T21:24:47.499Z</time>
      </trkpt>
      <trkpt lat="43.503736" lon="10.636126">
        <ele>174.503988</ele>
        <time>2026-05-06T21:24:55.063Z</time>
      </trkpt>
      <trkpt lat="43.503435" lon="10.636376">
        <ele>176.384379</ele>
        <time>2026-05-06T21:25:09.607Z</time>
      </trkpt>
      <trkpt lat="43.503154" lon="10.636572">
        <ele>178.069534</ele>
        <time>2026-05-06T21:25:21.940Z</time>
      </trkpt>
      <trkpt lat="43.502959" lon="10.636646">
        <ele>179.151812</ele>
        <time>2026-05-06T21:25:29.689Z</time>
      </trkpt>
      <trkpt lat="43.502902" lon="10.636646">
        <ele>179.456826</ele>
        <time>2026-05-06T21:25:31.744Z</time>
      </trkpt>
      <trkpt lat="43.502808" lon="10.636646">
        <ele>179.959832</ele>
        <time>2026-05-06T21:25:35.347Z</time>
      </trkpt>
      <trkpt lat="43.502680" lon="10.636666">
        <ele>180.649161</ele>
        <time>2026-05-06T21:25:40.260Z</time>
      </trkpt>
      <trkpt lat="43.502594" lon="10.636733">
        <ele>181.177753</ele>
        <time>2026-05-06T21:25:43.833Z</time>
      </trkpt>
      <trkpt lat="43.502356" lon="10.637181">
        <ele>183.333130</ele>
        <time>2026-05-06T21:25:56.705Z</time>
      </trkpt>
      <trkpt lat="43.502285" lon="10.637277">
        <ele>183.716294</ele>
        <time>2026-05-06T21:25:59.024Z</time>
      </trkpt>
      <trkpt lat="43.502266" lon="10.637298">
        <ele>183.601664</ele>
        <time>2026-05-06T21:25:59.581Z</time>
      </trkpt>
      <trkpt lat="43.502050" lon="10.637566">
        <ele>182.233781</ele>
        <time>2026-05-06T21:26:05.149Z</time>
      </trkpt>
      <trkpt lat="43.501780" lon="10.637862">
        <ele>180.609983</ele>
        <time>2026-05-06T21:26:09.882Z</time>
      </trkpt>
      <trkpt lat="43.501671" lon="10.638032">
        <ele>179.835275</ele>
        <time>2026-05-06T21:26:11.944Z</time>
      </trkpt>
      <trkpt lat="43.501807" lon="10.638104">
        <ele>179.149517</ele>
        <time>2026-05-06T21:26:15.164Z</time>
      </trkpt>
      <trkpt lat="43.501868" lon="10.638178">
        <ele>178.767041</ele>
        <time>2026-05-06T21:26:16.899Z</time>
      </trkpt>
      <trkpt lat="43.502091" lon="10.638602">
        <ele>176.978830</ele>
        <time>2026-05-06T21:26:24.787Z</time>
      </trkpt>
      <trkpt lat="43.502154" lon="10.638791">
        <ele>176.268637</ele>
        <time>2026-05-06T21:26:27.795Z</time>
      </trkpt>
      <trkpt lat="43.502143" lon="10.639042">
        <ele>175.410070</ele>
        <time>2026-05-06T21:26:31.340Z</time>
      </trkpt>
      <trkpt lat="43.501951" lon="10.639862">
        <ele>167.359455</ele>
        <time>2026-05-06T21:26:43.135Z</time>
      </trkpt>
      <trkpt lat="43.501959" lon="10.640173">
        <ele>164.393285</ele>
        <time>2026-05-06T21:26:47.365Z</time>
      </trkpt>
      <trkpt lat="43.502340" lon="10.640860">
        <ele>156.150483</ele>
        <time>2026-05-06T21:26:59.041Z</time>
      </trkpt>
      <trkpt lat="43.502558" lon="10.641118">
        <ele>152.375110</ele>
        <time>2026-05-06T21:27:04.375Z</time>
      </trkpt>
      <trkpt lat="43.502581" lon="10.641429">
        <ele>149.817073</ele>
        <time>2026-05-06T21:27:08.599Z</time>
      </trkpt>
      <trkpt lat="43.502511" lon="10.641826">
        <ele>146.640229</ele>
        <time>2026-05-06T21:27:14.160Z</time>
      </trkpt>
      <trkpt lat="43.502542" lon="10.642255">
        <ele>143.287946</ele>
        <time>2026-05-06T21:27:20.109Z</time>
      </trkpt>
      <trkpt lat="43.502628" lon="10.642636">
        <ele>140.185279</ele>
        <time>2026-05-06T21:27:25.693Z</time>
      </trkpt>
      <trkpt lat="43.502714" lon="10.643016">
        <ele>137.090039</ele>
        <time>2026-05-06T21:27:31.384Z</time>
      </trkpt>
      <trkpt lat="43.503072" lon="10.643928">
        <ele>130.885806</ele>
        <time>2026-05-06T21:27:46.887Z</time>
      </trkpt>
      <trkpt lat="43.503094" lon="10.644124">
        <ele>130.192849</ele>
        <time>2026-05-06T21:27:49.989Z</time>
      </trkpt>
      <trkpt lat="43.503227" lon="10.645366">
        <ele>125.806387</ele>
        <time>2026-05-06T21:28:10.741Z</time>
      </trkpt>
      <trkpt lat="43.503290" lon="10.645624">
        <ele>124.855251</ele>
        <time>2026-05-06T21:28:15.442Z</time>
      </trkpt>
      <trkpt lat="43.503912" lon="10.646203">
        <ele>121.362371</ele>
        <time>2026-05-06T21:28:32.793Z</time>
      </trkpt>
      <trkpt lat="43.503929" lon="10.646256">
        <ele>121.169804</ele>
        <time>2026-05-06T21:28:33.736Z</time>
      </trkpt>
      <trkpt lat="43.504177" lon="10.647051">
        <ele>118.294131</ele>
        <time>2026-05-06T21:28:47.626Z</time>
      </trkpt>
      <trkpt lat="43.504901" lon="10.648659">
        <ele>112.462220</ele>
        <time>2026-05-06T21:29:17.604Z</time>
      </trkpt>
      <trkpt lat="43.505049" lon="10.650172">
        <ele>108.202701</ele>
        <time>2026-05-06T21:29:43.525Z</time>
      </trkpt>
      <trkpt lat="43.505329" lon="10.650824">
        <ele>107.169300</ele>
        <time>2026-05-06T21:29:57.454Z</time>
      </trkpt>
      <trkpt lat="43.505757" lon="10.651824">
        <ele>105.585722</ele>
        <time>2026-05-06T21:30:19.503Z</time>
      </trkpt>
      <trkpt lat="43.506185" lon="10.652736">
        <ele>103.966016</ele>
        <time>2026-05-06T21:30:39.763Z</time>
      </trkpt>
      <trkpt lat="43.506870" lon="10.653830">
        <ele>101.674520</ele>
        <time>2026-05-06T21:31:05.937Z</time>
      </trkpt>
      <trkpt lat="43.507516" lon="10.654431">
        <ele>98.425382</ele>
        <time>2026-05-06T21:31:24.729Z</time>
      </trkpt>
      <trkpt lat="43.508302" lon="10.654721">
        <ele>94.033190</ele>
        <time>2026-05-06T21:31:42.656Z</time>
      </trkpt>
      <trkpt lat="43.508800" lon="10.655437">
        <ele>89.687518</ele>
        <time>2026-05-06T21:31:57.207Z</time>
      </trkpt>
      <trkpt lat="43.508960" lon="10.655710">
        <ele>87.768308</ele>
        <time>2026-05-06T21:32:02.200Z</time>
      </trkpt>
      <trkpt lat="43.509013" lon="10.655847">
        <ele>86.919298</ele>
        <time>2026-05-06T21:32:04.414Z</time>
      </trkpt>
      <trkpt lat="43.509157" lon="10.656463">
        <ele>83.380430</ele>
        <time>2026-05-06T21:32:13.683Z</time>
      </trkpt>
      <trkpt lat="43.509227" lon="10.656552">
        <ele>82.662563</ele>
        <time>2026-05-06T21:32:15.609Z</time>
      </trkpt>
      <trkpt lat="43.509679" lon="10.656776">
        <ele>79.041427</ele>
        <time>2026-05-06T21:32:25.605Z</time>
      </trkpt>
      <trkpt lat="43.509751" lon="10.656852">
        <ele>78.357803</ele>
        <time>2026-05-06T21:32:27.584Z</time>
      </trkpt>
      <trkpt lat="43.509070" lon="10.657074">
        <ele>77.060046</ele>
        <time>2026-05-06T21:32:36.889Z</time>
      </trkpt>
      <trkpt lat="43.508818" lon="10.657240">
        <ele>76.747586</ele>
        <time>2026-05-06T21:32:41.580Z</time>
      </trkpt>
      <trkpt lat="43.508574" lon="10.657450">
        <ele>76.425783</ele>
        <time>2026-05-06T21:32:47.408Z</time>
      </trkpt>
      <trkpt lat="43.506833" lon="10.659032">
        <ele>76.624074</ele>
        <time>2026-05-06T21:33:29.302Z</time>
      </trkpt>
      <trkpt lat="43.506617" lon="10.659299">
        <ele>76.798013</ele>
        <time>2026-05-06T21:33:34.710Z</time>
      </trkpt>
      <trkpt lat="43.506188" lon="10.659942">
        <ele>77.087552</ele>
        <time>2026-05-06T21:33:46.089Z</time>
      </trkpt>
      <trkpt lat="43.505972" lon="10.660165">
        <ele>77.208559</ele>
        <time>2026-05-06T21:33:50.824Z</time>
      </trkpt>
      <trkpt lat="43.505853" lon="10.660221">
        <ele>77.264945</ele>
        <time>2026-05-06T21:33:53.063Z</time>
      </trkpt>
      <trkpt lat="43.505643" lon="10.660260">
        <ele>77.359966</ele>
        <time>2026-05-06T21:33:56.954Z</time>
      </trkpt>
      <trkpt lat="43.504869" lon="10.660234">
        <ele>77.996185</ele>
        <time>2026-05-06T21:34:12.880Z</time>
      </trkpt>
      <trkpt lat="43.504679" lon="10.660272">
        <ele>78.388612</ele>
        <time>2026-05-06T21:34:17.240Z</time>
      </trkpt>
      <trkpt lat="43.504010" lon="10.660563">
        <ele>79.822501</ele>
        <time>2026-05-06T21:34:34.234Z</time>
      </trkpt>
      <trkpt lat="43.503376" lon="10.660861">
        <ele>81.191649</ele>
        <time>2026-05-06T21:34:51.906Z</time>
      </trkpt>
      <trkpt lat="43.502905" lon="10.661118">
        <ele>82.446487</ele>
        <time>2026-05-06T21:35:05.287Z</time>
      </trkpt>
      <trkpt lat="43.502728" lon="10.661260">
        <ele>82.964416</ele>
        <time>2026-05-06T21:35:10.671Z</time>
      </trkpt>
      <trkpt lat="43.502421" lon="10.661568">
        <ele>83.924678</ele>
        <time>2026-05-06T21:35:20.684Z</time>
      </trkpt>
      <trkpt lat="43.501845" lon="10.662360">
        <ele>85.951394</ele>
        <time>2026-05-06T21:35:41.512Z</time>
      </trkpt>
      <trkpt lat="43.501678" lon="10.662547">
        <ele>86.367610</ele>
        <time>2026-05-06T21:35:46.754Z</time>
      </trkpt>
      <trkpt lat="43.501318" lon="10.662867">
        <ele>87.196273</ele>
        <time>2026-05-06T21:35:56.851Z</time>
      </trkpt>
      <trkpt lat="43.500731" lon="10.663232">
        <ele>88.442038</ele>
        <time>2026-05-06T21:36:11.788Z</time>
      </trkpt>
      <trkpt lat="43.500202" lon="10.663448">
        <ele>89.512651</ele>
        <time>2026-05-06T21:36:25.029Z</time>
      </trkpt>
      <trkpt lat="43.498708" lon="10.663714">
        <ele>92.480415</ele>
        <time>2026-05-06T21:37:02.883Z</time>
      </trkpt>
      <trkpt lat="43.498290" lon="10.663788">
        <ele>92.991468</ele>
        <time>2026-05-06T21:37:11.965Z</time>
      </trkpt>
      <trkpt lat="43.498270" lon="10.663791">
        <ele>93.002098</ele>
        <time>2026-05-06T21:37:12.385Z</time>
      </trkpt>
      <trkpt lat="43.498219" lon="10.663798">
        <ele>93.029180</ele>
        <time>2026-05-06T21:37:13.376Z</time>
      </trkpt>
      <trkpt lat="43.498021" lon="10.663801">
        <ele>93.133812</ele>
        <time>2026-05-06T21:37:17.222Z</time>
      </trkpt>
      <trkpt lat="43.497760" lon="10.663683">
        <ele>93.278955</ele>
        <time>2026-05-06T21:37:22.372Z</time>
      </trkpt>
      <trkpt lat="43.497669" lon="10.663635">
        <ele>93.330440</ele>
        <time>2026-05-06T21:37:24.200Z</time>
      </trkpt>
      <trkpt lat="43.497432" lon="10.663763">
        <ele>93.464942</ele>
        <time>2026-05-06T21:37:28.712Z</time>
      </trkpt>
      <trkpt lat="43.497401" lon="10.663765">
        <ele>93.481340</ele>
        <time>2026-05-06T21:37:29.290Z</time>
      </trkpt>
      <trkpt lat="43.497360" lon="10.663766">
        <ele>93.503009</ele>
        <time>2026-05-06T21:37:30.014Z</time>
      </trkpt>
      <trkpt lat="43.496976" lon="10.663806">
        <ele>93.706497</ele>
        <time>2026-05-06T21:37:36.703Z</time>
      </trkpt>
      <trkpt lat="43.495121" lon="10.664152">
        <ele>95.015808</ele>
        <time>2026-05-06T21:38:13.961Z</time>
      </trkpt>
      <trkpt lat="43.494042" lon="10.664278">
        <ele>96.483833</ele>
        <time>2026-05-06T21:38:38.027Z</time>
      </trkpt>
      <trkpt lat="43.493963" lon="10.664327">
        <ele>96.610146</ele>
        <time>2026-05-06T21:38:40.078Z</time>
      </trkpt>
      <trkpt lat="43.493879" lon="10.664397">
        <ele>96.753268</ele>
        <time>2026-05-06T21:38:42.385Z</time>
      </trkpt>
      <trkpt lat="43.493655" lon="10.664599">
        <ele>97.143565</ele>
        <time>2026-05-06T21:38:48.702Z</time>
      </trkpt>
      <trkpt lat="43.493234" lon="10.665103">
        <ele>97.988372</ele>
        <time>2026-05-06T21:39:01.537Z</time>
      </trkpt>
      <trkpt lat="43.493092" lon="10.665409">
        <ele>98.430946</ele>
        <time>2026-05-06T21:39:07.446Z</time>
      </trkpt>
      <trkpt lat="43.492901" lon="10.666146">
        <ele>99.384469</ele>
        <time>2026-05-06T21:39:20.470Z</time>
      </trkpt>
      <trkpt lat="43.492784" lon="10.666372">
        <ele>99.722745</ele>
        <time>2026-05-06T21:39:25.106Z</time>
      </trkpt>
      <trkpt lat="43.492661" lon="10.666508">
        <ele>99.987565</ele>
        <time>2026-05-06T21:39:28.654Z</time>
      </trkpt>
      <trkpt lat="43.492392" lon="10.666674">
        <ele>100.482547</ele>
        <time>2026-05-06T21:39:35.305Z</time>
      </trkpt>
      <trkpt lat="43.492118" lon="10.666774">
        <ele>100.993200</ele>
        <time>2026-05-06T21:39:41.978Z</time>
      </trkpt>
      <trkpt lat="43.491814" lon="10.666838">
        <ele>101.603578</ele>
        <time>2026-05-06T21:39:49.674Z</time>
      </trkpt>
      <trkpt lat="43.491569" lon="10.666855">
        <ele>102.090472</ele>
        <time>2026-05-06T21:39:56.167Z</time>
      </trkpt>
      <trkpt lat="43.491197" lon="10.666895">
        <ele>102.831064</ele>
        <time>2026-05-06T21:40:05.733Z</time>
      </trkpt>
      <trkpt lat="43.490989" lon="10.666965">
        <ele>103.256030</ele>
        <time>2026-05-06T21:40:10.957Z</time>
      </trkpt>
      <trkpt lat="43.490566" lon="10.667177">
        <ele>104.149380</ele>
        <time>2026-05-06T21:40:21.350Z</time>
      </trkpt>
      <trkpt lat="43.489994" lon="10.667505">
        <ele>104.942069</ele>
        <time>2026-05-06T21:40:35.039Z</time>
      </trkpt>
      <trkpt lat="43.489828" lon="10.667550">
        <ele>105.136903</ele>
        <time>2026-05-06T21:40:38.608Z</time>
      </trkpt>
      <trkpt lat="43.489416" lon="10.667524">
        <ele>105.611876</ele>
        <time>2026-05-06T21:40:46.750Z</time>
      </trkpt>
      <trkpt lat="43.488801" lon="10.667816">
        <ele>106.360978</ele>
        <time>2026-05-06T21:41:00.424Z</time>
      </trkpt>
      <trkpt lat="43.488515" lon="10.667889">
        <ele>106.762042</ele>
        <time>2026-05-06T21:41:07.011Z</time>
      </trkpt>
      <trkpt lat="43.488384" lon="10.667901">
        <ele>106.948127</ele>
        <time>2026-05-06T21:41:09.960Z</time>
      </trkpt>
      <trkpt lat="43.487905" lon="10.667949">
        <ele>107.628837</ele>
        <time>2026-05-06T21:41:20.920Z</time>
      </trkpt>
      <trkpt lat="43.487576" lon="10.668079">
        <ele>108.113933</ele>
        <time>2026-05-06T21:41:28.567Z</time>
      </trkpt>
      <trkpt lat="43.487357" lon="10.668121">
        <ele>108.427327</ele>
        <time>2026-05-06T21:41:33.470Z</time>
      </trkpt>
      <trkpt lat="43.486895" lon="10.668063">
        <ele>109.082179</ele>
        <time>2026-05-06T21:41:43.884Z</time>
      </trkpt>
      <trkpt lat="43.486271" lon="10.668159">
        <ele>109.953178</ele>
        <time>2026-05-06T21:41:58.087Z</time>
      </trkpt>
      <trkpt lat="43.485353" lon="10.668181">
        <ele>111.226836</ele>
        <time>2026-05-06T21:42:17.908Z</time>
      </trkpt>
      <trkpt lat="43.485184" lon="10.668217">
        <ele>111.469109</ele>
        <time>2026-05-06T21:42:21.800Z</time>
      </trkpt>
      <trkpt lat="43.485065" lon="10.668321">
        <ele>111.762085</ele>
        <time>2026-05-06T21:42:25.068Z</time>
      </trkpt>
      <trkpt lat="43.484949" lon="10.668533">
        <ele>112.162654</ele>
        <time>2026-05-06T21:42:29.587Z</time>
      </trkpt>
      <trkpt lat="43.484907" lon="10.668669">
        <ele>112.385633</ele>
        <time>2026-05-06T21:42:32.211Z</time>
      </trkpt>
      <trkpt lat="43.484583" lon="10.670314">
        <ele>114.957068</ele>
        <time>2026-05-06T21:43:02.209Z</time>
      </trkpt>
      <trkpt lat="43.484565" lon="10.671174">
        <ele>117.299016</ele>
        <time>2026-05-06T21:43:19.716Z</time>
      </trkpt>
      <trkpt lat="43.484533" lon="10.671427">
        <ele>118.067565</ele>
        <time>2026-05-06T21:43:25.232Z</time>
      </trkpt>
      <trkpt lat="43.484446" lon="10.671635">
        <ele>118.786053</ele>
        <time>2026-05-06T21:43:30.487Z</time>
      </trkpt>
      <trkpt lat="43.484174" lon="10.672013">
        <ele>120.379243</ele>
        <time>2026-05-06T21:43:42.626Z</time>
      </trkpt>
      <trkpt lat="43.483802" lon="10.672459">
        <ele>122.412874</ele>
        <time>2026-05-06T21:43:59.709Z</time>
      </trkpt>
      <trkpt lat="43.483683" lon="10.672564">
        <ele>123.051273</ele>
        <time>2026-05-06T21:44:04.845Z</time>
      </trkpt>
      <trkpt lat="43.483560" lon="10.672624">
        <ele>123.667491</ele>
        <time>2026-05-06T21:44:09.620Z</time>
      </trkpt>
      <trkpt lat="43.482748" lon="10.672841">
        <ele>127.573844</ele>
        <time>2026-05-06T21:44:39.166Z</time>
      </trkpt>
      <trkpt lat="43.482501" lon="10.673011">
        <ele>128.877751</ele>
        <time>2026-05-06T21:44:48.307Z</time>
      </trkpt>
      <trkpt lat="43.482220" lon="10.673336">
        <ele>130.610257</ele>
        <time>2026-05-06T21:44:59.648Z</time>
      </trkpt>
      <trkpt lat="43.482152" lon="10.673520">
        <ele>131.096310</ele>
        <time>2026-05-06T21:45:03.871Z</time>
      </trkpt>
      <trkpt lat="43.482154" lon="10.673669">
        <ele>131.070551</ele>
        <time>2026-05-06T21:45:06.742Z</time>
      </trkpt>
      <trkpt lat="43.482162" lon="10.673765">
        <ele>131.053848</ele>
        <time>2026-05-06T21:45:08.547Z</time>
      </trkpt>
      <trkpt lat="43.482353" lon="10.674430">
        <ele>130.930224</ele>
        <time>2026-05-06T21:45:19.809Z</time>
      </trkpt>
      <trkpt lat="43.482351" lon="10.674822">
        <ele>130.862465</ele>
        <time>2026-05-06T21:45:24.476Z</time>
      </trkpt>
      <trkpt lat="43.482249" lon="10.675318">
        <ele>130.773354</ele>
        <time>2026-05-06T21:45:29.878Z</time>
      </trkpt>
      <trkpt lat="43.481945" lon="10.676313">
        <ele>129.406498</ele>
        <time>2026-05-06T21:45:40.131Z</time>
      </trkpt>
      <trkpt lat="43.481501" lon="10.677764">
        <ele>125.632065</ele>
        <time>2026-05-06T21:45:54.686Z</time>
      </trkpt>
      <trkpt lat="43.481401" lon="10.678252">
        <ele>124.472582</ele>
        <time>2026-05-06T21:45:59.513Z</time>
      </trkpt>
      <trkpt lat="43.481257" lon="10.680693">
        <ele>119.623171</ele>
        <time>2026-05-06T21:46:23.519Z</time>
      </trkpt>
      <trkpt lat="43.481127" lon="10.682763">
        <ele>115.429353</ele>
        <time>2026-05-06T21:46:43.445Z</time>
      </trkpt>
      <trkpt lat="43.481128" lon="10.683253">
        <ele>114.567805</ele>
        <time>2026-05-06T21:46:48.225Z</time>
      </trkpt>
      <trkpt lat="43.481521" lon="10.684335">
        <ele>112.925712</ele>
        <time>2026-05-06T21:47:00.507Z</time>
      </trkpt>
      <trkpt lat="43.481722" lon="10.685681">
        <ele>111.229297</ele>
        <time>2026-05-06T21:47:15.345Z</time>
      </trkpt>
      <trkpt lat="43.481572" lon="10.686379">
        <ele>110.652866</ele>
        <time>2026-05-06T21:47:23.500Z</time>
      </trkpt>
      <trkpt lat="43.481317" lon="10.687890">
        <ele>109.406686</ele>
        <time>2026-05-06T21:47:40.879Z</time>
      </trkpt>
      <trkpt lat="43.481310" lon="10.688213">
        <ele>109.092540</ele>
        <time>2026-05-06T21:47:44.428Z</time>
      </trkpt>
      <trkpt lat="43.481418" lon="10.689704">
        <ele>107.635854</ele>
        <time>2026-05-06T21:48:00.542Z</time>
      </trkpt>
      <trkpt lat="43.481383" lon="10.690306">
        <ele>107.051005</ele>
        <time>2026-05-06T21:48:06.968Z</time>
      </trkpt>
      <trkpt lat="43.481070" lon="10.692009">
        <ele>105.431025</ele>
        <time>2026-05-06T21:48:25.887Z</time>
      </trkpt>
      <trkpt lat="43.480964" lon="10.692745">
        <ele>104.728731</ele>
        <time>2026-05-06T21:48:34.313Z</time>
      </trkpt>
      <trkpt lat="43.480750" lon="10.693342">
        <ele>104.020856</ele>
        <time>2026-05-06T21:48:41.712Z</time>
      </trkpt>
      <trkpt lat="43.480654" lon="10.693545">
        <ele>103.763265</ele>
        <time>2026-05-06T21:48:44.365Z</time>
      </trkpt>
      <trkpt lat="43.480538" lon="10.693706">
        <ele>103.522065</ele>
        <time>2026-05-06T21:48:46.838Z</time>
      </trkpt>
      <trkpt lat="43.480419" lon="10.693786">
        <ele>103.328083</ele>
        <time>2026-05-06T21:48:48.804Z</time>
      </trkpt>
      <trkpt lat="43.480233" lon="10.693859">
        <ele>103.044742</ele>
        <time>2026-05-06T21:48:51.646Z</time>
      </trkpt>
      <trkpt lat="43.480065" lon="10.693979">
        <ele>102.767512</ele>
        <time>2026-05-06T21:48:54.399Z</time>
      </trkpt>
      <trkpt lat="43.479825" lon="10.694278">
        <ele>102.293514</ele>
        <time>2026-05-06T21:48:59.023Z</time>
      </trkpt>
      <trkpt lat="43.479446" lon="10.694852">
        <ele>101.142494</ele>
        <time>2026-05-06T21:49:06.810Z</time>
      </trkpt>
      <trkpt lat="43.479276" lon="10.695216">
        <ele>100.468991</ele>
        <time>2026-05-06T21:49:11.127Z</time>
      </trkpt>
      <trkpt lat="43.479135" lon="10.695623">
        <ele>99.767281</ele>
        <time>2026-05-06T21:49:15.653Z</time>
      </trkpt>
      <trkpt lat="43.479028" lon="10.696045">
        <ele>99.071770</ele>
        <time>2026-05-06T21:49:20.141Z</time>
      </trkpt>
      <trkpt lat="43.478798" lon="10.697225">
        <ele>97.506414</ele>
        <time>2026-05-06T21:49:32.613Z</time>
      </trkpt>
      <trkpt lat="43.478739" lon="10.697350">
        <ele>97.342457</ele>
        <time>2026-05-06T21:49:34.168Z</time>
      </trkpt>
      <trkpt lat="43.478615" lon="10.697484">
        <ele>97.103688</ele>
        <time>2026-05-06T21:49:36.420Z</time>
      </trkpt>
      <trkpt lat="43.477758" lon="10.698169">
        <ele>95.602500</ele>
        <time>2026-05-06T21:49:51.140Z</time>
      </trkpt>
      <trkpt lat="43.477598" lon="10.698400">
        <ele>95.460375</ele>
        <time>2026-05-06T21:49:54.892Z</time>
      </trkpt>
      <trkpt lat="43.477533" lon="10.698567">
        <ele>95.380720</ele>
        <time>2026-05-06T21:49:57.129Z</time>
      </trkpt>
      <trkpt lat="43.477354" lon="10.698353">
        <ele>95.243455</ele>
        <time>2026-05-06T21:50:00.990Z</time>
      </trkpt>
      <trkpt lat="43.477137" lon="10.698444">
        <ele>95.112066</ele>
        <time>2026-05-06T21:50:07.403Z</time>
      </trkpt>
      <trkpt lat="43.477083" lon="10.698533">
        <ele>95.063303</ele>
        <time>2026-05-06T21:50:09.781Z</time>
      </trkpt>
      <trkpt lat="43.476985" lon="10.698691">
        <ele>94.975936</ele>
        <time>2026-05-06T21:50:14.047Z</time>
      </trkpt>
      <trkpt lat="43.476929" lon="10.698864">
        <ele>94.896311</ele>
        <time>2026-05-06T21:50:17.956Z</time>
      </trkpt>
      <trkpt lat="43.476888" lon="10.699324">
        <ele>94.701505</ele>
        <time>2026-05-06T21:50:27.721Z</time>
      </trkpt>
      <trkpt lat="43.476930" lon="10.699509">
        <ele>94.620026</ele>
        <time>2026-05-06T21:50:31.873Z</time>
      </trkpt>
      <trkpt lat="43.476763" lon="10.700531">
        <ele>94.441018</ele>
        <time>2026-05-06T21:50:52.998Z</time>
      </trkpt>
      <trkpt lat="43.476371" lon="10.701828">
        <ele>94.269644</ele>
        <time>2026-05-06T21:51:22.517Z</time>
      </trkpt>
      <trkpt lat="43.475455" lon="10.704881">
        <ele>95.636330</ele>
        <time>2026-05-06T21:52:39.225Z</time>
      </trkpt>
      <trkpt lat="43.475357" lon="10.705088">
        <ele>95.743477</ele>
        <time>2026-05-06T21:52:44.878Z</time>
      </trkpt>
      <trkpt lat="43.475120" lon="10.705356">
        <ele>95.926630</ele>
        <time>2026-05-06T21:52:54.396Z</time>
      </trkpt>
      <trkpt lat="43.474914" lon="10.705493">
        <ele>96.063278</ele>
        <time>2026-05-06T21:53:01.272Z</time>
      </trkpt>
      <trkpt lat="43.474416" lon="10.706013">
        <ele>96.436550</ele>
        <time>2026-05-06T21:53:20.517Z</time>
      </trkpt>
      <trkpt lat="43.474307" lon="10.706233">
        <ele>96.899155</ele>
        <time>2026-05-06T21:53:26.950Z</time>
      </trkpt>
      <trkpt lat="43.474266" lon="10.706600">
        <ele>97.554101</ele>
        <time>2026-05-06T21:53:36.213Z</time>
      </trkpt>
      <trkpt lat="43.474243" lon="10.706932">
        <ele>98.142350</ele>
        <time>2026-05-06T21:53:44.757Z</time>
      </trkpt>
      <trkpt lat="43.474223" lon="10.707373">
        <ele>98.921711</ele>
        <time>2026-05-06T21:53:56.469Z</time>
      </trkpt>
      <trkpt lat="43.474209" lon="10.707664">
        <ele>99.436109</ele>
        <time>2026-05-06T21:54:04.408Z</time>
      </trkpt>
      <trkpt lat="43.474256" lon="10.707923">
        <ele>99.907004</ele>
        <time>2026-05-06T21:54:11.910Z</time>
      </trkpt>
      <trkpt lat="43.474537" lon="10.708051">
        <ele>100.626339</ele>
        <time>2026-05-06T21:54:24.102Z</time>
      </trkpt>
      <trkpt lat="43.474746" lon="10.707904">
        <ele>101.884743</ele>
        <time>2026-05-06T21:54:34.441Z</time>
      </trkpt>
      <trkpt lat="43.475187" lon="10.707714">
        <ele>105.009440</ele>
        <time>2026-05-06T21:54:56.089Z</time>
      </trkpt>
      <trkpt lat="43.475619" lon="10.707789">
        <ele>107.954004</ele>
        <time>2026-05-06T21:55:18.437Z</time>
      </trkpt>
      <trkpt lat="43.475867" lon="10.707974">
        <ele>109.861106</ele>
        <time>2026-05-06T21:55:33.918Z</time>
      </trkpt>
      <trkpt lat="43.475961" lon="10.708105">
        <ele>110.765200</ele>
        <time>2026-05-06T21:55:41.499Z</time>
      </trkpt>
      <trkpt lat="43.476195" lon="10.708744">
        <ele>114.484381</ele>
        <time>2026-05-06T21:56:12.172Z</time>
      </trkpt>
      <trkpt lat="43.476086" lon="10.709216">
        <ele>117.300572</ele>
        <time>2026-05-06T21:56:33.906Z</time>
      </trkpt>
      <trkpt lat="43.475852" lon="10.709809">
        <ele>121.138356</ele>
        <time>2026-05-06T21:57:02.487Z</time>
      </trkpt>
      <trkpt lat="43.475396" lon="10.710318">
        <ele>125.736142</ele>
        <time>2026-05-06T21:57:33.575Z</time>
      </trkpt>
      <trkpt lat="43.475295" lon="10.710549">
        <ele>127.132639</ele>
        <time>2026-05-06T21:57:43.222Z</time>
      </trkpt>
      <trkpt lat="43.474914" lon="10.711694">
        <ele>129.463895</ele>
        <time>2026-05-06T21:58:21.671Z</time>
      </trkpt>
      <trkpt lat="43.474828" lon="10.711895">
        <ele>129.895741</ele>
        <time>2026-05-06T21:58:27.578Z</time>
      </trkpt>
      <trkpt lat="43.474743" lon="10.711968">
        <ele>130.151177</ele>
        <time>2026-05-06T21:58:30.899Z</time>
      </trkpt>
      <trkpt lat="43.474104" lon="10.712040">
        <ele>131.651095</ele>
        <time>2026-05-06T21:58:50.302Z</time>
      </trkpt>
      <trkpt lat="43.473917" lon="10.712115">
        <ele>131.640933</ele>
        <time>2026-05-06T21:58:55.623Z</time>
      </trkpt>
      <trkpt lat="43.473831" lon="10.712260">
        <ele>131.633843</ele>
        <time>2026-05-06T21:58:59.255Z</time>
      </trkpt>
      <trkpt lat="43.473742" lon="10.713486">
        <ele>131.587189</ele>
        <time>2026-05-06T21:59:23.790Z</time>
      </trkpt>
      <trkpt lat="43.473754" lon="10.714419">
        <ele>131.958820</ele>
        <time>2026-05-06T21:59:45.405Z</time>
      </trkpt>
      <trkpt lat="43.474058" lon="10.715487">
        <ele>134.097328</ele>
        <time>2026-05-06T22:00:16.799Z</time>
      </trkpt>
      <trkpt lat="43.474081" lon="10.715787">
        <ele>134.659663</ele>
        <time>2026-05-06T22:00:25.647Z</time>
      </trkpt>
      <trkpt lat="43.474058" lon="10.716050">
        <ele>135.153462</ele>
        <time>2026-05-06T22:00:33.515Z</time>
      </trkpt>
      <trkpt lat="43.473937" lon="10.716380">
        <ele>135.842670</ele>
        <time>2026-05-06T22:00:44.450Z</time>
      </trkpt>
      <trkpt lat="43.473730" lon="10.716771">
        <ele>136.833565</ele>
        <time>2026-05-06T22:00:58.644Z</time>
      </trkpt>
      <trkpt lat="43.473270" lon="10.717396">
        <ele>138.753575</ele>
        <time>2026-05-06T22:01:24.067Z</time>
      </trkpt>
      <trkpt lat="43.472963" lon="10.717812">
        <ele>140.033283</ele>
        <time>2026-05-06T22:01:40.348Z</time>
      </trkpt>
      <trkpt lat="43.471068" lon="10.720398">
        <ele>149.421211</ele>
        <time>2026-05-06T22:03:24.907Z</time>
      </trkpt>
      <trkpt lat="43.470309" lon="10.721531">
        <ele>156.162255</ele>
        <time>2026-05-06T22:04:23.242Z</time>
      </trkpt>
      <trkpt lat="43.470173" lon="10.721852">
        <ele>157.787281</ele>
        <time>2026-05-06T22:04:38.009Z</time>
      </trkpt>
      <trkpt lat="43.470379" lon="10.722460">
        <ele>160.331430</ele>
        <time>2026-05-06T22:05:03.464Z</time>
      </trkpt>
      <trkpt lat="43.470415" lon="10.722661">
        <ele>161.104548</ele>
        <time>2026-05-06T22:05:11.005Z</time>
      </trkpt>
      <trkpt lat="43.469778" lon="10.724206">
        <ele>167.311846</ele>
        <time>2026-05-06T22:06:08.749Z</time>
      </trkpt>
      <trkpt lat="43.469746" lon="10.724081">
        <ele>167.318617</ele>
        <time>2026-05-06T22:06:11.178Z</time>
      </trkpt>
      <trkpt lat="43.469720" lon="10.723799">
        <ele>167.333137</ele>
        <time>2026-05-06T22:06:16.026Z</time>
      </trkpt>
      <trkpt lat="43.469687" lon="10.722748">
        <ele>167.386873</ele>
        <time>2026-05-06T22:06:29.080Z</time>
      </trkpt>
      <trkpt lat="43.469653" lon="10.722604">
        <ele>167.394608</ele>
        <time>2026-05-06T22:06:30.653Z</time>
      </trkpt>
      <trkpt lat="43.469593" lon="10.722469">
        <ele>167.402694</ele>
        <time>2026-05-06T22:06:32.261Z</time>
      </trkpt>
      <trkpt lat="43.469505" lon="10.722359">
        <ele>167.411056</ele>
        <time>2026-05-06T22:06:33.900Z</time>
      </trkpt>
      <trkpt lat="43.469284" lon="10.722215">
        <ele>167.428263</ele>
        <time>2026-05-06T22:06:37.224Z</time>
      </trkpt>
      <trkpt lat="43.468902" lon="10.722207">
        <ele>167.347626</ele>
        <time>2026-05-06T22:06:42.520Z</time>
      </trkpt>
      <trkpt lat="43.468709" lon="10.722144">
        <ele>167.295316</ele>
        <time>2026-05-06T22:06:45.337Z</time>
      </trkpt>
      <trkpt lat="43.467549" lon="10.721386">
        <ele>166.960161</ele>
        <time>2026-05-06T22:07:10.104Z</time>
      </trkpt>
      <trkpt lat="43.467431" lon="10.721380">
        <ele>167.004810</ele>
        <time>2026-05-06T22:07:12.763Z</time>
      </trkpt>
      <trkpt lat="43.467320" lon="10.721440">
        <ele>167.049895</ele>
        <time>2026-05-06T22:07:15.371Z</time>
      </trkpt>
      <trkpt lat="43.467222" lon="10.721563">
        <ele>167.100019</ele>
        <time>2026-05-06T22:07:18.196Z</time>
      </trkpt>
      <trkpt lat="43.466901" lon="10.722534">
        <ele>167.392828</ele>
        <time>2026-05-06T22:07:33.753Z</time>
      </trkpt>
      <trkpt lat="43.466772" lon="10.723046">
        <ele>167.541560</ele>
        <time>2026-05-06T22:07:40.531Z</time>
      </trkpt>
      <trkpt lat="43.466758" lon="10.723198">
        <ele>167.583608</ele>
        <time>2026-05-06T22:07:42.380Z</time>
      </trkpt>
      <trkpt lat="43.466735" lon="10.723430">
        <ele>167.616137</ele>
        <time>2026-05-06T22:07:45.216Z</time>
      </trkpt>
      <trkpt lat="43.466686" lon="10.723666">
        <ele>167.461621</ele>
        <time>2026-05-06T22:07:48.207Z</time>
      </trkpt>
      <trkpt lat="43.466592" lon="10.723939">
        <ele>167.271415</ele>
        <time>2026-05-06T22:07:51.832Z</time>
      </trkpt>
      <trkpt lat="43.466026" lon="10.724846">
        <ele>166.518450</ele>
        <time>2026-05-06T22:08:05.657Z</time>
      </trkpt>
      <trkpt lat="43.465825" lon="10.725312">
        <ele>166.177217</ele>
        <time>2026-05-06T22:08:11.602Z</time>
      </trkpt>
      <trkpt lat="43.464041" lon="10.730992">
        <ele>159.226830</ele>
        <time>2026-05-06T22:09:15.770Z</time>
      </trkpt>
      <trkpt lat="43.463959" lon="10.731180">
        <ele>159.127853</ele>
        <time>2026-05-06T22:09:18.343Z</time>
      </trkpt>
      <trkpt lat="43.463865" lon="10.731326">
        <ele>159.039783</ele>
        <time>2026-05-06T22:09:20.746Z</time>
      </trkpt>
      <trkpt lat="43.463749" lon="10.731433">
        <ele>158.952991</ele>
        <time>2026-05-06T22:09:23.264Z</time>
      </trkpt>
      <trkpt lat="43.463662" lon="10.731441">
        <ele>158.898780</ele>
        <time>2026-05-06T22:09:24.828Z</time>
      </trkpt>
      <trkpt lat="43.463749" lon="10.731433">
        <ele>158.844569</ele>
        <time>2026-05-06T22:09:26.624Z</time>
      </trkpt>
      <trkpt lat="43.463865" lon="10.731326">
        <ele>158.757776</ele>
        <time>2026-05-06T22:09:29.427Z</time>
      </trkpt>
      <trkpt lat="43.463959" lon="10.731180">
        <ele>158.669707</ele>
        <time>2026-05-06T22:09:32.282Z</time>
      </trkpt>
      <trkpt lat="43.464041" lon="10.730992">
        <ele>158.583770</ele>
        <time>2026-05-06T22:09:35.604Z</time>
      </trkpt>
      <trkpt lat="43.464084" lon="10.731117">
        <ele>158.556545</ele>
        <time>2026-05-06T22:09:38.875Z</time>
      </trkpt>
      <trkpt lat="43.463961" lon="10.731884">
        <ele>158.401951</ele>
        <time>2026-05-06T22:09:57.496Z</time>
      </trkpt>
      <trkpt lat="43.463578" lon="10.735000">
        <ele>152.966176</ele>
        <time>2026-05-06T22:10:59.380Z</time>
      </trkpt>
      <trkpt lat="43.464014" lon="10.735509">
        <ele>150.524285</ele>
        <time>2026-05-06T22:11:10.859Z</time>
      </trkpt>
      <trkpt lat="43.464091" lon="10.735563">
        <ele>149.622964</ele>
        <time>2026-05-06T22:11:12.536Z</time>
      </trkpt>
      <trkpt lat="43.464901" lon="10.735703">
        <ele>139.142268</ele>
        <time>2026-05-06T22:11:27.761Z</time>
      </trkpt>
      <trkpt lat="43.465158" lon="10.735853">
        <ele>135.558933</ele>
        <time>2026-05-06T22:11:32.901Z</time>
      </trkpt>
      <trkpt lat="43.465423" lon="10.735917">
        <ele>132.104858</ele>
        <time>2026-05-06T22:11:37.876Z</time>
      </trkpt>
      <trkpt lat="43.465875" lon="10.736132">
        <ele>126.750800</ele>
        <time>2026-05-06T22:11:46.898Z</time>
      </trkpt>
      <trkpt lat="43.466365" lon="10.736303">
        <ele>123.999255</ele>
        <time>2026-05-06T22:11:56.969Z</time>
      </trkpt>
      <trkpt lat="43.466435" lon="10.736422">
        <ele>123.394086</ele>
        <time>2026-05-06T22:11:59.248Z</time>
      </trkpt>
      <trkpt lat="43.466435" lon="10.736582">
        <ele>122.761962</ele>
        <time>2026-05-06T22:12:01.723Z</time>
      </trkpt>
      <trkpt lat="43.466334" lon="10.737054">
        <ele>120.817836</ele>
        <time>2026-05-06T22:12:09.645Z</time>
      </trkpt>
      <trkpt lat="43.466194" lon="10.737344">
        <ele>119.441800</ele>
        <time>2026-05-06T22:12:15.856Z</time>
      </trkpt>
      <trkpt lat="43.466209" lon="10.737484">
        <ele>118.882696</ele>
        <time>2026-05-06T22:12:18.586Z</time>
      </trkpt>
      <trkpt lat="43.466389" lon="10.737687">
        <ele>117.616486</ele>
        <time>2026-05-06T22:12:25.459Z</time>
      </trkpt>
      <trkpt lat="43.466934" lon="10.738020">
        <ele>120.545943</ele>
        <time>2026-05-06T22:12:48.212Z</time>
      </trkpt>
      <trkpt lat="43.467572" lon="10.738256">
        <ele>123.962020</ele>
        <time>2026-05-06T22:13:20.234Z</time>
      </trkpt>
      <trkpt lat="43.467899" lon="10.738417">
        <ele>125.757732</ele>
        <time>2026-05-06T22:13:39.510Z</time>
      </trkpt>
      <trkpt lat="43.468186" lon="10.738481">
        <ele>127.584500</ele>
        <time>2026-05-06T22:13:56.484Z</time>
      </trkpt>
      <trkpt lat="43.468244" lon="10.738333">
        <ele>128.699121</ele>
        <time>2026-05-06T22:14:02.174Z</time>
      </trkpt>
      <trkpt lat="43.468435" lon="10.738142">
        <ele>130.854025</ele>
        <time>2026-05-06T22:14:13.175Z</time>
      </trkpt>
      <trkpt lat="43.468635" lon="10.738076">
        <ele>132.731855</ele>
        <time>2026-05-06T22:14:22.683Z</time>
      </trkpt>
      <trkpt lat="43.468981" lon="10.738048">
        <ele>135.896601</ele>
        <time>2026-05-06T22:14:38.358Z</time>
      </trkpt>
      <trkpt lat="43.469216" lon="10.737941">
        <ele>138.156488</ele>
        <time>2026-05-06T22:14:49.530Z</time>
      </trkpt>
      <trkpt lat="43.469319" lon="10.737820">
        <ele>139.392387</ele>
        <time>2026-05-06T22:14:55.734Z</time>
      </trkpt>
      <trkpt lat="43.469721" lon="10.737082">
        <ele>146.299792</ele>
        <time>2026-05-06T22:15:28.967Z</time>
      </trkpt>
      <trkpt lat="43.470009" lon="10.736399">
        <ele>153.382475</ele>
        <time>2026-05-06T22:16:02.997Z</time>
      </trkpt>
      <trkpt lat="43.470199" lon="10.736040">
        <ele>157.366413</ele>
        <time>2026-05-06T22:16:23.897Z</time>
      </trkpt>
      <trkpt lat="43.470249" lon="10.735857">
        <ele>159.119679</ele>
        <time>2026-05-06T22:16:32.968Z</time>
      </trkpt>
      <trkpt lat="43.470346" lon="10.735265">
        <ele>164.561330</ele>
        <time>2026-05-06T22:16:59.912Z</time>
      </trkpt>
      <trkpt lat="43.470409" lon="10.734801">
        <ele>167.938299</ele>
        <time>2026-05-06T22:17:18.542Z</time>
      </trkpt>
      <trkpt lat="43.470321" lon="10.734293">
        <ele>171.410594</ele>
        <time>2026-05-06T22:17:37.367Z</time>
      </trkpt>
      <trkpt lat="43.470307" lon="10.734031">
        <ele>173.157204</ele>
        <time>2026-05-06T22:17:46.355Z</time>
      </trkpt>
      <trkpt lat="43.470370" lon="10.733643">
        <ele>175.800580</ele>
        <time>2026-05-06T22:17:58.732Z</time>
      </trkpt>
      <trkpt lat="43.470391" lon="10.733291">
        <ele>178.148728</ele>
        <time>2026-05-06T22:18:08.961Z</time>
      </trkpt>
      <trkpt lat="43.470511" lon="10.733278">
        <ele>179.251446</ele>
        <time>2026-05-06T22:18:14.392Z</time>
      </trkpt>
      <trkpt lat="43.470573" lon="10.733128">
        <ele>180.399115</ele>
        <time>2026-05-06T22:18:20.167Z</time>
      </trkpt>
      <trkpt lat="43.470659" lon="10.732623">
        <ele>183.668267</ele>
        <time>2026-05-06T22:18:38.265Z</time>
      </trkpt>
      <trkpt lat="43.470842" lon="10.731922">
        <ele>188.149796</ele>
        <time>2026-05-06T22:19:07.216Z</time>
      </trkpt>
      <trkpt lat="43.470777" lon="10.730707">
        <ele>195.478678</ele>
        <time>2026-05-06T22:19:53.328Z</time>
      </trkpt>
      <trkpt lat="43.470705" lon="10.730667">
        <ele>196.122183</ele>
        <time>2026-05-06T22:19:57.059Z</time>
      </trkpt>
      <trkpt lat="43.470659" lon="10.730259">
        <ele>197.642284</ele>
        <time>2026-05-06T22:20:09.115Z</time>
      </trkpt>
      <trkpt lat="43.470455" lon="10.729273">
        <ele>200.384186</ele>
        <time>2026-05-06T22:20:34.537Z</time>
      </trkpt>
      <trkpt lat="43.470915" lon="10.728846">
        <ele>202.428024</ele>
        <time>2026-05-06T22:20:47.912Z</time>
      </trkpt>
      <trkpt lat="43.471240" lon="10.728633">
        <ele>203.505167</ele>
        <time>2026-05-06T22:20:55.087Z</time>
      </trkpt>
      <trkpt lat="43.471493" lon="10.728522">
        <ele>203.529217</ele>
        <time>2026-05-06T22:20:59.990Z</time>
      </trkpt>
      <trkpt lat="43.471896" lon="10.728311">
        <ele>203.568266</ele>
        <time>2026-05-06T22:21:07.364Z</time>
      </trkpt>
      <trkpt lat="43.471992" lon="10.728375">
        <ele>203.577926</ele>
        <time>2026-05-06T22:21:09.039Z</time>
      </trkpt>
      <trkpt lat="43.472101" lon="10.728383">
        <ele>203.587813</ele>
        <time>2026-05-06T22:21:10.770Z</time>
      </trkpt>
      <trkpt lat="43.472345" lon="10.728318">
        <ele>203.610323</ele>
        <time>2026-05-06T22:21:14.659Z</time>
      </trkpt>
      <trkpt lat="43.472752" lon="10.728058">
        <ele>203.650957</ele>
        <time>2026-05-06T22:21:22.513Z</time>
      </trkpt>
      <trkpt lat="43.472862" lon="10.727983">
        <ele>203.667568</ele>
        <time>2026-05-06T22:21:25.111Z</time>
      </trkpt>
      <trkpt lat="43.472996" lon="10.727909">
        <ele>203.952174</ele>
        <time>2026-05-06T22:21:28.376Z</time>
      </trkpt>
      <trkpt lat="43.473122" lon="10.727891">
        <ele>204.201914</ele>
        <time>2026-05-06T22:21:31.360Z</time>
      </trkpt>
      <trkpt lat="43.473431" lon="10.727985">
        <ele>204.825774</ele>
        <time>2026-05-06T22:21:38.962Z</time>
      </trkpt>
      <trkpt lat="43.474176" lon="10.728260">
        <ele>206.346322</ele>
        <time>2026-05-06T22:21:59.502Z</time>
      </trkpt>
      <trkpt lat="43.474678" lon="10.728408">
        <ele>207.117191</ele>
        <time>2026-05-06T22:22:12.768Z</time>
      </trkpt>
      <trkpt lat="43.475250" lon="10.728399">
        <ele>206.438379</ele>
        <time>2026-05-06T22:22:24.562Z</time>
      </trkpt>
      <trkpt lat="43.475409" lon="10.728480">
        <ele>206.237220</ele>
        <time>2026-05-06T22:22:27.306Z</time>
      </trkpt>
      <trkpt lat="43.476174" lon="10.728883">
        <ele>205.265357</ele>
        <time>2026-05-06T22:22:38.859Z</time>
      </trkpt>
      <trkpt lat="43.476350" lon="10.729038">
        <ele>204.628111</ele>
        <time>2026-05-06T22:22:41.466Z</time>
      </trkpt>
      <trkpt lat="43.476401" lon="10.729079">
        <ele>204.070476</ele>
        <time>2026-05-06T22:22:42.180Z</time>
      </trkpt>
      <trkpt lat="43.476612" lon="10.729229">
        <ele>201.828166</ele>
        <time>2026-05-06T22:22:44.999Z</time>
      </trkpt>
      <trkpt lat="43.476855" lon="10.729282">
        <ele>199.504604</ele>
        <time>2026-05-06T22:22:47.794Z</time>
      </trkpt>
      <trkpt lat="43.477054" lon="10.729352">
        <ele>197.564903</ele>
        <time>2026-05-06T22:22:50.078Z</time>
      </trkpt>
      <trkpt lat="43.477106" lon="10.729952">
        <ele>193.423674</ele>
        <time>2026-05-06T22:22:54.808Z</time>
      </trkpt>
      <trkpt lat="43.477273" lon="10.730348">
        <ele>190.284729</ele>
        <time>2026-05-06T22:22:58.319Z</time>
      </trkpt>
      <trkpt lat="43.477351" lon="10.730728">
        <ele>187.419656</ele>
        <time>2026-05-06T22:23:01.328Z</time>
      </trkpt>
      <trkpt lat="43.477387" lon="10.731189">
        <ele>183.249846</ele>
        <time>2026-05-06T22:23:04.823Z</time>
      </trkpt>
      <trkpt lat="43.477453" lon="10.731578">
        <ele>179.657135</ele>
        <time>2026-05-06T22:23:07.826Z</time>
      </trkpt>
      <trkpt lat="43.477519" lon="10.731750">
        <ele>177.907349</ele>
        <time>2026-05-06T22:23:09.299Z</time>
      </trkpt>
      <trkpt lat="43.477530" lon="10.731782">
        <ele>177.588910</ele>
        <time>2026-05-06T22:23:09.564Z</time>
      </trkpt>
      <trkpt lat="43.477632" lon="10.731911">
        <ele>175.873132</ele>
        <time>2026-05-06T22:23:11.024Z</time>
      </trkpt>
      <trkpt lat="43.477760" lon="10.731927">
        <ele>174.280266</ele>
        <time>2026-05-06T22:23:12.384Z</time>
      </trkpt>
      <trkpt lat="43.477868" lon="10.732704">
        <ele>167.165550</ele>
        <time>2026-05-06T22:23:18.589Z</time>
      </trkpt>
      <trkpt lat="43.478013" lon="10.733001">
        <ele>164.196624</ele>
        <time>2026-05-06T22:23:21.460Z</time>
      </trkpt>
      <trkpt lat="43.478338" lon="10.733482">
        <ele>159.086270</ele>
        <time>2026-05-06T22:23:26.690Z</time>
      </trkpt>
      <trkpt lat="43.478491" lon="10.733721">
        <ele>156.608111</ele>
        <time>2026-05-06T22:23:29.208Z</time>
      </trkpt>
      <trkpt lat="43.478577" lon="10.733979">
        <ele>154.400502</ele>
        <time>2026-05-06T22:23:31.462Z</time>
      </trkpt>
      <trkpt lat="43.478605" lon="10.734117">
        <ele>153.286330</ele>
        <time>2026-05-06T22:23:32.592Z</time>
      </trkpt>
      <trkpt lat="43.478635" lon="10.734662">
        <ele>149.036529</ele>
        <time>2026-05-06T22:23:36.833Z</time>
      </trkpt>
      <trkpt lat="43.478857" lon="10.735729">
        <ele>139.811486</ele>
        <time>2026-05-06T22:23:45.285Z</time>
      </trkpt>
      <trkpt lat="43.478966" lon="10.736005">
        <ele>137.130781</ele>
        <time>2026-05-06T22:23:49.572Z</time>
      </trkpt>
      <trkpt lat="43.479067" lon="10.736153">
        <ele>135.397538</ele>
        <time>2026-05-06T22:23:52.342Z</time>
      </trkpt>
      <trkpt lat="43.479258" lon="10.736231">
        <ele>133.055481</ele>
        <time>2026-05-06T22:23:56.129Z</time>
      </trkpt>
      <trkpt lat="43.479503" lon="10.736427">
        <ele>129.724933</ele>
        <time>2026-05-06T22:24:01.557Z</time>
      </trkpt>
      <trkpt lat="43.479787" lon="10.736781">
        <ele>125.289929</ele>
        <time>2026-05-06T22:24:09.034Z</time>
      </trkpt>
      <trkpt lat="43.480558" lon="10.737494">
        <ele>119.167839</ele>
        <time>2026-05-06T22:24:28.290Z</time>
      </trkpt>
      <trkpt lat="43.480711" lon="10.737589">
        <ele>118.061364</ele>
        <time>2026-05-06T22:24:31.954Z</time>
      </trkpt>
      <trkpt lat="43.481309" lon="10.737642">
        <ele>114.110272</ele>
        <time>2026-05-06T22:24:45.124Z</time>
      </trkpt>
      <trkpt lat="43.481628" lon="10.737671">
        <ele>112.319041</ele>
        <time>2026-05-06T22:24:52.137Z</time>
      </trkpt>
      <trkpt lat="43.481959" lon="10.737795">
        <ele>110.530537</ele>
        <time>2026-05-06T22:24:59.622Z</time>
      </trkpt>
      <trkpt lat="43.482898" lon="10.738387">
        <ele>105.146499</ele>
        <time>2026-05-06T22:25:21.953Z</time>
      </trkpt>
      <trkpt lat="43.483882" lon="10.739474">
        <ele>99.714625</ele>
        <time>2026-05-06T22:25:50.008Z</time>
      </trkpt>
      <trkpt lat="43.483972" lon="10.739672">
        <ele>99.012278</ele>
        <time>2026-05-06T22:25:53.929Z</time>
      </trkpt>
      <trkpt lat="43.484058" lon="10.740447">
        <ele>96.669638</ele>
        <time>2026-05-06T22:26:07.161Z</time>
      </trkpt>
      <trkpt lat="43.484832" lon="10.741533">
        <ele>94.220547</ele>
        <time>2026-05-06T22:26:34.188Z</time>
      </trkpt>
      <trkpt lat="43.485750" lon="10.742762">
        <ele>90.291751</ele>
        <time>2026-05-06T22:27:07.780Z</time>
      </trkpt>
      <trkpt lat="43.486140" lon="10.742440">
        <ele>88.447233</ele>
        <time>2026-05-06T22:27:18.468Z</time>
      </trkpt>
      <trkpt lat="43.486233" lon="10.742446">
        <ele>88.069495</ele>
        <time>2026-05-06T22:27:20.567Z</time>
      </trkpt>
      <trkpt lat="43.486540" lon="10.742655">
        <ele>86.680258</ele>
        <time>2026-05-06T22:27:28.048Z</time>
      </trkpt>
      <trkpt lat="43.487638" lon="10.742537">
        <ele>80.142828</ele>
        <time>2026-05-06T22:27:50.405Z</time>
      </trkpt>
      <trkpt lat="43.488281" lon="10.742711">
        <ele>75.758884</ele>
        <time>2026-05-06T22:28:03.877Z</time>
      </trkpt>
      <trkpt lat="43.488431" lon="10.742916">
        <ele>74.345664</ele>
        <time>2026-05-06T22:28:08.443Z</time>
      </trkpt>
      <trkpt lat="43.488663" lon="10.742640">
        <ele>73.095015</ele>
        <time>2026-05-06T22:28:12.214Z</time>
      </trkpt>
      <trkpt lat="43.488954" lon="10.742356">
        <ele>72.489941</ele>
        <time>2026-05-06T22:28:16.943Z</time>
      </trkpt>
      <trkpt lat="43.490140" lon="10.741542">
        <ele>70.241593</ele>
        <time>2026-05-06T22:28:38.897Z</time>
      </trkpt>
      <trkpt lat="43.490746" lon="10.740959">
        <ele>68.986988</ele>
        <time>2026-05-06T22:28:50.496Z</time>
      </trkpt>
      <trkpt lat="43.491122" lon="10.740421">
        <ele>68.066912</ele>
        <time>2026-05-06T22:28:58.059Z</time>
      </trkpt>
      <trkpt lat="43.492287" lon="10.741250">
        <ele>65.169443</ele>
        <time>2026-05-06T22:29:16.483Z</time>
      </trkpt>
      <trkpt lat="43.493038" lon="10.741739">
        <ele>63.092379</ele>
        <time>2026-05-06T22:29:28.388Z</time>
      </trkpt>
      <trkpt lat="43.493094" lon="10.741802">
        <ele>62.911617</ele>
        <time>2026-05-06T22:29:29.417Z</time>
      </trkpt>
      <trkpt lat="43.493140" lon="10.741952">
        <ele>62.664109</ele>
        <time>2026-05-06T22:29:31.121Z</time>
      </trkpt>
      <trkpt lat="43.493034" lon="10.742283">
        <ele>62.221991</ele>
        <time>2026-05-06T22:29:34.982Z</time>
      </trkpt>
      <trkpt lat="43.493031" lon="10.742378">
        <ele>62.105797</ele>
        <time>2026-05-06T22:29:35.986Z</time>
      </trkpt>
      <trkpt lat="43.493074" lon="10.742494">
        <ele>61.946619</ele>
        <time>2026-05-06T22:29:37.368Z</time>
      </trkpt>
      <trkpt lat="43.493256" lon="10.742864">
        <ele>61.400370</ele>
        <time>2026-05-06T22:29:42.141Z</time>
      </trkpt>
      <trkpt lat="43.493383" lon="10.743099">
        <ele>61.042294</ele>
        <time>2026-05-06T22:29:45.284Z</time>
      </trkpt>
      <trkpt lat="43.492923" lon="10.743683">
        <ele>59.988929</ele>
        <time>2026-05-06T22:30:01.439Z</time>
      </trkpt>
      <trkpt lat="43.492481" lon="10.743904">
        <ele>59.739735</ele>
        <time>2026-05-06T22:30:14.600Z</time>
      </trkpt>
      <trkpt lat="43.492377" lon="10.744001">
        <ele>59.742224</ele>
        <time>2026-05-06T22:30:18.350Z</time>
      </trkpt>
      <trkpt lat="43.491897" lon="10.744449">
        <ele>59.753714</ele>
        <time>2026-05-06T22:30:36.031Z</time>
      </trkpt>
      <trkpt lat="43.491444" lon="10.745061">
        <ele>59.766285</ele>
        <time>2026-05-06T22:30:55.626Z</time>
      </trkpt>
      <trkpt lat="43.491358" lon="10.745306">
        <ele>59.795163</ele>
        <time>2026-05-06T22:31:01.663Z</time>
      </trkpt>
      <trkpt lat="43.491191" lon="10.745622">
        <ele>59.925328</ele>
        <time>2026-05-06T22:31:10.379Z</time>
      </trkpt>
      <trkpt lat="43.490938" lon="10.746390">
        <ele>60.206154</ele>
        <time>2026-05-06T22:31:29.263Z</time>
      </trkpt>
      <trkpt lat="43.490649" lon="10.747114">
        <ele>60.481284</ele>
        <time>2026-05-06T22:31:47.985Z</time>
      </trkpt>
      <trkpt lat="43.490297" lon="10.747752">
        <ele>60.808320</ele>
        <time>2026-05-06T22:32:06.477Z</time>
      </trkpt>
      <trkpt lat="43.489962" lon="10.748597">
        <ele>61.254490</ele>
        <time>2026-05-06T22:32:28.713Z</time>
      </trkpt>
      <trkpt lat="43.489202" lon="10.750165">
        <ele>62.038511</ele>
        <time>2026-05-06T22:33:11.762Z</time>
      </trkpt>
      <trkpt lat="43.488895" lon="10.750632">
        <ele>62.262458</ele>
        <time>2026-05-06T22:33:26.176Z</time>
      </trkpt>
      <trkpt lat="43.488480" lon="10.751395">
        <ele>62.601334</ele>
        <time>2026-05-06T22:33:47.831Z</time>
      </trkpt>
      <trkpt lat="43.487597" lon="10.752600">
        <ele>62.809312</ele>
        <time>2026-05-06T22:34:25.419Z</time>
      </trkpt>
      <trkpt lat="43.487109" lon="10.753153">
        <ele>62.910965</ele>
        <time>2026-05-06T22:34:44.084Z</time>
      </trkpt>
      <trkpt lat="43.486586" lon="10.753627">
        <ele>63.091671</ele>
        <time>2026-05-06T22:35:02.801Z</time>
      </trkpt>
      <trkpt lat="43.485928" lon="10.754155">
        <ele>63.311481</ele>
        <time>2026-05-06T22:35:26.232Z</time>
      </trkpt>
      <trkpt lat="43.485192" lon="10.754431">
        <ele>63.652171</ele>
        <time>2026-05-06T22:35:50.236Z</time>
      </trkpt>
      <trkpt lat="43.484019" lon="10.754549">
        <ele>64.364247</ele>
        <time>2026-05-06T22:36:27.656Z</time>
      </trkpt>
      <trkpt lat="43.483351" lon="10.754821">
        <ele>64.798375</ele>
        <time>2026-05-06T22:36:49.329Z</time>
      </trkpt>
      <trkpt lat="43.483100" lon="10.755139">
        <ele>65.014106</ele>
        <time>2026-05-06T22:36:59.827Z</time>
      </trkpt>
      <trkpt lat="43.482752" lon="10.755189">
        <ele>65.235497</ele>
        <time>2026-05-06T22:37:10.624Z</time>
      </trkpt>
      <trkpt lat="43.482523" lon="10.755336">
        <ele>65.395345</ele>
        <time>2026-05-06T22:37:18.385Z</time>
      </trkpt>
      <trkpt lat="43.484158" lon="10.759628">
        <ele>71.528351</ele>
        <time>2026-05-06T22:39:16.453Z</time>
      </trkpt>
      <trkpt lat="43.484281" lon="10.759636">
        <ele>71.877759</ele>
        <time>2026-05-06T22:39:21.882Z</time>
      </trkpt>
      <trkpt lat="43.485443" lon="10.761387">
        <ele>82.665277</ele>
        <time>2026-05-06T22:40:52.446Z</time>
      </trkpt>
      <trkpt lat="43.485887" lon="10.762900">
        <ele>90.871799</ele>
        <time>2026-05-06T22:41:58.335Z</time>
      </trkpt>
      <trkpt lat="43.485917" lon="10.763512">
        <ele>93.895708</ele>
        <time>2026-05-06T22:42:21.657Z</time>
      </trkpt>
      <trkpt lat="43.486470" lon="10.764456">
        <ele>98.863070</ele>
        <time>2026-05-06T22:43:03.249Z</time>
      </trkpt>
      <trkpt lat="43.487335" lon="10.764466">
        <ele>101.565701</ele>
        <time>2026-05-06T22:43:37.657Z</time>
      </trkpt>
      <trkpt lat="43.487864" lon="10.765593">
        <ele>104.161519</ele>
        <time>2026-05-06T22:44:11.879Z</time>
      </trkpt>
      <trkpt lat="43.491351" lon="10.768543">
        <ele>111.014650</ele>
        <time>2026-05-06T22:46:35.232Z</time>
      </trkpt>
      <trkpt lat="43.492571" lon="10.769837">
        <ele>113.439307</ele>
        <time>2026-05-06T22:47:28.217Z</time>
      </trkpt>
      <trkpt lat="43.493608" lon="10.770936">
        <ele>115.537922</ele>
        <time>2026-05-06T22:48:13.649Z</time>
      </trkpt>
      <trkpt lat="43.494284" lon="10.771279">
        <ele>117.301171</ele>
        <time>2026-05-06T22:48:39.237Z</time>
      </trkpt>
      <trkpt lat="43.494541" lon="10.771161">
        <ele>117.964233</ele>
        <time>2026-05-06T22:48:49.179Z</time>
      </trkpt>
      <trkpt lat="43.494744" lon="10.770839">
        <ele>118.721761</ele>
        <time>2026-05-06T22:49:01.019Z</time>
      </trkpt>
      <trkpt lat="43.495016" lon="10.770303">
        <ele>119.922228</ele>
        <time>2026-05-06T22:49:20.116Z</time>
      </trkpt>
      <trkpt lat="43.495305" lon="10.770035">
        <ele>121.137778</ele>
        <time>2026-05-06T22:49:34.479Z</time>
      </trkpt>
      <trkpt lat="43.495671" lon="10.770271">
        <ele>122.547900</ele>
        <time>2026-05-06T22:49:51.725Z</time>
      </trkpt>
      <trkpt lat="43.496371" lon="10.771515">
        <ele>126.365329</ele>
        <time>2026-05-06T22:50:38.642Z</time>
      </trkpt>
      <trkpt lat="43.496573" lon="10.772470">
        <ele>127.971604</ele>
        <time>2026-05-06T22:51:05.803Z</time>
      </trkpt>
      <trkpt lat="43.496970" lon="10.773286">
        <ele>129.558109</ele>
        <time>2026-05-06T22:51:31.547Z</time>
      </trkpt>
      <trkpt lat="43.497679" lon="10.774047">
        <ele>130.421363</ele>
        <time>2026-05-06T22:52:01.156Z</time>
      </trkpt>
      <trkpt lat="43.497788" lon="10.774294">
        <ele>130.530966</ele>
        <time>2026-05-06T22:52:07.153Z</time>
      </trkpt>
      <trkpt lat="43.497825" lon="10.774552">
        <ele>130.630666</ele>
        <time>2026-05-06T22:52:12.684Z</time>
      </trkpt>
      <trkpt lat="43.497834" lon="10.774622">
        <ele>130.657616</ele>
        <time>2026-05-06T22:52:14.194Z</time>
      </trkpt>
      <trkpt lat="43.497787" lon="10.774919">
        <ele>130.772856</ele>
        <time>2026-05-06T22:52:20.702Z</time>
      </trkpt>
      <trkpt lat="43.497807" lon="10.775632">
        <ele>131.030485</ele>
        <time>2026-05-06T22:52:36.422Z</time>
      </trkpt>
      <trkpt lat="43.497857" lon="10.777239">
        <ele>131.385709</ele>
        <time>2026-05-06T22:53:14.146Z</time>
      </trkpt>
      <trkpt lat="43.497903" lon="10.778199">
        <ele>131.306475</ele>
        <time>2026-05-06T22:53:35.055Z</time>
      </trkpt>
      <trkpt lat="43.497805" lon="10.778769">
        <ele>130.444492</ele>
        <time>2026-05-06T22:53:46.158Z</time>
      </trkpt>
      <trkpt lat="43.497630" lon="10.782215">
        <ele>124.477381</ele>
        <time>2026-05-06T22:54:46.767Z</time>
      </trkpt>
      <trkpt lat="43.497543" lon="10.782396">
        <ele>124.047131</ele>
        <time>2026-05-06T22:54:50.414Z</time>
      </trkpt>
      <trkpt lat="43.497406" lon="10.782531">
        <ele>123.587118</ele>
        <time>2026-05-06T22:54:54.343Z</time>
      </trkpt>
      <trkpt lat="43.496597" lon="10.783021">
        <ele>123.547106</ele>
        <time>2026-05-06T22:55:16.076Z</time>
      </trkpt>
      <trkpt lat="43.496130" lon="10.783107">
        <ele>123.934135</ele>
        <time>2026-05-06T22:55:31.077Z</time>
      </trkpt>
      <trkpt lat="43.495719" lon="10.783021">
        <ele>124.275622</ele>
        <time>2026-05-06T22:55:47.545Z</time>
      </trkpt>
      <trkpt lat="43.495383" lon="10.783150">
        <ele>124.860010</ele>
        <time>2026-05-06T22:56:03.485Z</time>
      </trkpt>
      <trkpt lat="43.494430" lon="10.783879">
        <ele>128.844590</ele>
        <time>2026-05-06T22:56:55.636Z</time>
      </trkpt>
      <trkpt lat="43.493888" lon="10.784377">
        <ele>130.935208</ele>
        <time>2026-05-06T22:57:18.983Z</time>
      </trkpt>
      <trkpt lat="43.493789" lon="10.784755">
        <ele>130.224735</ele>
        <time>2026-05-06T22:57:26.875Z</time>
      </trkpt>
      <trkpt lat="43.493582" lon="10.785887">
        <ele>128.160898</ele>
        <time>2026-05-06T22:57:46.827Z</time>
      </trkpt>
      <trkpt lat="43.493545" lon="10.786094">
        <ele>127.784002</ele>
        <time>2026-05-06T22:57:50.298Z</time>
      </trkpt>
      <trkpt lat="43.493506" lon="10.786309">
        <ele>127.392205</ele>
        <time>2026-05-06T22:57:53.907Z</time>
      </trkpt>
      <trkpt lat="43.493272" lon="10.787465">
        <ele>124.168605</ele>
        <time>2026-05-06T22:58:14.203Z</time>
      </trkpt>
      <trkpt lat="43.493207" lon="10.787642">
        <ele>123.541420</ele>
        <time>2026-05-06T22:58:17.701Z</time>
      </trkpt>
      <trkpt lat="43.493150" lon="10.787799">
        <ele>122.986387</ele>
        <time>2026-05-06T22:58:20.821Z</time>
      </trkpt>
      <trkpt lat="43.492493" lon="10.788917">
        <ele>118.166049</ele>
        <time>2026-05-06T22:58:43.907Z</time>
      </trkpt>
      <trkpt lat="43.493012" lon="10.789041">
        <ele>114.280970</ele>
        <time>2026-05-06T22:58:49.888Z</time>
      </trkpt>
      <trkpt lat="43.493393" lon="10.789416">
        <ele>110.827980</ele>
        <time>2026-05-06T22:58:55.103Z</time>
      </trkpt>
      <trkpt lat="43.494542" lon="10.791503">
        <ele>97.868284</ele>
        <time>2026-05-06T22:59:16.567Z</time>
      </trkpt>
      <trkpt lat="43.494706" lon="10.791750">
        <ele>96.293388</ele>
        <time>2026-05-06T22:59:19.464Z</time>
      </trkpt>
      <trkpt lat="43.496040" lon="10.791916">
        <ele>90.123713</ele>
        <time>2026-05-06T22:59:36.310Z</time>
      </trkpt>
      <trkpt lat="43.496355" lon="10.791911">
        <ele>88.897396</ele>
        <time>2026-05-06T22:59:40.358Z</time>
      </trkpt>
      <trkpt lat="43.496706" lon="10.791739">
        <ele>87.447257</ele>
        <time>2026-05-06T22:59:45.079Z</time>
      </trkpt>
      <trkpt lat="43.497764" lon="10.790645">
        <ele>83.436372</ele>
        <time>2026-05-06T23:00:01.961Z</time>
      </trkpt>
      <trkpt lat="43.498052" lon="10.790774">
        <ele>82.548976</ele>
        <time>2026-05-06T23:00:06.012Z</time>
      </trkpt>
      <trkpt lat="43.502348" lon="10.795763">
        <ele>76.001018</ele>
        <time>2026-05-06T23:01:31.875Z</time>
      </trkpt>
      <trkpt lat="43.502688" lon="10.796306">
        <ele>76.029445</ele>
        <time>2026-05-06T23:01:41.258Z</time>
      </trkpt>
      <trkpt lat="43.502795" lon="10.796442">
        <ele>76.067772</ele>
        <time>2026-05-06T23:01:43.995Z</time>
      </trkpt>
      <trkpt lat="43.502893" lon="10.796513">
        <ele>76.096927</ele>
        <time>2026-05-06T23:01:46.106Z</time>
      </trkpt>
      <trkpt lat="43.503137" lon="10.796519">
        <ele>76.161195</ele>
        <time>2026-05-06T23:01:50.882Z</time>
      </trkpt>
      <trkpt lat="43.505215" lon="10.795135">
        <ele>76.867450</ele>
        <time>2026-05-06T23:02:36.048Z</time>
      </trkpt>
      <trkpt lat="43.507191" lon="10.791262">
        <ele>75.663767</ele>
        <time>2026-05-06T23:03:33.437Z</time>
      </trkpt>
      <trkpt lat="43.509090" lon="10.790157">
        <ele>74.453674</ele>
        <time>2026-05-06T23:04:05.401Z</time>
      </trkpt>
      <trkpt lat="43.509187" lon="10.790008">
        <ele>74.367272</ele>
        <time>2026-05-06T23:04:08.216Z</time>
      </trkpt>
      <trkpt lat="43.509217" lon="10.789902">
        <ele>74.318170</ele>
        <time>2026-05-06T23:04:09.805Z</time>
      </trkpt>
      <trkpt lat="43.509257" lon="10.789694">
        <ele>74.349446</ele>
        <time>2026-05-06T23:04:12.944Z</time>
      </trkpt>
      <trkpt lat="43.509287" lon="10.789592">
        <ele>74.383167</ele>
        <time>2026-05-06T23:04:14.621Z</time>
      </trkpt>
      <trkpt lat="43.509383" lon="10.789475">
        <ele>74.437288</ele>
        <time>2026-05-06T23:04:17.251Z</time>
      </trkpt>
      <trkpt lat="43.510231" lon="10.789229">
        <ele>74.803333</ele>
        <time>2026-05-06T23:04:35.690Z</time>
      </trkpt>
      <trkpt lat="43.511974" lon="10.789535">
        <ele>74.563282</ele>
        <time>2026-05-06T23:05:05.249Z</time>
      </trkpt>
      <trkpt lat="43.514485" lon="10.789969">
        <ele>73.086176</ele>
        <time>2026-05-06T23:05:46.262Z</time>
      </trkpt>
      <trkpt lat="43.517673" lon="10.790458">
        <ele>70.802405</ele>
        <time>2026-05-06T23:06:37.715Z</time>
      </trkpt>
      <trkpt lat="43.517953" lon="10.790481">
        <ele>70.591742</ele>
        <time>2026-05-06T23:06:42.049Z</time>
      </trkpt>
      <trkpt lat="43.518263" lon="10.790353">
        <ele>70.243839</ele>
        <time>2026-05-06T23:06:47.004Z</time>
      </trkpt>
      <trkpt lat="43.518882" lon="10.789769">
        <ele>69.420805</ele>
        <time>2026-05-06T23:06:58.376Z</time>
      </trkpt>
      <trkpt lat="43.519518" lon="10.789074">
        <ele>68.527741</ele>
        <time>2026-05-06T23:07:10.698Z</time>
      </trkpt>
      <trkpt lat="43.520528" lon="10.787183">
        <ele>66.592052</ele>
        <time>2026-05-06T23:07:36.577Z</time>
      </trkpt>
      <trkpt lat="43.521251" lon="10.785987">
        <ele>65.627531</ele>
        <time>2026-05-06T23:07:53.768Z</time>
      </trkpt>
      <trkpt lat="43.521493" lon="10.785763">
        <ele>65.380801</ele>
        <time>2026-05-06T23:07:58.472Z</time>
      </trkpt>
      <trkpt lat="43.521618" lon="10.785692">
        <ele>65.266359</ele>
        <time>2026-05-06T23:08:00.707Z</time>
      </trkpt>
      <trkpt lat="43.522368" lon="10.785248">
        <ele>64.851405</ele>
        <time>2026-05-06T23:08:14.857Z</time>
      </trkpt>
      <trkpt lat="43.523101" lon="10.784824">
        <ele>64.582284</ele>
        <time>2026-05-06T23:08:28.528Z</time>
      </trkpt>
      <trkpt lat="43.523296" lon="10.784679">
        <ele>64.507277</ele>
        <time>2026-05-06T23:08:32.144Z</time>
      </trkpt>
      <trkpt lat="43.523773" lon="10.784387">
        <ele>64.345400</ele>
        <time>2026-05-06T23:08:40.500Z</time>
      </trkpt>
      <trkpt lat="43.524030" lon="10.783990">
        <ele>64.234956</ele>
        <time>2026-05-06T23:08:46.446Z</time>
      </trkpt>
      <trkpt lat="43.524888" lon="10.782257">
        <ele>64.139278</ele>
        <time>2026-05-06T23:09:13.353Z</time>
      </trkpt>
      <trkpt lat="43.525965" lon="10.781195">
        <ele>64.908777</ele>
        <time>2026-05-06T23:09:41.718Z</time>
      </trkpt>
      <trkpt lat="43.528992" lon="10.778439">
        <ele>63.436306</ele>
        <time>2026-05-06T23:10:41.279Z</time>
      </trkpt>
      <trkpt lat="43.529342" lon="10.778003">
        <ele>63.224766</ele>
        <time>2026-05-06T23:10:48.765Z</time>
      </trkpt>
      <trkpt lat="43.530406" lon="10.776680">
        <ele>62.646014</ele>
        <time>2026-05-06T23:11:12.249Z</time>
      </trkpt>
      <trkpt lat="43.529342" lon="10.778003">
        <ele>63.345162</ele>
        <time>2026-05-06T23:11:40.096Z</time>
      </trkpt>
      <trkpt lat="43.528992" lon="10.778439">
        <ele>63.712833</ele>
        <time>2026-05-06T23:11:49.655Z</time>
      </trkpt>
      <trkpt lat="43.525965" lon="10.781195">
        <ele>70.606593</ele>
        <time>2026-05-06T23:13:11.422Z</time>
      </trkpt>
      <trkpt lat="43.526035" lon="10.781418">
        <ele>71.753010</ele>
        <time>2026-05-06T23:13:17.970Z</time>
      </trkpt>
      <trkpt lat="43.526585" lon="10.783169">
        <ele>80.755582</ele>
        <time>2026-05-06T23:14:18.576Z</time>
      </trkpt>
      <trkpt lat="43.527104" lon="10.784071">
        <ele>87.214957</ele>
        <time>2026-05-06T23:14:54.003Z</time>
      </trkpt>
      <trkpt lat="43.527244" lon="10.784384">
        <ele>89.299360</ele>
        <time>2026-05-06T23:15:05.158Z</time>
      </trkpt>
      <trkpt lat="43.527484" lon="10.784601">
        <ele>91.542645</ele>
        <time>2026-05-06T23:15:17.468Z</time>
      </trkpt>
      <trkpt lat="43.527667" lon="10.784655">
        <ele>93.005533</ele>
        <time>2026-05-06T23:15:25.788Z</time>
      </trkpt>
      <trkpt lat="43.528108" lon="10.784709">
        <ele>96.661083</ele>
        <time>2026-05-06T23:15:46.147Z</time>
      </trkpt>
      <trkpt lat="43.528669" lon="10.784604">
        <ele>101.740594</ele>
        <time>2026-05-06T23:16:13.836Z</time>
      </trkpt>
      <trkpt lat="43.529532" lon="10.784749">
        <ele>109.540801</ele>
        <time>2026-05-06T23:16:54.436Z</time>
      </trkpt>
      <trkpt lat="43.529907" lon="10.784705">
        <ele>113.012763</ele>
        <time>2026-05-06T23:17:12.112Z</time>
      </trkpt>
      <trkpt lat="43.530050" lon="10.784594">
        <ele>114.570989</ele>
        <time>2026-05-06T23:17:20.321Z</time>
      </trkpt>
      <trkpt lat="43.530432" lon="10.784145">
        <ele>119.337027</ele>
        <time>2026-05-06T23:17:46.514Z</time>
      </trkpt>
      <trkpt lat="43.530544" lon="10.784116">
        <ele>120.419177</ele>
        <time>2026-05-06T23:17:52.327Z</time>
      </trkpt>
      <trkpt lat="43.530586" lon="10.784131">
        <ele>120.831170</ele>
        <time>2026-05-06T23:17:54.595Z</time>
      </trkpt>
      <trkpt lat="43.530666" lon="10.784333">
        <ele>122.415864</ele>
        <time>2026-05-06T23:18:03.082Z</time>
      </trkpt>
      <trkpt lat="43.530831" lon="10.784927">
        <ele>126.795310</ele>
        <time>2026-05-06T23:18:25.716Z</time>
      </trkpt>
      <trkpt lat="43.530873" lon="10.785159">
        <ele>128.412501</ele>
        <time>2026-05-06T23:18:34.119Z</time>
      </trkpt>
      <trkpt lat="43.530852" lon="10.785318">
        <ele>129.091764</ele>
        <time>2026-05-06T23:18:39.823Z</time>
      </trkpt>
      <trkpt lat="43.530617" lon="10.785985">
        <ele>132.208605</ele>
        <time>2026-05-06T23:19:03.058Z</time>
      </trkpt>
      <trkpt lat="43.530596" lon="10.786110">
        <ele>132.747892</ele>
        <time>2026-05-06T23:19:06.425Z</time>
      </trkpt>
      <trkpt lat="43.531415" lon="10.787375">
        <ele>139.916748</ele>
        <time>2026-05-06T23:19:44.384Z</time>
      </trkpt>
      <trkpt lat="43.531790" lon="10.788061">
        <ele>143.663840</ele>
        <time>2026-05-06T23:20:06.922Z</time>
      </trkpt>
      <trkpt lat="43.531937" lon="10.788196">
        <ele>144.726235</ele>
        <time>2026-05-06T23:20:13.874Z</time>
      </trkpt>
      <trkpt lat="43.532756" lon="10.788645">
        <ele>150.075582</ele>
        <time>2026-05-06T23:20:50.566Z</time>
      </trkpt>
      <trkpt lat="43.534843" lon="10.789874">
        <ele>164.697250</ele>
        <time>2026-05-06T23:22:21.165Z</time>
      </trkpt>
      <trkpt lat="43.535931" lon="10.790800">
        <ele>171.774506</ele>
        <time>2026-05-06T23:23:08.217Z</time>
      </trkpt>
      <trkpt lat="43.536047" lon="10.790852">
        <ele>171.938303</ele>
        <time>2026-05-06T23:23:11.739Z</time>
      </trkpt>
      <trkpt lat="43.536206" lon="10.790862">
        <ele>172.152047</ele>
        <time>2026-05-06T23:23:16.067Z</time>
      </trkpt>
      <trkpt lat="43.536540" lon="10.790778">
        <ele>172.607973</ele>
        <time>2026-05-06T23:23:24.234Z</time>
      </trkpt>
      <trkpt lat="43.537019" lon="10.790825">
        <ele>173.252851</ele>
        <time>2026-05-06T23:23:34.012Z</time>
      </trkpt>
      <trkpt lat="43.537627" lon="10.790608">
        <ele>174.096226</ele>
        <time>2026-05-06T23:23:45.012Z</time>
      </trkpt>
      <trkpt lat="43.538034" lon="10.790636">
        <ele>174.187492</ele>
        <time>2026-05-06T23:23:52.562Z</time>
      </trkpt>
      <trkpt lat="43.538325" lon="10.790768">
        <ele>174.207544</ele>
        <time>2026-05-06T23:23:59.142Z</time>
      </trkpt>
      <trkpt lat="43.538468" lon="10.790843">
        <ele>174.217559</ele>
        <time>2026-05-06T23:24:02.521Z</time>
      </trkpt>
      <trkpt lat="43.538999" lon="10.791633">
        <ele>174.268682</ele>
        <time>2026-05-06T23:24:17.502Z</time>
      </trkpt>
      <trkpt lat="43.539047" lon="10.791684">
        <ele>174.272648</ele>
        <time>2026-05-06T23:24:18.499Z</time>
      </trkpt>
      <trkpt lat="43.539196" lon="10.792073">
        <ele>173.991046</ele>
        <time>2026-05-06T23:24:23.345Z</time>
      </trkpt>
      <trkpt lat="43.539588" lon="10.793039">
        <ele>172.680703</ele>
        <time>2026-05-06T23:24:34.729Z</time>
      </trkpt>
      <trkpt lat="43.539569" lon="10.793400">
        <ele>172.252291</ele>
        <time>2026-05-06T23:24:38.502Z</time>
      </trkpt>
      <trkpt lat="43.539533" lon="10.793550">
        <ele>172.065270</ele>
        <time>2026-05-06T23:24:40.183Z</time>
      </trkpt>
      <trkpt lat="43.539449" lon="10.793687">
        <ele>171.852887</ele>
        <time>2026-05-06T23:24:42.145Z</time>
      </trkpt>
      <trkpt lat="43.539062" lon="10.794115">
        <ele>170.483263</ele>
        <time>2026-05-06T23:24:49.393Z</time>
      </trkpt>
      <trkpt lat="43.539013" lon="10.794246">
        <ele>169.985435</ele>
        <time>2026-05-06T23:24:50.787Z</time>
      </trkpt>
      <trkpt lat="43.538908" lon="10.794965">
        <ele>167.508489</ele>
        <time>2026-05-06T23:24:57.538Z</time>
      </trkpt>
      <trkpt lat="43.538819" lon="10.795147">
        <ele>166.767072</ele>
        <time>2026-05-06T23:24:59.501Z</time>
      </trkpt>
      <trkpt lat="43.538681" lon="10.795324">
        <ele>165.889212</ele>
        <time>2026-05-06T23:25:01.744Z</time>
      </trkpt>
      <trkpt lat="43.538389" lon="10.795492">
        <ele>164.415289</ele>
        <time>2026-05-06T23:25:05.426Z</time>
      </trkpt>
      <trkpt lat="43.538217" lon="10.795726">
        <ele>163.289858</ele>
        <time>2026-05-06T23:25:08.190Z</time>
      </trkpt>
      <trkpt lat="43.538088" lon="10.796174">
        <ele>162.030495</ele>
        <time>2026-05-06T23:25:12.121Z</time>
      </trkpt>
      <trkpt lat="43.538091" lon="10.796322">
        <ele>161.671844</ele>
        <time>2026-05-06T23:25:13.333Z</time>
      </trkpt>
      <trkpt lat="43.538123" lon="10.796459">
        <ele>161.323178</ele>
        <time>2026-05-06T23:25:14.528Z</time>
      </trkpt>
      <trkpt lat="43.538299" lon="10.797045">
        <ele>159.786664</ele>
        <time>2026-05-06T23:25:20.059Z</time>
      </trkpt>
      <trkpt lat="43.538349" lon="10.797294">
        <ele>159.160784</ele>
        <time>2026-05-06T23:25:22.420Z</time>
      </trkpt>
      <trkpt lat="43.538505" lon="10.798449">
        <ele>157.657222</ele>
        <time>2026-05-06T23:25:37.609Z</time>
      </trkpt>
      <trkpt lat="43.538518" lon="10.798812">
        <ele>158.621987</ele>
        <time>2026-05-06T23:25:46.078Z</time>
      </trkpt>
      <trkpt lat="43.538453" lon="10.799194">
        <ele>159.663573</ele>
        <time>2026-05-06T23:25:56.344Z</time>
      </trkpt>
      <trkpt lat="43.538051" lon="10.800249">
        <ele>162.827420</ele>
        <time>2026-05-06T23:26:27.947Z</time>
      </trkpt>
      <trkpt lat="43.537739" lon="10.800785">
        <ele>162.414096</ele>
        <time>2026-05-06T23:26:40.919Z</time>
      </trkpt>
      <trkpt lat="43.537179" lon="10.801285">
        <ele>159.933795</ele>
        <time>2026-05-06T23:26:49.471Z</time>
      </trkpt>
      <trkpt lat="43.536894" lon="10.801756">
        <ele>158.280097</ele>
        <time>2026-05-06T23:26:54.505Z</time>
      </trkpt>
      <trkpt lat="43.536806" lon="10.802026">
        <ele>157.482152</ele>
        <time>2026-05-06T23:26:56.874Z</time>
      </trkpt>
      <trkpt lat="43.536754" lon="10.802322">
        <ele>156.722045</ele>
        <time>2026-05-06T23:26:59.326Z</time>
      </trkpt>
      <trkpt lat="43.536712" lon="10.803606">
        <ele>154.351199</ele>
        <time>2026-05-06T23:27:10.353Z</time>
      </trkpt>
      <trkpt lat="43.536525" lon="10.804446">
        <ele>152.730339</ele>
        <time>2026-05-06T23:27:23.736Z</time>
      </trkpt>
      <trkpt lat="43.536245" lon="10.805207">
        <ele>153.248653</ele>
        <time>2026-05-06T23:27:42.169Z</time>
      </trkpt>
      <trkpt lat="43.536077" lon="10.805665">
        <ele>154.068923</ele>
        <time>2026-05-06T23:27:53.266Z</time>
      </trkpt>
      <trkpt lat="43.536020" lon="10.806221">
        <ele>154.966284</ele>
        <time>2026-05-06T23:28:04.067Z</time>
      </trkpt>
      <trkpt lat="43.536142" lon="10.807645">
        <ele>157.396773</ele>
        <time>2026-05-06T23:28:23.564Z</time>
      </trkpt>
      <trkpt lat="43.536100" lon="10.808201">
        <ele>158.412397</ele>
        <time>2026-05-06T23:28:32.468Z</time>
      </trkpt>
      <trkpt lat="43.535983" lon="10.808803">
        <ele>159.544749</ele>
        <time>2026-05-06T23:28:45.151Z</time>
      </trkpt>
      <trkpt lat="43.536030" lon="10.809265">
        <ele>160.392348</ele>
        <time>2026-05-06T23:28:56.187Z</time>
      </trkpt>
      <trkpt lat="43.536137" lon="10.809667">
        <ele>161.394508</ele>
        <time>2026-05-06T23:29:06.865Z</time>
      </trkpt>
      <trkpt lat="43.536455" lon="10.810223">
        <ele>163.367110</ele>
        <time>2026-05-06T23:29:24.111Z</time>
      </trkpt>
      <trkpt lat="43.536443" lon="10.811171">
        <ele>166.008016</ele>
        <time>2026-05-06T23:29:44.520Z</time>
      </trkpt>
      <trkpt lat="43.536501" lon="10.811507">
        <ele>166.970056</ele>
        <time>2026-05-06T23:29:51.500Z</time>
      </trkpt>
      <trkpt lat="43.536624" lon="10.811808">
        <ele>167.612297</ele>
        <time>2026-05-06T23:29:58.253Z</time>
      </trkpt>
      <trkpt lat="43.536756" lon="10.812058">
        <ele>167.458922</ele>
        <time>2026-05-06T23:30:04.352Z</time>
      </trkpt>
      <trkpt lat="43.537044" lon="10.812488">
        <ele>167.168603</ele>
        <time>2026-05-06T23:30:13.761Z</time>
      </trkpt>
      <trkpt lat="43.537486" lon="10.812941">
        <ele>166.791926</ele>
        <time>2026-05-06T23:30:21.944Z</time>
      </trkpt>
      <trkpt lat="43.537548" lon="10.813141">
        <ele>166.684058</ele>
        <time>2026-05-06T23:30:24.003Z</time>
      </trkpt>
      <trkpt lat="43.537548" lon="10.813370">
        <ele>166.570497</ele>
        <time>2026-05-06T23:30:26.100Z</time>
      </trkpt>
      <trkpt lat="43.537174" lon="10.814192">
        <ele>165.373082</ele>
        <time>2026-05-06T23:30:34.848Z</time>
      </trkpt>
      <trkpt lat="43.537140" lon="10.814343">
        <ele>165.130026</ele>
        <time>2026-05-06T23:30:36.253Z</time>
      </trkpt>
      <trkpt lat="43.537191" lon="10.814693">
        <ele>164.581245</ele>
        <time>2026-05-06T23:30:39.468Z</time>
      </trkpt>
      <trkpt lat="43.537268" lon="10.814967">
        <ele>164.129512</ele>
        <time>2026-05-06T23:30:42.244Z</time>
      </trkpt>
      <trkpt lat="43.537482" lon="10.815668">
        <ele>162.960288</ele>
        <time>2026-05-06T23:30:51.034Z</time>
      </trkpt>
      <trkpt lat="43.537795" lon="10.816452">
        <ele>163.511941</ele>
        <time>2026-05-06T23:31:07.095Z</time>
      </trkpt>
      <trkpt lat="43.538463" lon="10.818007">
        <ele>165.923752</ele>
        <time>2026-05-06T23:31:39.918Z</time>
      </trkpt>
      <trkpt lat="43.538764" lon="10.819374">
        <ele>166.155360</ele>
        <time>2026-05-06T23:32:01.884Z</time>
      </trkpt>
      <trkpt lat="43.539001" lon="10.820275">
        <ele>166.308856</ele>
        <time>2026-05-06T23:32:12.992Z</time>
      </trkpt>
      <trkpt lat="43.539065" lon="10.821354">
        <ele>164.307072</ele>
        <time>2026-05-06T23:32:23.824Z</time>
      </trkpt>
      <trkpt lat="43.539077" lon="10.821500">
        <ele>164.006511</ele>
        <time>2026-05-06T23:32:25.243Z</time>
      </trkpt>
      <trkpt lat="43.540002" lon="10.828069">
        <ele>149.801044</ele>
        <time>2026-05-06T23:33:28.875Z</time>
      </trkpt>
      <trkpt lat="43.540113" lon="10.827941">
        <ele>149.312067</ele>
        <time>2026-05-06T23:33:32.510Z</time>
      </trkpt>
      <trkpt lat="43.540486" lon="10.827254">
        <ele>147.209108</ele>
        <time>2026-05-06T23:33:47.897Z</time>
      </trkpt>
      <trkpt lat="43.540789" lon="10.826230">
        <ele>144.338928</ele>
        <time>2026-05-06T23:34:06.385Z</time>
      </trkpt>
      <trkpt lat="43.540955" lon="10.825533">
        <ele>140.699488</ele>
        <time>2026-05-06T23:34:17.715Z</time>
      </trkpt>
      <trkpt lat="43.541808" lon="10.822743">
        <ele>124.311286</ele>
        <time>2026-05-06T23:35:02.514Z</time>
      </trkpt>
      <trkpt lat="43.541815" lon="10.821850">
        <ele>118.972829</ele>
        <time>2026-05-06T23:35:15.542Z</time>
      </trkpt>
      <trkpt lat="43.541981" lon="10.821425">
        <ele>115.792278</ele>
        <time>2026-05-06T23:35:22.500Z</time>
      </trkpt>
      <trkpt lat="43.542195" lon="10.820989">
        <ele>111.994864</ele>
        <time>2026-05-06T23:35:30.021Z</time>
      </trkpt>
      <trkpt lat="43.542534" lon="10.819758">
        <ele>102.497978</ele>
        <time>2026-05-06T23:35:48.641Z</time>
      </trkpt>
      <trkpt lat="43.542656" lon="10.817827">
        <ele>90.007994</ele>
        <time>2026-05-06T23:36:16.048Z</time>
      </trkpt>
      <trkpt lat="43.542713" lon="10.817520">
        <ele>88.029050</ele>
        <time>2026-05-06T23:36:20.689Z</time>
      </trkpt>
      <trkpt lat="43.542784" lon="10.817357">
        <ele>86.841562</ele>
        <time>2026-05-06T23:36:23.521Z</time>
      </trkpt>
      <trkpt lat="43.542888" lon="10.817248">
        <ele>85.716407</ele>
        <time>2026-05-06T23:36:26.255Z</time>
      </trkpt>
      <trkpt lat="43.543256" lon="10.817075">
        <ele>84.012509</ele>
        <time>2026-05-06T23:36:34.796Z</time>
      </trkpt>
      <trkpt lat="43.543354" lon="10.817029">
        <ele>83.955815</ele>
        <time>2026-05-06T23:36:37.183Z</time>
      </trkpt>
      <trkpt lat="43.543766" lon="10.816849">
        <ele>83.719124</ele>
        <time>2026-05-06T23:36:48.051Z</time>
      </trkpt>
      <trkpt lat="43.543932" lon="10.816740">
        <ele>83.618435</ele>
        <time>2026-05-06T23:36:53.395Z</time>
      </trkpt>
      <trkpt lat="43.544169" lon="10.816730">
        <ele>83.488573</ele>
        <time>2026-05-06T23:37:01.198Z</time>
      </trkpt>
      <trkpt lat="43.544327" lon="10.816947">
        <ele>83.366469</ele>
        <time>2026-05-06T23:37:09.233Z</time>
      </trkpt>
      <trkpt lat="43.544437" lon="10.817220">
        <ele>83.242473</ele>
        <time>2026-05-06T23:37:18.039Z</time>
      </trkpt>
      <trkpt lat="43.544610" lon="10.818814">
        <ele>86.733493</ele>
        <time>2026-05-06T23:38:04.866Z</time>
      </trkpt>
      <trkpt lat="43.544635" lon="10.819083">
        <ele>87.454803</ele>
        <time>2026-05-06T23:38:12.987Z</time>
      </trkpt>
      <trkpt lat="43.544722" lon="10.819540">
        <ele>88.711496</ele>
        <time>2026-05-06T23:38:27.446Z</time>
      </trkpt>
      <trkpt lat="43.544919" lon="10.819856">
        <ele>89.884421</ele>
        <time>2026-05-06T23:38:40.683Z</time>
      </trkpt>
      <trkpt lat="43.545385" lon="10.820510">
        <ele>94.259610</ele>
        <time>2026-05-06T23:39:11.487Z</time>
      </trkpt>
      <trkpt lat="43.545622" lon="10.821719">
        <ele>100.234632</ele>
        <time>2026-05-06T23:39:59.270Z</time>
      </trkpt>
      <trkpt lat="43.545890" lon="10.822493">
        <ele>105.554855</ele>
        <time>2026-05-06T23:40:35.440Z</time>
      </trkpt>
      <trkpt lat="43.546056" lon="10.822787">
        <ele>108.126857</ele>
        <time>2026-05-06T23:40:51.666Z</time>
      </trkpt>
      <trkpt lat="43.546183" lon="10.822831">
        <ele>109.373643</ele>
        <time>2026-05-06T23:40:59.589Z</time>
      </trkpt>
      <trkpt lat="43.546348" lon="10.822678">
        <ele>111.266576</ele>
        <time>2026-05-06T23:41:11.843Z</time>
      </trkpt>
      <trkpt lat="43.546791" lon="10.820684">
        <ele>125.726284</ele>
        <time>2026-05-06T23:42:45.928Z</time>
      </trkpt>
      <trkpt lat="43.546862" lon="10.820467">
        <ele>127.385079</ele>
        <time>2026-05-06T23:42:56.683Z</time>
      </trkpt>
      <trkpt lat="43.546918" lon="10.820371">
        <ele>128.243643</ele>
        <time>2026-05-06T23:43:02.213Z</time>
      </trkpt>
      <trkpt lat="43.547133" lon="10.820365">
        <ele>130.310749</ele>
        <time>2026-05-06T23:43:15.472Z</time>
      </trkpt>
      <trkpt lat="43.547762" lon="10.821251">
        <ele>137.318961</ele>
        <time>2026-05-06T23:44:09.140Z</time>
      </trkpt>
      <trkpt lat="43.548401" lon="10.822101">
        <ele>141.143438</ele>
        <time>2026-05-06T23:44:51.755Z</time>
      </trkpt>
      <trkpt lat="43.548729" lon="10.822379">
        <ele>142.802045</ele>
        <time>2026-05-06T23:45:05.411Z</time>
      </trkpt>
      <trkpt lat="43.550423" lon="10.822809">
        <ele>139.602176</ele>
        <time>2026-05-06T23:45:47.121Z</time>
      </trkpt>
      <trkpt lat="43.551094" lon="10.822940">
        <ele>136.213752</ele>
        <time>2026-05-06T23:46:02.217Z</time>
      </trkpt>
      <trkpt lat="43.551299" lon="10.822929">
        <ele>134.833641</ele>
        <time>2026-05-06T23:46:06.696Z</time>
      </trkpt>
      <trkpt lat="43.551497" lon="10.822809">
        <ele>133.378831</ele>
        <time>2026-05-06T23:46:11.356Z</time>
      </trkpt>
      <trkpt lat="43.554409" lon="10.817586">
        <ele>100.165593</ele>
        <time>2026-05-06T23:47:49.832Z</time>
      </trkpt>
      <trkpt lat="43.555428" lon="10.815758">
        <ele>88.477074</ele>
        <time>2026-05-06T23:48:24.435Z</time>
      </trkpt>
      <trkpt lat="43.555529" lon="10.815646">
        <ele>87.779643</ele>
        <time>2026-05-06T23:48:27.157Z</time>
      </trkpt>
      <trkpt lat="43.556835" lon="10.815182">
        <ele>80.520784</ele>
        <time>2026-05-06T23:48:56.228Z</time>
      </trkpt>
      <trkpt lat="43.557036" lon="10.815173">
        <ele>79.438325</ele>
        <time>2026-05-06T23:49:00.686Z</time>
      </trkpt>
      <trkpt lat="43.557906" lon="10.815348">
        <ele>78.422004</ele>
        <time>2026-05-06T23:49:21.954Z</time>
      </trkpt>
      <trkpt lat="43.557987" lon="10.815364">
        <ele>78.353741</ele>
        <time>2026-05-06T23:49:24.160Z</time>
      </trkpt>
      <trkpt lat="43.559383" lon="10.815695">
        <ele>78.468812</ele>
        <time>2026-05-06T23:50:12.624Z</time>
      </trkpt>
      <trkpt lat="43.559590" lon="10.815780">
        <ele>78.830712</ele>
        <time>2026-05-06T23:50:20.759Z</time>
      </trkpt>
      <trkpt lat="43.560699" lon="10.816855">
        <ele>80.771310</ele>
        <time>2026-05-06T23:51:08.616Z</time>
      </trkpt>
      <trkpt lat="43.560871" lon="10.817067">
        <ele>80.894310</ele>
        <time>2026-05-06T23:51:16.291Z</time>
      </trkpt>
      <trkpt lat="43.561008" lon="10.817305">
        <ele>81.011783</ele>
        <time>2026-05-06T23:51:23.534Z</time>
      </trkpt>
      <trkpt lat="43.561907" lon="10.818879">
        <ele>81.116214</ele>
        <time>2026-05-06T23:52:06.640Z</time>
      </trkpt>
      <trkpt lat="43.562119" lon="10.819170">
        <ele>80.766777</ele>
        <time>2026-05-06T23:52:14.280Z</time>
      </trkpt>
      <trkpt lat="43.562252" lon="10.819248">
        <ele>80.597896</ele>
        <time>2026-05-06T23:52:17.920Z</time>
      </trkpt>
      <trkpt lat="43.562394" lon="10.819240">
        <ele>80.431812</ele>
        <time>2026-05-06T23:52:21.447Z</time>
      </trkpt>
      <trkpt lat="43.562762" lon="10.819036">
        <ele>79.968355</ele>
        <time>2026-05-06T23:52:31.330Z</time>
      </trkpt>
      <trkpt lat="43.563069" lon="10.818800">
        <ele>79.557679</ele>
        <time>2026-05-06T23:52:40.303Z</time>
      </trkpt>
      <trkpt lat="43.563196" lon="10.818710">
        <ele>79.708710</ele>
        <time>2026-05-06T23:52:44.167Z</time>
      </trkpt>
      <trkpt lat="43.563359" lon="10.818611">
        <ele>80.292299</ele>
        <time>2026-05-06T23:52:49.203Z</time>
      </trkpt>
      <trkpt lat="43.563563" lon="10.818534">
        <ele>80.985356</ele>
        <time>2026-05-06T23:52:55.628Z</time>
      </trkpt>
      <trkpt lat="43.563696" lon="10.818551">
        <ele>81.423059</ele>
        <time>2026-05-06T23:53:00.019Z</time>
      </trkpt>
      <trkpt lat="43.563845" lon="10.818652">
        <ele>81.967048</ele>
        <time>2026-05-06T23:53:05.933Z</time>
      </trkpt>
      <trkpt lat="43.564347" lon="10.819727">
        <ele>85.003811</ele>
        <time>2026-05-06T23:53:37.932Z</time>
      </trkpt>
      <trkpt lat="43.565085" lon="10.820700">
        <ele>92.455640</ele>
        <time>2026-05-06T23:54:22.538Z</time>
      </trkpt>
      <trkpt lat="43.565344" lon="10.821006">
        <ele>95.112821</ele>
        <time>2026-05-06T23:54:37.996Z</time>
      </trkpt>
      <trkpt lat="43.565579" lon="10.821163">
        <ele>97.147629</ele>
        <time>2026-05-06T23:54:49.758Z</time>
      </trkpt>
      <trkpt lat="43.565893" lon="10.821288">
        <ele>99.716379</ele>
        <time>2026-05-06T23:55:04.309Z</time>
      </trkpt>
      <trkpt lat="43.567102" lon="10.821649">
        <ele>110.038394</ele>
        <time>2026-05-06T23:56:01.394Z</time>
      </trkpt>
      <trkpt lat="43.568004" lon="10.821885">
        <ele>117.014090</ele>
        <time>2026-05-06T23:56:42.437Z</time>
      </trkpt>
      <trkpt lat="43.568152" lon="10.821959">
        <ele>118.055229</ele>
        <time>2026-05-06T23:56:48.897Z</time>
      </trkpt>
      <trkpt lat="43.568252" lon="10.822141">
        <ele>119.149840</ele>
        <time>2026-05-06T23:56:55.501Z</time>
      </trkpt>
      <trkpt lat="43.568318" lon="10.822387">
        <ele>120.406957</ele>
        <time>2026-05-06T23:57:02.749Z</time>
      </trkpt>
      <trkpt lat="43.568437" lon="10.824075">
        <ele>128.060729</ele>
        <time>2026-05-06T23:57:48.508Z</time>
      </trkpt>
      <trkpt lat="43.568518" lon="10.824525">
        <ele>129.813434</ele>
        <time>2026-05-06T23:58:00.841Z</time>
      </trkpt>
      <trkpt lat="43.568566" lon="10.824981">
        <ele>131.555207</ele>
        <time>2026-05-06T23:58:12.816Z</time>
      </trkpt>
      <trkpt lat="43.568646" lon="10.825162">
        <ele>132.356638</ele>
        <time>2026-05-06T23:58:18.205Z</time>
      </trkpt>
      <trkpt lat="43.568791" lon="10.824918">
        <ele>133.549496</ele>
        <time>2026-05-06T23:58:25.948Z</time>
      </trkpt>
      <trkpt lat="43.568762" lon="10.824738">
        <ele>134.246511</ele>
        <time>2026-05-06T23:58:30.472Z</time>
      </trkpt>
      <trkpt lat="43.568961" lon="10.823709">
        <ele>139.047175</ele>
        <time>2026-05-06T23:58:54.839Z</time>
      </trkpt>
      <trkpt lat="43.569026" lon="10.823229">
        <ele>141.443725</ele>
        <time>2026-05-06T23:59:05.575Z</time>
      </trkpt>
      <trkpt lat="43.569105" lon="10.822112">
        <ele>146.951821</ele>
        <time>2026-05-06T23:59:41.057Z</time>
      </trkpt>
      <trkpt lat="43.569088" lon="10.821869">
        <ele>148.264040</ele>
        <time>2026-05-06T23:59:50.424Z</time>
      </trkpt>
      <trkpt lat="43.568884" lon="10.820663">
        <ele>156.722165</ele>
        <time>2026-05-07T00:00:39.821Z</time>
      </trkpt>
      <trkpt lat="43.568891" lon="10.820485">
        <ele>157.939646</ele>
        <time>2026-05-07T00:00:46.740Z</time>
      </trkpt>
      <trkpt lat="43.569023" lon="10.820059">
        <ele>161.104000</ele>
        <time>2026-05-07T00:01:03.666Z</time>
      </trkpt>
      <trkpt lat="43.569471" lon="10.819116">
        <ele>166.179217</ele>
        <time>2026-05-07T00:01:33.961Z</time>
      </trkpt>
      <trkpt lat="43.569507" lon="10.818798">
        <ele>166.931420</ele>
        <time>2026-05-07T00:01:40.539Z</time>
      </trkpt>
      <trkpt lat="43.569478" lon="10.818530">
        <ele>167.564698</ele>
        <time>2026-05-07T00:01:45.544Z</time>
      </trkpt>
      <trkpt lat="43.569431" lon="10.818364">
        <ele>167.981220</ele>
        <time>2026-05-07T00:01:48.797Z</time>
      </trkpt>
      <trkpt lat="43.568921" lon="10.817122">
        <ele>170.747411</ele>
        <time>2026-05-07T00:02:12.792Z</time>
      </trkpt>
      <trkpt lat="43.568273" lon="10.815734">
        <ele>171.475851</ele>
        <time>2026-05-07T00:02:36.390Z</time>
      </trkpt>
      <trkpt lat="43.568189" lon="10.815388">
        <ele>171.636835</ele>
        <time>2026-05-07T00:02:40.508Z</time>
      </trkpt>
      <trkpt lat="43.568014" lon="10.813851">
        <ele>172.024216</ele>
        <time>2026-05-07T00:03:01.283Z</time>
      </trkpt>
      <trkpt lat="43.568009" lon="10.813665">
        <ele>172.066298</ele>
        <time>2026-05-07T00:03:04.224Z</time>
      </trkpt>
      <trkpt lat="43.568024" lon="10.813498">
        <ele>172.104344</ele>
        <time>2026-05-07T00:03:06.839Z</time>
      </trkpt>
      <trkpt lat="43.568073" lon="10.813304">
        <ele>172.150795</ele>
        <time>2026-05-07T00:03:10.044Z</time>
      </trkpt>
      <trkpt lat="43.568231" lon="10.812910">
        <ele>172.252608</ele>
        <time>2026-05-07T00:03:16.964Z</time>
      </trkpt>
      <trkpt lat="43.568225" lon="10.812686">
        <ele>172.113449</ele>
        <time>2026-05-07T00:03:20.368Z</time>
      </trkpt>
      <trkpt lat="43.567779" lon="10.810979">
        <ele>170.101127</ele>
        <time>2026-05-07T00:03:39.868Z</time>
      </trkpt>
      <trkpt lat="43.567743" lon="10.810704">
        <ele>169.791223</ele>
        <time>2026-05-07T00:03:42.498Z</time>
      </trkpt>
      <trkpt lat="43.567788" lon="10.810541">
        <ele>169.597784</ele>
        <time>2026-05-07T00:03:44.151Z</time>
      </trkpt>
      <trkpt lat="43.567991" lon="10.810128">
        <ele>168.803935</ele>
        <time>2026-05-07T00:03:48.815Z</time>
      </trkpt>
      <trkpt lat="43.568072" lon="10.810016">
        <ele>168.539424</ele>
        <time>2026-05-07T00:03:50.267Z</time>
      </trkpt>
      <trkpt lat="43.568196" lon="10.809933">
        <ele>168.221492</ele>
        <time>2026-05-07T00:03:52.002Z</time>
      </trkpt>
      <trkpt lat="43.568457" lon="10.809877">
        <ele>167.612140</ele>
        <time>2026-05-07T00:03:55.286Z</time>
      </trkpt>
      <trkpt lat="43.568558" lon="10.809791">
        <ele>167.338361</ele>
        <time>2026-05-07T00:03:56.778Z</time>
      </trkpt>
      <trkpt lat="43.568664" lon="10.809656">
        <ele>167.005617</ele>
        <time>2026-05-07T00:03:58.616Z</time>
      </trkpt>
      <trkpt lat="43.569074" lon="10.808998">
        <ele>165.554990</ele>
        <time>2026-05-07T00:04:07.686Z</time>
      </trkpt>
      <trkpt lat="43.569356" lon="10.808709">
        <ele>166.345428</ele>
        <time>2026-05-07T00:04:14.963Z</time>
      </trkpt>
      <trkpt lat="43.569503" lon="10.808641">
        <ele>166.905081</ele>
        <time>2026-05-07T00:04:18.847Z</time>
      </trkpt>
      <trkpt lat="43.569613" lon="10.808633">
        <ele>167.302711</ele>
        <time>2026-05-07T00:04:21.760Z</time>
      </trkpt>
      <trkpt lat="43.570054" lon="10.808845">
        <ele>168.988435</ele>
        <time>2026-05-07T00:04:36.443Z</time>
      </trkpt>
      <trkpt lat="43.570173" lon="10.808867">
        <ele>169.421839</ele>
        <time>2026-05-07T00:04:40.829Z</time>
      </trkpt>
      <trkpt lat="43.570307" lon="10.808843">
        <ele>169.909609</ele>
        <time>2026-05-07T00:04:45.906Z</time>
      </trkpt>
      <trkpt lat="43.570425" lon="10.808761">
        <ele>170.386510</ele>
        <time>2026-05-07T00:04:51.029Z</time>
      </trkpt>
      <trkpt lat="43.570530" lon="10.808635">
        <ele>170.888766</ele>
        <time>2026-05-07T00:04:56.411Z</time>
      </trkpt>
      <trkpt lat="43.571082" lon="10.807730">
        <ele>174.568957</ele>
        <time>2026-05-07T00:05:24.643Z</time>
      </trkpt>
      <trkpt lat="43.571145" lon="10.807545">
        <ele>175.251326</ele>
        <time>2026-05-07T00:05:28.534Z</time>
      </trkpt>
      <trkpt lat="43.571175" lon="10.807380">
        <ele>175.819196</ele>
        <time>2026-05-07T00:05:31.603Z</time>
      </trkpt>
      <trkpt lat="43.571176" lon="10.807215">
        <ele>176.370006</ele>
        <time>2026-05-07T00:05:34.606Z</time>
      </trkpt>
      <trkpt lat="43.571044" lon="10.806407">
        <ele>179.134934</ele>
        <time>2026-05-07T00:05:52.668Z</time>
      </trkpt>
      <trkpt lat="43.570981" lon="10.805871">
        <ele>181.529741</ele>
        <time>2026-05-07T00:06:07.468Z</time>
      </trkpt>
      <trkpt lat="43.570989" lon="10.805643">
        <ele>182.846960</ele>
        <time>2026-05-07T00:06:14.574Z</time>
      </trkpt>
      <trkpt lat="43.571084" lon="10.804794">
        <ele>187.804205</ele>
        <time>2026-05-07T00:06:44.699Z</time>
      </trkpt>
      <trkpt lat="43.571086" lon="10.804343">
        <ele>190.406751</ele>
        <time>2026-05-07T00:07:00.857Z</time>
      </trkpt>
      <trkpt lat="43.571056" lon="10.804130">
        <ele>191.658877</ele>
        <time>2026-05-07T00:07:08.374Z</time>
      </trkpt>
      <trkpt lat="43.571002" lon="10.803918">
        <ele>192.955625</ele>
        <time>2026-05-07T00:07:15.799Z</time>
      </trkpt>
      <trkpt lat="43.570917" lon="10.803760">
        <ele>194.091226</ele>
        <time>2026-05-07T00:07:21.962Z</time>
      </trkpt>
      <trkpt lat="43.570820" lon="10.803662">
        <ele>194.546209</ele>
        <time>2026-05-07T00:07:26.955Z</time>
      </trkpt>
      <trkpt lat="43.570123" lon="10.803218">
        <ele>195.313927</ele>
        <time>2026-05-07T00:07:51.266Z</time>
      </trkpt>
      <trkpt lat="43.570007" lon="10.803017">
        <ele>195.500126</ele>
        <time>2026-05-07T00:07:54.633Z</time>
      </trkpt>
      <trkpt lat="43.569829" lon="10.802583">
        <ele>195.861489</ele>
        <time>2026-05-07T00:07:59.671Z</time>
      </trkpt>
      <trkpt lat="43.569713" lon="10.802341">
        <ele>196.071743</ele>
        <time>2026-05-07T00:08:02.453Z</time>
      </trkpt>
      <trkpt lat="43.569622" lon="10.802137">
        <ele>196.245330</ele>
        <time>2026-05-07T00:08:04.706Z</time>
      </trkpt>
      <trkpt lat="43.569522" lon="10.801934">
        <ele>195.511801</ele>
        <time>2026-05-07T00:08:06.977Z</time>
      </trkpt>
      <trkpt lat="43.569485" lon="10.801888">
        <ele>195.259709</ele>
        <time>2026-05-07T00:08:07.608Z</time>
      </trkpt>
      <trkpt lat="43.569415" lon="10.801825">
        <ele>194.836661</ele>
        <time>2026-05-07T00:08:08.651Z</time>
      </trkpt>
      <trkpt lat="43.569313" lon="10.801792">
        <ele>194.306306</ele>
        <time>2026-05-07T00:08:09.951Z</time>
      </trkpt>
      <trkpt lat="43.568902" lon="10.801925">
        <ele>192.169263</ele>
        <time>2026-05-07T00:08:15.103Z</time>
      </trkpt>
      <trkpt lat="43.568300" lon="10.801922">
        <ele>189.121717</ele>
        <time>2026-05-07T00:08:22.518Z</time>
      </trkpt>
      <trkpt lat="43.567880" lon="10.801901">
        <ele>187.079047</ele>
        <time>2026-05-07T00:08:27.952Z</time>
      </trkpt>
      <trkpt lat="43.567594" lon="10.801855">
        <ele>186.335239</ele>
        <time>2026-05-07T00:08:31.886Z</time>
      </trkpt>
      <trkpt lat="43.567331" lon="10.801778">
        <ele>185.640727</ele>
        <time>2026-05-07T00:08:35.647Z</time>
      </trkpt>
      <trkpt lat="43.566944" lon="10.801600">
        <ele>184.586957</ele>
        <time>2026-05-07T00:08:41.460Z</time>
      </trkpt>
      <trkpt lat="43.565896" lon="10.800914">
        <ele>182.748107</ele>
        <time>2026-05-07T00:08:58.652Z</time>
      </trkpt>
      <trkpt lat="43.565828" lon="10.800860">
        <ele>182.797529</ele>
        <time>2026-05-07T00:09:00.018Z</time>
      </trkpt>
      <trkpt lat="43.565668" lon="10.800631">
        <ele>182.942738</ele>
        <time>2026-05-07T00:09:04.217Z</time>
      </trkpt>
      <trkpt lat="43.565560" lon="10.800494">
        <ele>183.035146</ele>
        <time>2026-05-07T00:09:07.356Z</time>
      </trkpt>
      <trkpt lat="43.565399" lon="10.800412">
        <ele>183.143255</ele>
        <time>2026-05-07T00:09:11.304Z</time>
      </trkpt>
      <trkpt lat="43.565131" lon="10.800430">
        <ele>183.312283</ele>
        <time>2026-05-07T00:09:18.173Z</time>
      </trkpt>
      <trkpt lat="43.564920" lon="10.800397">
        <ele>183.446055</ele>
        <time>2026-05-07T00:09:24.274Z</time>
      </trkpt>
      <trkpt lat="43.564261" lon="10.800061">
        <ele>182.775909</ele>
        <time>2026-05-07T00:09:44.138Z</time>
      </trkpt>
      <trkpt lat="43.563928" lon="10.799816">
        <ele>181.885002</ele>
        <time>2026-05-07T00:09:52.208Z</time>
      </trkpt>
      <trkpt lat="43.563881" lon="10.799766">
        <ele>181.744901</ele>
        <time>2026-05-07T00:09:53.281Z</time>
      </trkpt>
      <trkpt lat="43.563836" lon="10.799661">
        <ele>181.536213</ele>
        <time>2026-05-07T00:09:54.767Z</time>
      </trkpt>
      <trkpt lat="43.563787" lon="10.799449">
        <ele>181.155543</ele>
        <time>2026-05-07T00:09:57.283Z</time>
      </trkpt>
      <trkpt lat="43.563693" lon="10.799206">
        <ele>180.684316</ele>
        <time>2026-05-07T00:10:00.148Z</time>
      </trkpt>
      <trkpt lat="43.563586" lon="10.799068">
        <ele>180.338564</ele>
        <time>2026-05-07T00:10:02.146Z</time>
      </trkpt>
      <trkpt lat="43.563286" lon="10.798799">
        <ele>179.493938</ele>
        <time>2026-05-07T00:10:06.756Z</time>
      </trkpt>
      <trkpt lat="43.562252" lon="10.797828">
        <ele>169.715042</ele>
        <time>2026-05-07T00:10:22.249Z</time>
      </trkpt>
      <trkpt lat="43.562151" lon="10.797758">
        <ele>168.812834</ele>
        <time>2026-05-07T00:10:23.695Z</time>
      </trkpt>
      <trkpt lat="43.561405" lon="10.797508">
        <ele>163.190263</ele>
        <time>2026-05-07T00:10:33.748Z</time>
      </trkpt>
      <trkpt lat="43.561001" lon="10.797453">
        <ele>160.642238</ele>
        <time>2026-05-07T00:10:39.249Z</time>
      </trkpt>
      <trkpt lat="43.560605" lon="10.797458">
        <ele>158.156630</ele>
        <time>2026-05-07T00:10:44.554Z</time>
      </trkpt>
      <trkpt lat="43.560403" lon="10.797397">
        <ele>156.858771</ele>
        <time>2026-05-07T00:10:47.272Z</time>
      </trkpt>
      <trkpt lat="43.560213" lon="10.797231">
        <ele>155.447318</ele>
        <time>2026-05-07T00:10:50.188Z</time>
      </trkpt>
      <trkpt lat="43.559509" lon="10.796039">
        <ele>149.073309</ele>
        <time>2026-05-07T00:11:04.598Z</time>
      </trkpt>
      <trkpt lat="43.559359" lon="10.795851">
        <ele>147.950078</ele>
        <time>2026-05-07T00:11:07.293Z</time>
      </trkpt>
      <trkpt lat="43.558848" lon="10.795372">
        <ele>144.525812</ele>
        <time>2026-05-07T00:11:15.849Z</time>
      </trkpt>
      <trkpt lat="43.558718" lon="10.795215">
        <ele>143.714243</ele>
        <time>2026-05-07T00:11:18.393Z</time>
      </trkpt>
      <trkpt lat="43.558361" lon="10.794529">
        <ele>142.549082</ele>
        <time>2026-05-07T00:11:27.770Z</time>
      </trkpt>
      <trkpt lat="43.558222" lon="10.794175">
        <ele>141.993618</ele>
        <time>2026-05-07T00:11:32.555Z</time>
      </trkpt>
      <trkpt lat="43.558168" lon="10.793676">
        <ele>141.297559</ele>
        <time>2026-05-07T00:11:38.831Z</time>
      </trkpt>
      <trkpt lat="43.557829" lon="10.792345">
        <ele>140.747346</ele>
        <time>2026-05-07T00:11:56.487Z</time>
      </trkpt>
      <trkpt lat="43.557822" lon="10.792234">
        <ele>140.805017</ele>
        <time>2026-05-07T00:11:58.025Z</time>
      </trkpt>
      <trkpt lat="43.557849" lon="10.792069">
        <ele>140.892570</ele>
        <time>2026-05-07T00:12:00.467Z</time>
      </trkpt>
      <trkpt lat="43.558000" lon="10.791745">
        <ele>141.091957</ele>
        <time>2026-05-07T00:12:06.571Z</time>
      </trkpt>
      <trkpt lat="43.558035" lon="10.791617">
        <ele>141.162768</ele>
        <time>2026-05-07T00:12:08.928Z</time>
      </trkpt>
      <trkpt lat="43.558075" lon="10.791387">
        <ele>141.285195</ele>
        <time>2026-05-07T00:12:13.213Z</time>
      </trkpt>
      <trkpt lat="43.558059" lon="10.791061">
        <ele>141.454317</ele>
        <time>2026-05-07T00:12:19.600Z</time>
      </trkpt>
      <trkpt lat="43.557946" lon="10.790764">
        <ele>141.627941</ele>
        <time>2026-05-07T00:12:26.441Z</time>
      </trkpt>
      <trkpt lat="43.557471" lon="10.789834">
        <ele>143.450449</ele>
        <time>2026-05-07T00:12:49.250Z</time>
      </trkpt>
      <trkpt lat="43.557402" lon="10.789620">
        <ele>143.836039</ele>
        <time>2026-05-07T00:12:53.555Z</time>
      </trkpt>
      <trkpt lat="43.557361" lon="10.789184">
        <ele>144.559813</ele>
        <time>2026-05-07T00:13:01.581Z</time>
      </trkpt>
      <trkpt lat="43.557320" lon="10.788985">
        <ele>144.900396</ele>
        <time>2026-05-07T00:13:05.447Z</time>
      </trkpt>
      <trkpt lat="43.557006" lon="10.788224">
        <ele>146.408183</ele>
        <time>2026-05-07T00:13:22.827Z</time>
      </trkpt>
      <trkpt lat="43.556781" lon="10.787514">
        <ele>147.823401</ele>
        <time>2026-05-07T00:13:40.388Z</time>
      </trkpt>
      <trkpt lat="43.556696" lon="10.787313">
        <ele>148.248413</ele>
        <time>2026-05-07T00:13:45.478Z</time>
      </trkpt>
      <trkpt lat="43.556295" lon="10.786632">
        <ele>149.850920</ele>
        <time>2026-05-07T00:14:02.881Z</time>
      </trkpt>
      <trkpt lat="43.556104" lon="10.786350">
        <ele>150.673123</ele>
        <time>2026-05-07T00:14:09.526Z</time>
      </trkpt>
      <trkpt lat="43.555908" lon="10.786126">
        <ele>151.577353</ele>
        <time>2026-05-07T00:14:15.330Z</time>
      </trkpt>
      <trkpt lat="43.555694" lon="10.785944">
        <ele>152.470518</ele>
        <time>2026-05-07T00:14:21.295Z</time>
      </trkpt>
      <trkpt lat="43.555647" lon="10.785859">
        <ele>152.745815</ele>
        <time>2026-05-07T00:14:23.152Z</time>
      </trkpt>
      <trkpt lat="43.555630" lon="10.785650">
        <ele>153.287348</ele>
        <time>2026-05-07T00:14:26.922Z</time>
      </trkpt>
      <trkpt lat="43.555735" lon="10.785192">
        <ele>154.524253</ele>
        <time>2026-05-07T00:14:36.449Z</time>
      </trkpt>
      <trkpt lat="43.555736" lon="10.785087">
        <ele>154.794641</ele>
        <time>2026-05-07T00:14:38.882Z</time>
      </trkpt>
      <trkpt lat="43.555720" lon="10.784968">
        <ele>155.106282</ele>
        <time>2026-05-07T00:14:41.859Z</time>
      </trkpt>
      <trkpt lat="43.555475" lon="10.784236">
        <ele>157.665532</ele>
        <time>2026-05-07T00:15:06.910Z</time>
      </trkpt>
      <trkpt lat="43.555451" lon="10.784079">
        <ele>158.461033</ele>
        <time>2026-05-07T00:15:12.503Z</time>
      </trkpt>
      <trkpt lat="43.555529" lon="10.782981">
        <ele>163.930778</ele>
        <time>2026-05-07T00:15:52.026Z</time>
      </trkpt>
      <trkpt lat="43.555655" lon="10.782064">
        <ele>168.558060</ele>
        <time>2026-05-07T00:16:17.744Z</time>
      </trkpt>
      <trkpt lat="43.555788" lon="10.781657">
        <ele>169.582080</ele>
        <time>2026-05-07T00:16:26.586Z</time>
      </trkpt>
      <trkpt lat="43.555840" lon="10.781327">
        <ele>170.153957</ele>
        <time>2026-05-07T00:16:31.879Z</time>
      </trkpt>
      <trkpt lat="43.555796" lon="10.780962">
        <ele>170.780538</ele>
        <time>2026-05-07T00:16:37.236Z</time>
      </trkpt>
      <trkpt lat="43.555431" lon="10.779865">
        <ele>172.824630</ele>
        <time>2026-05-07T00:16:58.219Z</time>
      </trkpt>
      <trkpt lat="43.555411" lon="10.779709">
        <ele>173.092903</ele>
        <time>2026-05-07T00:17:01.622Z</time>
      </trkpt>
      <trkpt lat="43.555403" lon="10.779203">
        <ele>173.020612</ele>
        <time>2026-05-07T00:17:12.790Z</time>
      </trkpt>
      <trkpt lat="43.555409" lon="10.778662">
        <ele>172.848067</ele>
        <time>2026-05-07T00:17:23.642Z</time>
      </trkpt>
      <trkpt lat="43.555330" lon="10.778000">
        <ele>172.634111</ele>
        <time>2026-05-07T00:17:34.449Z</time>
      </trkpt>
      <trkpt lat="43.554951" lon="10.777612">
        <ele>172.426448</ele>
        <time>2026-05-07T00:17:41.083Z</time>
      </trkpt>
      <trkpt lat="43.554909" lon="10.777523">
        <ele>172.392579</ele>
        <time>2026-05-07T00:17:42.012Z</time>
      </trkpt>
      <trkpt lat="43.554885" lon="10.777316">
        <ele>171.331799</ele>
        <time>2026-05-07T00:17:43.798Z</time>
      </trkpt>
      <trkpt lat="43.554892" lon="10.777153">
        <ele>170.258715</ele>
        <time>2026-05-07T00:17:45.163Z</time>
      </trkpt>
      <trkpt lat="43.554958" lon="10.776767">
        <ele>167.652352</ele>
        <time>2026-05-07T00:17:48.430Z</time>
      </trkpt>
      <trkpt lat="43.554954" lon="10.776627">
        <ele>166.731585</ele>
        <time>2026-05-07T00:17:49.574Z</time>
      </trkpt>
      <trkpt lat="43.554890" lon="10.776385">
        <ele>165.038625</ele>
        <time>2026-05-07T00:17:51.677Z</time>
      </trkpt>
      <trkpt lat="43.554685" lon="10.776009">
        <ele>161.946438</ele>
        <time>2026-05-07T00:17:55.531Z</time>
      </trkpt>
      <trkpt lat="43.554460" lon="10.775652">
        <ele>158.837201</ele>
        <time>2026-05-07T00:17:59.444Z</time>
      </trkpt>
      <trkpt lat="43.554165" lon="10.775347">
        <ele>155.646707</ele>
        <time>2026-05-07T00:18:03.667Z</time>
      </trkpt>
      <trkpt lat="43.554117" lon="10.775253">
        <ele>155.092271</ele>
        <time>2026-05-07T00:18:04.616Z</time>
      </trkpt>
      <trkpt lat="43.554076" lon="10.775108">
        <ele>154.341809</ele>
        <time>2026-05-07T00:18:05.920Z</time>
      </trkpt>
      <trkpt lat="43.554076" lon="10.774959">
        <ele>153.623389</ele>
        <time>2026-05-07T00:18:07.191Z</time>
      </trkpt>
      <trkpt lat="43.554125" lon="10.774509">
        <ele>151.429312</ele>
        <time>2026-05-07T00:18:11.152Z</time>
      </trkpt>
      <trkpt lat="43.554177" lon="10.774137">
        <ele>149.602616</ele>
        <time>2026-05-07T00:18:14.492Z</time>
      </trkpt>
      <trkpt lat="43.554177" lon="10.773746">
        <ele>147.717369</ele>
        <time>2026-05-07T00:18:17.958Z</time>
      </trkpt>
      <trkpt lat="43.554105" lon="10.771519">
        <ele>140.448984</ele>
        <time>2026-05-07T00:18:38.667Z</time>
      </trkpt>
      <trkpt lat="43.554130" lon="10.771254">
        <ele>139.789311</ele>
        <time>2026-05-07T00:18:41.469Z</time>
      </trkpt>
      <trkpt lat="43.554644" lon="10.769775">
        <ele>138.582050</ele>
        <time>2026-05-07T00:18:59.995Z</time>
      </trkpt>
      <trkpt lat="43.554924" lon="10.769357">
        <ele>138.965144</ele>
        <time>2026-05-07T00:19:09.296Z</time>
      </trkpt>
      <trkpt lat="43.556065" lon="10.767925">
        <ele>141.300672</ele>
        <time>2026-05-07T00:19:52.091Z</time>
      </trkpt>
      <trkpt lat="43.556053" lon="10.767857">
        <ele>141.404203</ele>
        <time>2026-05-07T00:19:53.598Z</time>
      </trkpt>
      <trkpt lat="43.555861" lon="10.767476">
        <ele>142.090688</ele>
        <time>2026-05-07T00:20:03.611Z</time>
      </trkpt>
      <trkpt lat="43.555750" lon="10.767166">
        <ele>142.602192</ele>
        <time>2026-05-07T00:20:10.096Z</time>
      </trkpt>
      <trkpt lat="43.555675" lon="10.766792">
        <ele>143.176243</ele>
        <time>2026-05-07T00:20:15.857Z</time>
      </trkpt>
      <trkpt lat="43.555700" lon="10.766718">
        <ele>143.297022</ele>
        <time>2026-05-07T00:20:16.987Z</time>
      </trkpt>
      <trkpt lat="43.555778" lon="10.766637">
        <ele>142.912199</ele>
        <time>2026-05-07T00:20:18.524Z</time>
      </trkpt>
      <trkpt lat="43.556001" lon="10.766580">
        <ele>141.882823</ele>
        <time>2026-05-07T00:20:21.957Z</time>
      </trkpt>
      <trkpt lat="43.556248" lon="10.766479">
        <ele>140.713546</ele>
        <time>2026-05-07T00:20:25.650Z</time>
      </trkpt>
      <trkpt lat="43.556315" lon="10.766420">
        <ele>140.352797</ele>
        <time>2026-05-07T00:20:26.761Z</time>
      </trkpt>
      <trkpt lat="43.556836" lon="10.765826">
        <ele>137.285333</ele>
        <time>2026-05-07T00:20:35.457Z</time>
      </trkpt>
      <trkpt lat="43.556926" lon="10.765637">
        <ele>136.541466</ele>
        <time>2026-05-07T00:20:37.379Z</time>
      </trkpt>
      <trkpt lat="43.557214" lon="10.764691">
        <ele>131.864960</ele>
        <time>2026-05-07T00:20:45.923Z</time>
      </trkpt>
      <trkpt lat="43.557276" lon="10.764560">
        <ele>131.012885</ele>
        <time>2026-05-07T00:20:47.239Z</time>
      </trkpt>
      <trkpt lat="43.557352" lon="10.764461">
        <ele>130.227482</ele>
        <time>2026-05-07T00:20:48.435Z</time>
      </trkpt>
      <trkpt lat="43.557629" lon="10.764307">
        <ele>127.983287</ele>
        <time>2026-05-07T00:20:51.905Z</time>
      </trkpt>
      <trkpt lat="43.557675" lon="10.764209">
        <ele>127.347423</ele>
        <time>2026-05-07T00:20:52.916Z</time>
      </trkpt>
      <trkpt lat="43.557687" lon="10.764097">
        <ele>126.730860</ele>
        <time>2026-05-07T00:20:53.872Z</time>
      </trkpt>
      <trkpt lat="43.557576" lon="10.763554">
        <ele>123.658372</ele>
        <time>2026-05-07T00:20:58.797Z</time>
      </trkpt>
      <trkpt lat="43.557569" lon="10.763416">
        <ele>122.905006</ele>
        <time>2026-05-07T00:21:00.043Z</time>
      </trkpt>
      <trkpt lat="43.557621" lon="10.762563">
        <ele>119.512251</ele>
        <time>2026-05-07T00:21:08.010Z</time>
      </trkpt>
      <trkpt lat="43.557474" lon="10.761725">
        <ele>116.573594</ele>
        <time>2026-05-07T00:21:16.239Z</time>
      </trkpt>
      <trkpt lat="43.557274" lon="10.760764">
        <ele>113.162487</ele>
        <time>2026-05-07T00:21:25.622Z</time>
      </trkpt>
      <trkpt lat="43.557067" lon="10.759744">
        <ele>108.328392</ele>
        <time>2026-05-07T00:21:35.084Z</time>
      </trkpt>
      <trkpt lat="43.557053" lon="10.759593">
        <ele>107.633649</ele>
        <time>2026-05-07T00:21:36.417Z</time>
      </trkpt>
      <trkpt lat="43.557137" lon="10.759368">
        <ele>106.478557</ele>
        <time>2026-05-07T00:21:38.622Z</time>
      </trkpt>
      <trkpt lat="43.557535" lon="10.758834">
        <ele>102.982670</ele>
        <time>2026-05-07T00:21:45.270Z</time>
      </trkpt>
      <trkpt lat="43.557710" lon="10.758479">
        <ele>101.030447</ele>
        <time>2026-05-07T00:21:48.995Z</time>
      </trkpt>
      <trkpt lat="43.557780" lon="10.758247">
        <ele>99.893566</ele>
        <time>2026-05-07T00:21:51.188Z</time>
      </trkpt>
      <trkpt lat="43.557948" lon="10.757265">
        <ele>95.328989</ele>
        <time>2026-05-07T00:22:00.136Z</time>
      </trkpt>
      <trkpt lat="43.557962" lon="10.757034">
        <ele>94.280323</ele>
        <time>2026-05-07T00:22:02.226Z</time>
      </trkpt>
      <trkpt lat="43.557972" lon="10.756882">
        <ele>93.589865</ele>
        <time>2026-05-07T00:22:03.611Z</time>
      </trkpt>
      <trkpt lat="43.557906" lon="10.756510">
        <ele>91.857278</ele>
        <time>2026-05-07T00:22:07.100Z</time>
      </trkpt>
      <trkpt lat="43.557795" lon="10.756209">
        <ele>90.242403</ele>
        <time>2026-05-07T00:22:10.140Z</time>
      </trkpt>
      <trkpt lat="43.557781" lon="10.756028">
        <ele>89.172611</ele>
        <time>2026-05-07T00:22:11.754Z</time>
      </trkpt>
      <trkpt lat="43.557804" lon="10.755937">
        <ele>88.606202</ele>
        <time>2026-05-07T00:22:12.601Z</time>
      </trkpt>
      <trkpt lat="43.558147" lon="10.755187">
        <ele>83.394058</ele>
        <time>2026-05-07T00:22:20.255Z</time>
      </trkpt>
      <trkpt lat="43.558443" lon="10.753754">
        <ele>74.505203</ele>
        <time>2026-05-07T00:22:32.648Z</time>
      </trkpt>
      <trkpt lat="43.558552" lon="10.752803">
        <ele>68.313378</ele>
        <time>2026-05-07T00:22:40.633Z</time>
      </trkpt>
      <trkpt lat="43.558627" lon="10.752525">
        <ele>66.405713</ele>
        <time>2026-05-07T00:22:43.120Z</time>
      </trkpt>
      <trkpt lat="43.558670" lon="10.752434">
        <ele>65.707082</ele>
        <time>2026-05-07T00:22:44.038Z</time>
      </trkpt>
      <trkpt lat="43.558751" lon="10.752357">
        <ele>64.834215</ele>
        <time>2026-05-07T00:22:45.184Z</time>
      </trkpt>
      <trkpt lat="43.559117" lon="10.752161">
        <ele>61.350238</ele>
        <time>2026-05-07T00:22:49.762Z</time>
      </trkpt>
      <trkpt lat="43.559190" lon="10.752029">
        <ele>60.282411</ele>
        <time>2026-05-07T00:22:51.172Z</time>
      </trkpt>
      <trkpt lat="43.559201" lon="10.751924">
        <ele>59.803027</ele>
        <time>2026-05-07T00:22:52.079Z</time>
      </trkpt>
      <trkpt lat="43.559135" lon="10.751078">
        <ele>56.684285</ele>
        <time>2026-05-07T00:22:59.492Z</time>
      </trkpt>
      <trkpt lat="43.559111" lon="10.750986">
        <ele>56.325895</ele>
        <time>2026-05-07T00:23:00.353Z</time>
      </trkpt>
      <trkpt lat="43.558839" lon="10.750442">
        <ele>53.903418</ele>
        <time>2026-05-07T00:23:06.384Z</time>
      </trkpt>
      <trkpt lat="43.558027" lon="10.748906">
        <ele>50.008364</ele>
        <time>2026-05-07T00:23:40.865Z</time>
      </trkpt>
      <trkpt lat="43.557419" lon="10.747756">
        <ele>48.796204</ele>
        <time>2026-05-07T00:24:09.875Z</time>
      </trkpt>
      <trkpt lat="43.556075" lon="10.745128">
        <ele>50.141067</ele>
        <time>2026-05-07T00:25:18.406Z</time>
      </trkpt>
      <trkpt lat="43.556053" lon="10.745102">
        <ele>50.217654</ele>
        <time>2026-05-07T00:25:19.353Z</time>
      </trkpt>
      <trkpt lat="43.556053" lon="10.745102">
        <ele>50.217654</ele>
        <time>2026-05-07T00:25:19.390Z</time>
      </trkpt>
      <trkpt lat="43.556053" lon="10.745102">
        <ele>50.217654</ele>
        <time>2026-05-07T00:25:19.390Z</time>
      </trkpt>
      <trkpt lat="43.555450" lon="10.745172">
        <ele>51.817643</ele>
        <time>2026-05-07T00:25:35.042Z</time>
      </trkpt>
      <trkpt lat="43.554848" lon="10.745242">
        <ele>53.432532</ele>
        <time>2026-05-07T00:25:50.678Z</time>
      </trkpt>
      <trkpt lat="43.554245" lon="10.745312">
        <ele>57.984644</ele>
        <time>2026-05-07T00:26:06.350Z</time>
      </trkpt>
      <trkpt lat="43.554206" lon="10.745318">
        <ele>58.279840</ele>
        <time>2026-05-07T00:26:08.448Z</time>
      </trkpt>
      <trkpt lat="43.553900" lon="10.745273">
        <ele>60.594771</ele>
        <time>2026-05-07T00:26:25.066Z</time>
      </trkpt>
      <trkpt lat="43.552201" lon="10.745558">
        <ele>73.086846</ele>
        <time>2026-05-07T00:28:05.385Z</time>
      </trkpt>
      <trkpt lat="43.551833" lon="10.745514">
        <ele>75.702712</ele>
        <time>2026-05-07T00:28:23.755Z</time>
      </trkpt>
      <trkpt lat="43.551662" lon="10.745537">
        <ele>76.919439</ele>
        <time>2026-05-07T00:28:31.729Z</time>
      </trkpt>
      <trkpt lat="43.551219" lon="10.745659">
        <ele>80.066535</ele>
        <time>2026-05-07T00:28:52.022Z</time>
      </trkpt>
      <trkpt lat="43.551228" lon="10.745518">
        <ele>80.708123</ele>
        <time>2026-05-07T00:28:56.521Z</time>
      </trkpt>
      <trkpt lat="43.551196" lon="10.745432">
        <ele>81.146310</ele>
        <time>2026-05-07T00:28:59.532Z</time>
      </trkpt>
      <trkpt lat="43.550948" lon="10.745439">
        <ele>82.697655</ele>
        <time>2026-05-07T00:29:10.330Z</time>
      </trkpt>
      <trkpt lat="43.550872" lon="10.745365">
        <ele>83.279404</ele>
        <time>2026-05-07T00:29:14.370Z</time>
      </trkpt>
      <trkpt lat="43.550089" lon="10.745589">
        <ele>88.280529</ele>
        <time>2026-05-07T00:29:52.804Z</time>
      </trkpt>
      <trkpt lat="43.550046" lon="10.745656">
        <ele>88.686182</ele>
        <time>2026-05-07T00:29:56.217Z</time>
      </trkpt>
      <trkpt lat="43.550035" lon="10.745834">
        <ele>89.495950</ele>
        <time>2026-05-07T00:30:03.251Z</time>
      </trkpt>
      <trkpt lat="43.550003" lon="10.745889">
        <ele>89.815646</ele>
        <time>2026-05-07T00:30:06.068Z</time>
      </trkpt>
      <trkpt lat="43.547425" lon="10.747814">
        <ele>116.748576</ele>
        <time>2026-05-07T00:33:04.635Z</time>
      </trkpt>
      <trkpt lat="43.546409" lon="10.748572">
        <ele>126.408940</ele>
        <time>2026-05-07T00:34:11.643Z</time>
      </trkpt>
      <trkpt lat="43.546356" lon="10.748595">
        <ele>126.745731</ele>
        <time>2026-05-07T00:34:14.696Z</time>
      </trkpt>
      <trkpt lat="43.546295" lon="10.748580">
        <ele>127.121324</ele>
        <time>2026-05-07T00:34:18.131Z</time>
      </trkpt>
      <trkpt lat="43.545966" lon="10.748171">
        <ele>129.805825</ele>
        <time>2026-05-07T00:34:41.965Z</time>
      </trkpt>
      <trkpt lat="43.545839" lon="10.748190">
        <ele>130.580180</ele>
        <time>2026-05-07T00:34:48.645Z</time>
      </trkpt>
      <trkpt lat="43.545605" lon="10.747947">
        <ele>132.355543</ele>
        <time>2026-05-07T00:35:02.915Z</time>
      </trkpt>
      <trkpt lat="43.545135" lon="10.747603">
        <ele>135.404900</ele>
        <time>2026-05-07T00:35:25.400Z</time>
      </trkpt>
      <trkpt lat="43.544952" lon="10.747415">
        <ele>135.276120</ele>
        <time>2026-05-07T00:35:34.407Z</time>
      </trkpt>
      <trkpt lat="43.543779" lon="10.745672">
        <ele>133.832137</ele>
        <time>2026-05-07T00:36:19.204Z</time>
      </trkpt>
      <trkpt lat="43.543695" lon="10.745273">
        <ele>132.874312</ele>
        <time>2026-05-07T00:36:26.234Z</time>
      </trkpt>
      <trkpt lat="43.543835" lon="10.744579">
        <ele>131.213632</ele>
        <time>2026-05-07T00:36:38.424Z</time>
      </trkpt>
      <trkpt lat="43.543851" lon="10.744257">
        <ele>130.469585</ele>
        <time>2026-05-07T00:36:43.750Z</time>
      </trkpt>
      <trkpt lat="43.543946" lon="10.743692">
        <ele>129.132510</ele>
        <time>2026-05-07T00:36:53.457Z</time>
      </trkpt>
      <trkpt lat="43.543946" lon="10.743182">
        <ele>127.979218</ele>
        <time>2026-05-07T00:37:02.160Z</time>
      </trkpt>
      <trkpt lat="43.543960" lon="10.742806">
        <ele>127.138019</ele>
        <time>2026-05-07T00:37:08.537Z</time>
      </trkpt>
      <trkpt lat="43.544136" lon="10.742236">
        <ele>125.753742</ele>
        <time>2026-05-07T00:37:18.911Z</time>
      </trkpt>
      <trkpt lat="43.544251" lon="10.741698">
        <ele>124.500523</ele>
        <time>2026-05-07T00:37:28.297Z</time>
      </trkpt>
      <trkpt lat="43.544620" lon="10.740678">
        <ele>122.458150</ele>
        <time>2026-05-07T00:37:49.132Z</time>
      </trkpt>
      <trkpt lat="43.544731" lon="10.740421">
        <ele>122.074006</ele>
        <time>2026-05-07T00:37:55.178Z</time>
      </trkpt>
      <trkpt lat="43.545043" lon="10.739840">
        <ele>121.145540</ele>
        <time>2026-05-07T00:38:10.395Z</time>
      </trkpt>
      <trkpt lat="43.545086" lon="10.739719">
        <ele>120.972502</ele>
        <time>2026-05-07T00:38:13.171Z</time>
      </trkpt>
      <trkpt lat="43.545209" lon="10.739378">
        <ele>120.483423</ele>
        <time>2026-05-07T00:38:20.471Z</time>
      </trkpt>
      <trkpt lat="43.545286" lon="10.739254">
        <ele>120.273762</ele>
        <time>2026-05-07T00:38:23.398Z</time>
      </trkpt>
      <trkpt lat="43.545711" lon="10.738845">
        <ele>117.305743</ele>
        <time>2026-05-07T00:38:35.311Z</time>
      </trkpt>
      <trkpt lat="43.545773" lon="10.738665">
        <ele>116.172594</ele>
        <time>2026-05-07T00:38:38.416Z</time>
      </trkpt>
      <trkpt lat="43.545905" lon="10.737961">
        <ele>112.037956</ele>
        <time>2026-05-07T00:38:49.194Z</time>
      </trkpt>
      <trkpt lat="43.546457" lon="10.736518">
        <ele>101.742434</ele>
        <time>2026-05-07T00:39:12.110Z</time>
      </trkpt>
      <trkpt lat="43.546437" lon="10.736251">
        <ele>99.712253</ele>
        <time>2026-05-07T00:39:15.858Z</time>
      </trkpt>
      <trkpt lat="43.546287" lon="10.735543">
        <ele>94.133290</ele>
        <time>2026-05-07T00:39:26.210Z</time>
      </trkpt>
      <trkpt lat="43.546047" lon="10.734863">
        <ele>88.412825</ele>
        <time>2026-05-07T00:39:36.922Z</time>
      </trkpt>
      <trkpt lat="43.545956" lon="10.734358">
        <ele>84.905158</ele>
        <time>2026-05-07T00:39:44.368Z</time>
      </trkpt>
      <trkpt lat="43.545947" lon="10.734136">
        <ele>83.500525</ele>
        <time>2026-05-07T00:39:47.572Z</time>
      </trkpt>
      <trkpt lat="43.545959" lon="10.733909">
        <ele>82.062688</ele>
        <time>2026-05-07T00:39:50.870Z</time>
      </trkpt>
      <trkpt lat="43.546014" lon="10.733578">
        <ele>79.917420</ele>
        <time>2026-05-07T00:39:55.788Z</time>
      </trkpt>
      <trkpt lat="43.546341" lon="10.732411">
        <ele>72.013441</ele>
        <time>2026-05-07T00:40:14.052Z</time>
      </trkpt>
      <trkpt lat="43.546394" lon="10.731954">
        <ele>69.544860</ele>
        <time>2026-05-07T00:40:20.936Z</time>
      </trkpt>
      <trkpt lat="43.546630" lon="10.731015">
        <ele>64.503738</ele>
        <time>2026-05-07T00:40:35.811Z</time>
      </trkpt>
      <trkpt lat="43.546853" lon="10.730584">
        <ele>61.817720</ele>
        <time>2026-05-07T00:40:43.796Z</time>
      </trkpt>
      <trkpt lat="43.547250" lon="10.729940">
        <ele>58.246725</ele>
        <time>2026-05-07T00:40:56.707Z</time>
      </trkpt>
      <trkpt lat="43.547659" lon="10.729140">
        <ele>56.057687</ele>
        <time>2026-05-07T00:41:12.309Z</time>
      </trkpt>
      <trkpt lat="43.547941" lon="10.728602">
        <ele>54.573107</ele>
        <time>2026-05-07T00:41:24.074Z</time>
      </trkpt>
      <trkpt lat="43.548069" lon="10.728343">
        <ele>53.872170</ele>
        <time>2026-05-07T00:41:30.303Z</time>
      </trkpt>
      <trkpt lat="43.548123" lon="10.728153">
        <ele>53.415838</ele>
        <time>2026-05-07T00:41:34.726Z</time>
      </trkpt>
      <trkpt lat="43.548146" lon="10.727947">
        <ele>53.721488</ele>
        <time>2026-05-07T00:41:39.566Z</time>
      </trkpt>
      <trkpt lat="43.548123" lon="10.727748">
        <ele>54.379729</ele>
        <time>2026-05-07T00:41:44.579Z</time>
      </trkpt>
      <trkpt lat="43.547834" lon="10.726633">
        <ele>58.247736</ele>
        <time>2026-05-07T00:42:19.605Z</time>
      </trkpt>
      <trkpt lat="43.547674" lon="10.726266">
        <ele>59.646695</ele>
        <time>2026-05-07T00:42:34.985Z</time>
      </trkpt>
      <trkpt lat="43.547626" lon="10.726215">
        <ele>59.919731</ele>
        <time>2026-05-07T00:42:38.114Z</time>
      </trkpt>
      <trkpt lat="43.547503" lon="10.726191">
        <ele>60.479577</ele>
        <time>2026-05-07T00:42:44.819Z</time>
      </trkpt>
      <trkpt lat="43.547190" lon="10.726269">
        <ele>62.581570</ele>
        <time>2026-05-07T00:43:03.020Z</time>
      </trkpt>
      <trkpt lat="43.547120" lon="10.726253">
        <ele>63.294619</ele>
        <time>2026-05-07T00:43:07.302Z</time>
      </trkpt>
      <trkpt lat="43.546235" lon="10.725552">
        <ele>73.549893</ele>
        <time>2026-05-07T00:44:12.444Z</time>
      </trkpt>
      <trkpt lat="43.546176" lon="10.725552">
        <ele>74.142810</ele>
        <time>2026-05-07T00:44:16.388Z</time>
      </trkpt>
      <trkpt lat="43.546104" lon="10.725608">
        <ele>74.973427</ele>
        <time>2026-05-07T00:44:21.987Z</time>
      </trkpt>
      <trkpt lat="43.545874" lon="10.725995">
        <ele>78.618805</ele>
        <time>2026-05-07T00:44:45.815Z</time>
      </trkpt>
      <trkpt lat="43.545591" lon="10.726205">
        <ele>81.524454</ele>
        <time>2026-05-07T00:45:05.976Z</time>
      </trkpt>
      <trkpt lat="43.545483" lon="10.726194">
        <ele>82.466205</ele>
        <time>2026-05-07T00:45:12.591Z</time>
      </trkpt>
      <trkpt lat="43.544122" lon="10.724977">
        <ele>96.708073</ele>
        <time>2026-05-07T00:46:42.291Z</time>
      </trkpt>
      <trkpt lat="43.543721" lon="10.724587">
        <ele>101.370460</ele>
        <time>2026-05-07T00:47:11.178Z</time>
      </trkpt>
      <trkpt lat="43.543684" lon="10.724489">
        <ele>102.131584</ele>
        <time>2026-05-07T00:47:15.976Z</time>
      </trkpt>
      <trkpt lat="43.543689" lon="10.724345">
        <ele>103.124620</ele>
        <time>2026-05-07T00:47:22.347Z</time>
      </trkpt>
      <trkpt lat="43.543782" lon="10.724029">
        <ele>105.473858</ele>
        <time>2026-05-07T00:47:37.734Z</time>
      </trkpt>
      <trkpt lat="43.544010" lon="10.723564">
        <ele>109.340848</ele>
        <time>2026-05-07T00:48:03.472Z</time>
      </trkpt>
      <trkpt lat="43.544057" lon="10.723394">
        <ele>110.594119</ele>
        <time>2026-05-07T00:48:12.035Z</time>
      </trkpt>
      <trkpt lat="43.544047" lon="10.723117">
        <ele>112.362494</ele>
        <time>2026-05-07T00:48:25.168Z</time>
      </trkpt>
      <trkpt lat="43.544088" lon="10.722878">
        <ele>113.317149</ele>
        <time>2026-05-07T00:48:35.034Z</time>
      </trkpt>
      <trkpt lat="43.544272" lon="10.722417">
        <ele>115.362753</ele>
        <time>2026-05-07T00:48:52.461Z</time>
      </trkpt>
      <trkpt lat="43.544364" lon="10.722250">
        <ele>116.178081</ele>
        <time>2026-05-07T00:48:58.090Z</time>
      </trkpt>
      <trkpt lat="43.544497" lon="10.721996">
        <ele>117.396039</ele>
        <time>2026-05-07T00:49:05.442Z</time>
      </trkpt>
      <trkpt lat="43.544719" lon="10.721754">
        <ele>118.913291</ele>
        <time>2026-05-07T00:49:13.564Z</time>
      </trkpt>
      <trkpt lat="43.544801" lon="10.721668">
        <ele>119.465651</ele>
        <time>2026-05-07T00:49:16.261Z</time>
      </trkpt>
      <trkpt lat="43.545250" lon="10.721437">
        <ele>121.992385</ele>
        <time>2026-05-07T00:49:26.890Z</time>
      </trkpt>
      <trkpt lat="43.545273" lon="10.721426">
        <ele>122.096387</ele>
        <time>2026-05-07T00:49:27.386Z</time>
      </trkpt>
      <trkpt lat="43.545312" lon="10.721408">
        <ele>122.272087</ele>
        <time>2026-05-07T00:49:28.196Z</time>
      </trkpt>
      <trkpt lat="43.545685" lon="10.721232">
        <ele>123.956319</ele>
        <time>2026-05-07T00:49:36.561Z</time>
      </trkpt>
      <trkpt lat="43.545824" lon="10.721104">
        <ele>124.670318</ele>
        <time>2026-05-07T00:49:40.609Z</time>
      </trkpt>
      <trkpt lat="43.546196" lon="10.721121">
        <ele>126.260524</ele>
        <time>2026-05-07T00:49:51.144Z</time>
      </trkpt>
      <trkpt lat="43.546247" lon="10.721123">
        <ele>126.478504</ele>
        <time>2026-05-07T00:49:52.813Z</time>
      </trkpt>
      <trkpt lat="43.546331" lon="10.721123">
        <ele>126.837386</ele>
        <time>2026-05-07T00:49:55.780Z</time>
      </trkpt>
      <trkpt lat="43.546484" lon="10.721109">
        <ele>127.492500</ele>
        <time>2026-05-07T00:50:01.514Z</time>
      </trkpt>
      <trkpt lat="43.546561" lon="10.721098">
        <ele>127.823234</ele>
        <time>2026-05-07T00:50:04.575Z</time>
      </trkpt>
      <trkpt lat="43.546802" lon="10.721026">
        <ele>128.876747</ele>
        <time>2026-05-07T00:50:14.942Z</time>
      </trkpt>
      <trkpt lat="43.547028" lon="10.721004">
        <ele>130.056476</ele>
        <time>2026-05-07T00:50:24.826Z</time>
      </trkpt>
      <trkpt lat="43.547058" lon="10.721006">
        <ele>130.265591</ele>
        <time>2026-05-07T00:50:26.146Z</time>
      </trkpt>
      <trkpt lat="43.547071" lon="10.721006">
        <ele>130.356101</ele>
        <time>2026-05-07T00:50:26.756Z</time>
      </trkpt>
      <trkpt lat="43.547114" lon="10.721010">
        <ele>130.656162</ele>
        <time>2026-05-07T00:50:28.764Z</time>
      </trkpt>
      <trkpt lat="43.547369" lon="10.721014">
        <ele>132.431675</ele>
        <time>2026-05-07T00:50:40.428Z</time>
      </trkpt>
      <trkpt lat="43.547625" lon="10.720931">
        <ele>134.262587</ele>
        <time>2026-05-07T00:50:52.852Z</time>
      </trkpt>
      <trkpt lat="43.547672" lon="10.720905">
        <ele>134.615141</ele>
        <time>2026-05-07T00:50:55.198Z</time>
      </trkpt>
      <trkpt lat="43.547728" lon="10.720876">
        <ele>135.031592</ele>
        <time>2026-05-07T00:50:58.084Z</time>
      </trkpt>
      <trkpt lat="43.547864" lon="10.720831">
        <ele>136.005320</ele>
        <time>2026-05-07T00:51:04.562Z</time>
      </trkpt>
      <trkpt lat="43.547912" lon="10.720885">
        <ele>136.436529</ele>
        <time>2026-05-07T00:51:07.331Z</time>
      </trkpt>
      <trkpt lat="43.548178" lon="10.720943">
        <ele>138.311498</ele>
        <time>2026-05-07T00:51:19.309Z</time>
      </trkpt>
      <trkpt lat="43.548379" lon="10.720963">
        <ele>139.714564</ele>
        <time>2026-05-07T00:51:27.431Z</time>
      </trkpt>
      <trkpt lat="43.548519" lon="10.720979">
        <ele>140.692631</ele>
        <time>2026-05-07T00:51:32.350Z</time>
      </trkpt>
      <trkpt lat="43.548763" lon="10.721008">
        <ele>142.008827</ele>
        <time>2026-05-07T00:51:39.932Z</time>
      </trkpt>
      <trkpt lat="43.549058" lon="10.721006">
        <ele>141.883808</ele>
        <time>2026-05-07T00:51:47.730Z</time>
      </trkpt>
      <trkpt lat="43.549022" lon="10.720555">
        <ele>141.744443</ele>
        <time>2026-05-07T00:51:55.329Z</time>
      </trkpt>
      <trkpt lat="43.549014" lon="10.720328">
        <ele>141.674637</ele>
        <time>2026-05-07T00:51:58.442Z</time>
      </trkpt>
      <trkpt lat="43.549037" lon="10.720340">
        <ele>141.664216</ele>
        <time>2026-05-07T00:51:58.922Z</time>
      </trkpt>
      <trkpt lat="43.549337" lon="10.720447">
        <ele>141.532900</ele>
        <time>2026-05-07T00:52:03.608Z</time>
      </trkpt>
      <trkpt lat="43.549387" lon="10.720502">
        <ele>141.505801</ele>
        <time>2026-05-07T00:52:04.508Z</time>
      </trkpt>
      <trkpt lat="43.549391" lon="10.720840">
        <ele>141.401969</ele>
        <time>2026-05-07T00:52:07.817Z</time>
      </trkpt>
      <trkpt lat="43.549429" lon="10.721338">
        <ele>140.823253</ele>
        <time>2026-05-07T00:52:12.312Z</time>
      </trkpt>
      <trkpt lat="43.549498" lon="10.721354">
        <ele>140.186004</ele>
        <time>2026-05-07T00:52:13.144Z</time>
      </trkpt>
      <trkpt lat="43.549572" lon="10.721390">
        <ele>139.471361</ele>
        <time>2026-05-07T00:52:14.108Z</time>
      </trkpt>
      <trkpt lat="43.549647" lon="10.721221">
        <ele>138.163257</ele>
        <time>2026-05-07T00:52:15.850Z</time>
      </trkpt>
      <trkpt lat="43.549679" lon="10.720826">
        <ele>135.539585</ele>
        <time>2026-05-07T00:52:19.226Z</time>
      </trkpt>
      <trkpt lat="43.549692" lon="10.720558">
        <ele>133.766533</ele>
        <time>2026-05-07T00:52:21.423Z</time>
      </trkpt>
      <trkpt lat="43.549691" lon="10.720280">
        <ele>131.931406</ele>
        <time>2026-05-07T00:52:23.656Z</time>
      </trkpt>
      <trkpt lat="43.549602" lon="10.720057">
        <ele>130.250937</ele>
        <time>2026-05-07T00:52:25.672Z</time>
      </trkpt>
      <trkpt lat="43.549538" lon="10.719940">
        <ele>129.283331</ele>
        <time>2026-05-07T00:52:26.820Z</time>
      </trkpt>
      <trkpt lat="43.549438" lon="10.719753">
        <ele>127.749291</ele>
        <time>2026-05-07T00:52:28.599Z</time>
      </trkpt>
      <trkpt lat="43.549535" lon="10.719666">
        <ele>126.695580</ele>
        <time>2026-05-07T00:52:29.814Z</time>
      </trkpt>
      <trkpt lat="43.549646" lon="10.719647">
        <ele>125.676869</ele>
        <time>2026-05-07T00:52:30.974Z</time>
      </trkpt>
      <trkpt lat="43.550045" lon="10.719835">
        <ele>120.926798</ele>
        <time>2026-05-07T00:52:35.318Z</time>
      </trkpt>
      <trkpt lat="43.550120" lon="10.719803">
        <ele>119.998504</ele>
        <time>2026-05-07T00:52:36.135Z</time>
      </trkpt>
      <trkpt lat="43.550164" lon="10.719739">
        <ele>119.242493</ele>
        <time>2026-05-07T00:52:36.795Z</time>
      </trkpt>
      <trkpt lat="43.550181" lon="10.719698">
        <ele>118.837675</ele>
        <time>2026-05-07T00:52:37.153Z</time>
      </trkpt>
      <trkpt lat="43.550268" lon="10.719524">
        <ele>117.026021</ele>
        <time>2026-05-07T00:52:38.747Z</time>
      </trkpt>
      <trkpt lat="43.550419" lon="10.719221">
        <ele>113.874601</ele>
        <time>2026-05-07T00:52:41.526Z</time>
      </trkpt>
      <trkpt lat="43.550583" lon="10.718919">
        <ele>110.640477</ele>
        <time>2026-05-07T00:52:44.405Z</time>
      </trkpt>
      <trkpt lat="43.550877" lon="10.718513">
        <ele>105.721855</ele>
        <time>2026-05-07T00:52:48.902Z</time>
      </trkpt>
      <trkpt lat="43.551231" lon="10.718148">
        <ele>103.198618</ele>
        <time>2026-05-07T00:52:54.134Z</time>
      </trkpt>
      <trkpt lat="43.551390" lon="10.718047">
        <ele>102.920147</ele>
        <time>2026-05-07T00:52:56.640Z</time>
      </trkpt>
      <trkpt lat="43.551737" lon="10.717973">
        <ele>102.361553</ele>
        <time>2026-05-07T00:53:02.937Z</time>
      </trkpt>
      <trkpt lat="43.552181" lon="10.717893">
        <ele>101.649200</ele>
        <time>2026-05-07T00:53:11.832Z</time>
      </trkpt>
      <trkpt lat="43.552302" lon="10.717868">
        <ele>101.454556</ele>
        <time>2026-05-07T00:53:14.416Z</time>
      </trkpt>
      <trkpt lat="43.552452" lon="10.717868">
        <ele>101.215923</ele>
        <time>2026-05-07T00:53:17.738Z</time>
      </trkpt>
      <trkpt lat="43.552786" lon="10.717976">
        <ele>100.524190</ele>
        <time>2026-05-07T00:53:24.984Z</time>
      </trkpt>
      <trkpt lat="43.553456" lon="10.717951">
        <ele>97.670849</ele>
        <time>2026-05-07T00:53:34.220Z</time>
      </trkpt>
      <trkpt lat="43.553702" lon="10.717894">
        <ele>96.608924</ele>
        <time>2026-05-07T00:53:37.273Z</time>
      </trkpt>
      <trkpt lat="43.554709" lon="10.717626">
        <ele>92.247135</ele>
        <time>2026-05-07T00:53:49.030Z</time>
      </trkpt>
      <trkpt lat="43.554771" lon="10.717682">
        <ele>91.933212</ele>
        <time>2026-05-07T00:53:50.536Z</time>
      </trkpt>
      <trkpt lat="43.555014" lon="10.717733">
        <ele>90.891933</ele>
        <time>2026-05-07T00:53:55.653Z</time>
      </trkpt>
      <trkpt lat="43.555255" lon="10.717847">
        <ele>89.812641</ele>
        <time>2026-05-07T00:54:01.067Z</time>
      </trkpt>
      <trkpt lat="43.556314" lon="10.718435">
        <ele>85.343704</ele>
        <time>2026-05-07T00:54:28.782Z</time>
      </trkpt>
      <trkpt lat="43.556435" lon="10.718518">
        <ele>85.188320</ele>
        <time>2026-05-07T00:54:32.588Z</time>
      </trkpt>
      <trkpt lat="43.556718" lon="10.718545">
        <ele>84.862115</ele>
        <time>2026-05-07T00:54:40.512Z</time>
      </trkpt>
      <trkpt lat="43.557754" lon="10.718470">
        <ele>83.669158</ele>
        <time>2026-05-07T00:55:09.493Z</time>
      </trkpt>
      <trkpt lat="43.557789" lon="10.718472">
        <ele>83.628876</ele>
        <time>2026-05-07T00:55:10.459Z</time>
      </trkpt>
      <trkpt lat="43.558015" lon="10.718488">
        <ele>83.262926</ele>
        <time>2026-05-07T00:55:16.334Z</time>
      </trkpt>
      <trkpt lat="43.558594" lon="10.718618">
        <ele>80.947868</ele>
        <time>2026-05-07T00:55:31.058Z</time>
      </trkpt>
      <trkpt lat="43.558700" lon="10.718674">
        <ele>80.499933</ele>
        <time>2026-05-07T00:55:33.799Z</time>
      </trkpt>
      <trkpt lat="43.558808" lon="10.719009">
        <ele>79.451341</ele>
        <time>2026-05-07T00:55:40.152Z</time>
      </trkpt>
      <trkpt lat="43.558835" lon="10.719265">
        <ele>78.711498</ele>
        <time>2026-05-07T00:55:44.501Z</time>
      </trkpt>
      <trkpt lat="43.558895" lon="10.719378">
        <ele>78.310866</ele>
        <time>2026-05-07T00:55:46.835Z</time>
      </trkpt>
      <trkpt lat="43.559867" lon="10.719589">
        <ele>71.667803</ele>
        <time>2026-05-07T00:56:07.210Z</time>
      </trkpt>
      <trkpt lat="43.560173" lon="10.719732">
        <ele>68.527137</ele>
        <time>2026-05-07T00:56:13.551Z</time>
      </trkpt>
      <trkpt lat="43.561163" lon="10.720311">
        <ele>58.359792</ele>
        <time>2026-05-07T00:56:34.117Z</time>
      </trkpt>
      <trkpt lat="43.561621" lon="10.720797">
        <ele>54.868500</ele>
        <time>2026-05-07T00:56:45.598Z</time>
      </trkpt>
      <trkpt lat="43.561885" lon="10.720598">
        <ele>53.050684</ele>
        <time>2026-05-07T00:56:49.512Z</time>
      </trkpt>
      <trkpt lat="43.562182" lon="10.720249">
        <ele>50.693427</ele>
        <time>2026-05-07T00:56:54.869Z</time>
      </trkpt>
      <trkpt lat="43.566599" lon="10.722687">
        <ele>43.603412</ele>
        <time>2026-05-07T00:58:17.451Z</time>
      </trkpt>
      <trkpt lat="43.568741" lon="10.723464">
        <ele>42.329873</ele>
        <time>2026-05-07T00:58:57.872Z</time>
      </trkpt>
      <trkpt lat="43.568977" lon="10.723461">
        <ele>42.229277</ele>
        <time>2026-05-07T00:59:02.307Z</time>
      </trkpt>
      <trkpt lat="43.570123" lon="10.722989">
        <ele>41.826468</ele>
        <time>2026-05-07T00:59:25.171Z</time>
      </trkpt>
      <trkpt lat="43.571157" lon="10.722691">
        <ele>41.527768</ele>
        <time>2026-05-07T00:59:45.064Z</time>
      </trkpt>
      <trkpt lat="43.571443" lon="10.722357">
        <ele>41.479939</ele>
        <time>2026-05-07T00:59:52.131Z</time>
      </trkpt>
      <trkpt lat="43.571642" lon="10.722014">
        <ele>41.439295</ele>
        <time>2026-05-07T00:59:58.198Z</time>
      </trkpt>
      <trkpt lat="43.571118" lon="10.719130">
        <ele>41.080759</ele>
        <time>2026-05-07T01:00:40.660Z</time>
      </trkpt>
      <trkpt lat="43.571120" lon="10.719033">
        <ele>41.066260</ele>
        <time>2026-05-07T01:00:42.008Z</time>
      </trkpt>
      <trkpt lat="43.571132" lon="10.718481">
        <ele>40.983746</ele>
        <time>2026-05-07T01:00:49.503Z</time>
      </trkpt>
      <trkpt lat="43.573172" lon="10.718053">
        <ele>39.957595</ele>
        <time>2026-05-07T01:01:22.890Z</time>
      </trkpt>
      <trkpt lat="43.573649" lon="10.717957">
        <ele>39.873527</ele>
        <time>2026-05-07T01:01:31.069Z</time>
      </trkpt>
      <trkpt lat="43.574325" lon="10.717746">
        <ele>39.752825</ele>
        <time>2026-05-07T01:01:43.473Z</time>
      </trkpt>
      <trkpt lat="43.574887" lon="10.717517">
        <ele>39.650774</ele>
        <time>2026-05-07T01:01:53.843Z</time>
      </trkpt>
      <trkpt lat="43.576166" lon="10.717112">
        <ele>39.367104</ele>
        <time>2026-05-07T01:02:16.106Z</time>
      </trkpt>
      <trkpt lat="43.579048" lon="10.716774">
        <ele>38.681176</ele>
        <time>2026-05-07T01:03:05.357Z</time>
      </trkpt>
      <trkpt lat="43.580380" lon="10.716590">
        <ele>38.490531</ele>
        <time>2026-05-07T01:03:28.859Z</time>
      </trkpt>
      <trkpt lat="43.580428" lon="10.713915">
        <ele>38.215079</ele>
        <time>2026-05-07T01:04:02.803Z</time>
      </trkpt>
      <trkpt lat="43.582573" lon="10.713499">
        <ele>37.403780</ele>
        <time>2026-05-07T01:05:04.509Z</time>
      </trkpt>
      <trkpt lat="43.583649" lon="10.713287">
        <ele>36.843503</ele>
        <time>2026-05-07T01:05:34.902Z</time>
      </trkpt>
      <trkpt lat="43.584995" lon="10.713022">
        <ele>36.219598</ele>
        <time>2026-05-07T01:06:13.517Z</time>
      </trkpt>
      <trkpt lat="43.585182" lon="10.712934">
        <ele>36.129779</ele>
        <time>2026-05-07T01:06:19.304Z</time>
      </trkpt>
      <trkpt lat="43.585756" lon="10.712345">
        <ele>35.684518</ele>
        <time>2026-05-07T01:06:39.516Z</time>
      </trkpt>
      <trkpt lat="43.586152" lon="10.711956">
        <ele>35.309371</ele>
        <time>2026-05-07T01:06:52.416Z</time>
      </trkpt>
      <trkpt lat="43.586343" lon="10.711816">
        <ele>35.142450</ele>
        <time>2026-05-07T01:06:58.172Z</time>
      </trkpt>
      <trkpt lat="43.586557" lon="10.711834">
        <ele>34.976961</ele>
        <time>2026-05-07T01:07:03.997Z</time>
      </trkpt>
      <trkpt lat="43.586669" lon="10.711904">
        <ele>34.882063</ele>
        <time>2026-05-07T01:07:07.387Z</time>
      </trkpt>
      <trkpt lat="43.586801" lon="10.712059">
        <ele>34.748305</ele>
        <time>2026-05-07T01:07:12.221Z</time>
      </trkpt>
      <trkpt lat="43.586943" lon="10.712347">
        <ele>34.621274</ele>
        <time>2026-05-07T01:07:19.274Z</time>
      </trkpt>
      <trkpt lat="43.587114" lon="10.712704">
        <ele>34.846585</ele>
        <time>2026-05-07T01:07:27.973Z</time>
      </trkpt>
      <trkpt lat="43.587241" lon="10.713014">
        <ele>35.034072</ele>
        <time>2026-05-07T01:07:35.686Z</time>
      </trkpt>
      <trkpt lat="43.587275" lon="10.713247">
        <ele>35.159194</ele>
        <time>2026-05-07T01:07:41.237Z</time>
      </trkpt>
      <trkpt lat="43.587179" lon="10.713478">
        <ele>35.299393</ele>
        <time>2026-05-07T01:07:45.697Z</time>
      </trkpt>
      <trkpt lat="43.586894" lon="10.713912">
        <ele>35.607781</ele>
        <time>2026-05-07T01:07:56.194Z</time>
      </trkpt>
      <trkpt lat="43.587166" lon="10.714722">
        <ele>36.041806</ele>
        <time>2026-05-07T01:08:17.927Z</time>
      </trkpt>
      <trkpt lat="43.587155" lon="10.714775">
        <ele>36.065097</ele>
        <time>2026-05-07T01:08:19.188Z</time>
      </trkpt>
      <trkpt lat="43.587124" lon="10.714924">
        <ele>36.130586</ele>
        <time>2026-05-07T01:08:22.762Z</time>
      </trkpt>
      <trkpt lat="43.587070" lon="10.714999">
        <ele>36.175260</ele>
        <time>2026-05-07T01:08:25.193Z</time>
      </trkpt>
      <trkpt lat="43.586927" lon="10.715092">
        <ele>36.267451</ele>
        <time>2026-05-07T01:08:30.251Z</time>
      </trkpt>
      <trkpt lat="43.586874" lon="10.715161">
        <ele>36.309938</ele>
        <time>2026-05-07T01:08:32.563Z</time>
      </trkpt>
      <trkpt lat="43.586774" lon="10.715522">
        <ele>36.473213</ele>
        <time>2026-05-07T01:08:41.452Z</time>
      </trkpt>
      <trkpt lat="43.586868" lon="10.715704">
        <ele>36.567643</ele>
        <time>2026-05-07T01:08:44.655Z</time>
      </trkpt>
      <trkpt lat="43.587068" lon="10.716466">
        <ele>36.910029</ele>
        <time>2026-05-07T01:08:55.665Z</time>
      </trkpt>
      <trkpt lat="43.587162" lon="10.716710">
        <ele>36.994777</ele>
        <time>2026-05-07T01:08:59.352Z</time>
      </trkpt>
      <trkpt lat="43.587478" lon="10.717075">
        <ele>37.141436</ele>
        <time>2026-05-07T01:09:07.323Z</time>
      </trkpt>
      <trkpt lat="43.587541" lon="10.717188">
        <ele>37.178202</ele>
        <time>2026-05-07T01:09:09.362Z</time>
      </trkpt>
      <trkpt lat="43.587628" lon="10.717447">
        <ele>37.251812</ele>
        <time>2026-05-07T01:09:13.465Z</time>
      </trkpt>
      <trkpt lat="43.587917" lon="10.718376">
        <ele>37.512493</ele>
        <time>2026-05-07T01:09:28.040Z</time>
      </trkpt>
      <trkpt lat="43.588037" lon="10.719392">
        <ele>37.900725</ele>
        <time>2026-05-07T01:09:42.862Z</time>
      </trkpt>
      <trkpt lat="43.588175" lon="10.719600">
        <ele>38.019729</ele>
        <time>2026-05-07T01:09:46.965Z</time>
      </trkpt>
      <trkpt lat="43.589031" lon="10.720146">
        <ele>38.568969</ele>
        <time>2026-05-07T01:10:06.278Z</time>
      </trkpt>
      <trkpt lat="43.589054" lon="10.720141">
        <ele>38.582531</ele>
        <time>2026-05-07T01:10:06.748Z</time>
      </trkpt>
      <trkpt lat="43.590473" lon="10.719775">
        <ele>39.681006</ele>
        <time>2026-05-07T01:10:36.577Z</time>
      </trkpt>
      <trkpt lat="43.591253" lon="10.719367">
        <ele>40.121665</ele>
        <time>2026-05-07T01:10:53.050Z</time>
      </trkpt>
      <trkpt lat="43.591324" lon="10.719325">
        <ele>40.141334</ele>
        <time>2026-05-07T01:10:54.525Z</time>
      </trkpt>
      <trkpt lat="43.592133" lon="10.718857">
        <ele>40.364690</ele>
        <time>2026-05-07T01:11:10.883Z</time>
      </trkpt>
      <trkpt lat="43.592235" lon="10.718791">
        <ele>40.393374</ele>
        <time>2026-05-07T01:11:12.882Z</time>
      </trkpt>
      <trkpt lat="43.592422" lon="10.718689">
        <ele>40.444573</ele>
        <time>2026-05-07T01:11:16.387Z</time>
      </trkpt>
      <trkpt lat="43.592537" lon="10.718625">
        <ele>40.476146</ele>
        <time>2026-05-07T01:11:18.522Z</time>
      </trkpt>
      <trkpt lat="43.592959" lon="10.718390">
        <ele>40.352849</ele>
        <time>2026-05-07T01:11:26.400Z</time>
      </trkpt>
      <trkpt lat="43.592987" lon="10.718373">
        <ele>40.344071</ele>
        <time>2026-05-07T01:11:26.934Z</time>
      </trkpt>
      <trkpt lat="43.593488" lon="10.718104">
        <ele>40.189804</ele>
        <time>2026-05-07T01:11:36.276Z</time>
      </trkpt>
      <trkpt lat="43.593721" lon="10.718042">
        <ele>40.121706</ele>
        <time>2026-05-07T01:11:40.322Z</time>
      </trkpt>
      <trkpt lat="43.594403" lon="10.718080">
        <ele>39.920832</ele>
        <time>2026-05-07T01:11:51.408Z</time>
      </trkpt>
      <trkpt lat="43.594685" lon="10.718035">
        <ele>39.828537</ele>
        <time>2026-05-07T01:11:55.905Z</time>
      </trkpt>
      <trkpt lat="43.594848" lon="10.717932">
        <ele>39.770256</ele>
        <time>2026-05-07T01:11:58.800Z</time>
      </trkpt>
      <trkpt lat="43.595233" lon="10.717551">
        <ele>39.616254</ele>
        <time>2026-05-07T01:12:06.716Z</time>
      </trkpt>
      <trkpt lat="43.595565" lon="10.717210">
        <ele>39.481725</ele>
        <time>2026-05-07T01:12:13.838Z</time>
      </trkpt>
      <trkpt lat="43.596009" lon="10.716759">
        <ele>39.453537</ele>
        <time>2026-05-07T01:12:23.617Z</time>
      </trkpt>
      <trkpt lat="43.596131" lon="10.716635">
        <ele>39.502033</ele>
        <time>2026-05-07T01:12:26.440Z</time>
      </trkpt>
      <trkpt lat="43.596724" lon="10.715875">
        <ele>39.761040</ele>
        <time>2026-05-07T01:12:42.556Z</time>
      </trkpt>
      <trkpt lat="43.596884" lon="10.715721">
        <ele>39.823477</ele>
        <time>2026-05-07T01:12:46.220Z</time>
      </trkpt>
      <trkpt lat="43.597208" lon="10.715503">
        <ele>39.938858</ele>
        <time>2026-05-07T01:12:52.914Z</time>
      </trkpt>
      <trkpt lat="43.597281" lon="10.715456">
        <ele>39.942160</ele>
        <time>2026-05-07T01:12:54.377Z</time>
      </trkpt>
      <trkpt lat="43.597298" lon="10.715443">
        <ele>39.934710</ele>
        <time>2026-05-07T01:12:54.743Z</time>
      </trkpt>
      <trkpt lat="43.597473" lon="10.715303">
        <ele>39.857178</ele>
        <time>2026-05-07T01:12:58.405Z</time>
      </trkpt>
      <trkpt lat="43.597735" lon="10.714979">
        <ele>39.722351</ele>
        <time>2026-05-07T01:13:04.610Z</time>
      </trkpt>
      <trkpt lat="43.598035" lon="10.714575">
        <ele>39.561710</ele>
        <time>2026-05-07T01:13:11.713Z</time>
      </trkpt>
      <trkpt lat="43.598217" lon="10.714247">
        <ele>39.446995</ele>
        <time>2026-05-07T01:13:16.491Z</time>
      </trkpt>
      <trkpt lat="43.599284" lon="10.712245">
        <ele>38.347248</ele>
        <time>2026-05-07T01:13:44.640Z</time>
      </trkpt>
      <trkpt lat="43.599992" lon="10.710941">
        <ele>38.149282</ele>
        <time>2026-05-07T01:14:04.667Z</time>
      </trkpt>
      <trkpt lat="43.600741" lon="10.710000">
        <ele>38.335458</ele>
        <time>2026-05-07T01:14:24.542Z</time>
      </trkpt>
      <trkpt lat="43.601108" lon="10.709538">
        <ele>38.377757</ele>
        <time>2026-05-07T01:14:34.235Z</time>
      </trkpt>
      <trkpt lat="43.601579" lon="10.708962">
        <ele>38.419548</ele>
        <time>2026-05-07T01:14:45.935Z</time>
      </trkpt>
      <trkpt lat="43.601817" lon="10.708671">
        <ele>38.440664</ele>
        <time>2026-05-07T01:14:51.508Z</time>
      </trkpt>
      <trkpt lat="43.601905" lon="10.708552">
        <ele>38.448845</ele>
        <time>2026-05-07T01:14:53.588Z</time>
      </trkpt>
      <trkpt lat="43.602326" lon="10.708012">
        <ele>38.390555</ele>
        <time>2026-05-07T01:15:02.895Z</time>
      </trkpt>
      <trkpt lat="43.602665" lon="10.707566">
        <ele>38.250234</ele>
        <time>2026-05-07T01:15:10.353Z</time>
      </trkpt>
      <trkpt lat="43.602920" lon="10.707247">
        <ele>38.147119</ele>
        <time>2026-05-07T01:15:16.022Z</time>
      </trkpt>
      <trkpt lat="43.603041" lon="10.707136">
        <ele>38.103584</ele>
        <time>2026-05-07T01:15:18.462Z</time>
      </trkpt>
      <trkpt lat="43.603256" lon="10.706982">
        <ele>38.030999</ele>
        <time>2026-05-07T01:15:22.745Z</time>
      </trkpt>
      <trkpt lat="43.603382" lon="10.706898">
        <ele>37.989068</ele>
        <time>2026-05-07T01:15:25.457Z</time>
      </trkpt>
      <trkpt lat="43.603470" lon="10.706832">
        <ele>37.959057</ele>
        <time>2026-05-07T01:15:27.369Z</time>
      </trkpt>
      <trkpt lat="43.603552" lon="10.706771">
        <ele>37.931143</ele>
        <time>2026-05-07T01:15:29.154Z</time>
      </trkpt>
      <trkpt lat="43.603656" lon="10.706685">
        <ele>38.005670</ele>
        <time>2026-05-07T01:15:31.315Z</time>
      </trkpt>
      <trkpt lat="43.603982" lon="10.706301">
        <ele>38.276452</ele>
        <time>2026-05-07T01:15:39.135Z</time>
      </trkpt>
      <trkpt lat="43.604097" lon="10.706082">
        <ele>38.400248</ele>
        <time>2026-05-07T01:15:42.921Z</time>
      </trkpt>
      <trkpt lat="43.604102" lon="10.705834">
        <ele>38.513780</ele>
        <time>2026-05-07T01:15:46.475Z</time>
      </trkpt>
      <trkpt lat="43.603994" lon="10.705405">
        <ele>38.721623</ele>
        <time>2026-05-07T01:15:53.219Z</time>
      </trkpt>
      <trkpt lat="43.603882" lon="10.704927">
        <ele>38.951530</ele>
        <time>2026-05-07T01:16:00.946Z</time>
      </trkpt>
      <trkpt lat="43.603896" lon="10.704531">
        <ele>39.128331</ele>
        <time>2026-05-07T01:16:07.182Z</time>
      </trkpt>
      <trkpt lat="43.603997" lon="10.704033">
        <ele>39.348339</ele>
        <time>2026-05-07T01:16:14.727Z</time>
      </trkpt>
      <trkpt lat="43.604041" lon="10.703886">
        <ele>39.416007</ele>
        <time>2026-05-07T01:16:17.178Z</time>
      </trkpt>
      <trkpt lat="43.604114" lon="10.703717">
        <ele>39.499721</ele>
        <time>2026-05-07T01:16:20.305Z</time>
      </trkpt>
      <trkpt lat="43.604191" lon="10.703619">
        <ele>39.561239</ele>
        <time>2026-05-07T01:16:22.588Z</time>
      </trkpt>
      <trkpt lat="43.604274" lon="10.703548">
        <ele>39.618597</ele>
        <time>2026-05-07T01:16:24.688Z</time>
      </trkpt>
      <trkpt lat="43.604500" lon="10.703366">
        <ele>39.772295</ele>
        <time>2026-05-07T01:16:30.084Z</time>
      </trkpt>
      <trkpt lat="43.604550" lon="10.703254">
        <ele>39.828268</ele>
        <time>2026-05-07T01:16:31.940Z</time>
      </trkpt>
      <trkpt lat="43.604605" lon="10.703131">
        <ele>39.889766</ele>
        <time>2026-05-07T01:16:33.921Z</time>
      </trkpt>
      <trkpt lat="43.604677" lon="10.702869">
        <ele>40.008980</ele>
        <time>2026-05-07T01:16:37.595Z</time>
      </trkpt>
      <trkpt lat="43.604690" lon="10.702813">
        <ele>40.033997</ele>
        <time>2026-05-07T01:16:38.329Z</time>
      </trkpt>
      <trkpt lat="43.604778" lon="10.702458">
        <ele>40.126876</ele>
        <time>2026-05-07T01:16:42.820Z</time>
      </trkpt>
      <trkpt lat="43.604791" lon="10.702395">
        <ele>40.128096</ele>
        <time>2026-05-07T01:16:43.580Z</time>
      </trkpt>
      <trkpt lat="43.604927" lon="10.701724">
        <ele>40.141067</ele>
        <time>2026-05-07T01:16:51.339Z</time>
      </trkpt>
      <trkpt lat="43.604946" lon="10.701636">
        <ele>40.142776</ele>
        <time>2026-05-07T01:16:52.390Z</time>
      </trkpt>
      <trkpt lat="43.605045" lon="10.701273">
        <ele>40.149997</ele>
        <time>2026-05-07T01:16:56.911Z</time>
      </trkpt>
      <trkpt lat="43.605117" lon="10.701106">
        <ele>40.153615</ele>
        <time>2026-05-07T01:16:59.276Z</time>
      </trkpt>
      <trkpt lat="43.605352" lon="10.700560">
        <ele>40.165439</ele>
        <time>2026-05-07T01:17:07.688Z</time>
      </trkpt>
      <trkpt lat="43.605515" lon="10.700679">
        <ele>40.195832</ele>
        <time>2026-05-07T01:17:11.700Z</time>
      </trkpt>
      <trkpt lat="43.605175" lon="10.701932">
        <ele>45.656404</ele>
        <time>2026-05-07T01:17:37.651Z</time>
      </trkpt>
      <trkpt lat="43.605140" lon="10.702105">
        <ele>46.389436</ele>
        <time>2026-05-07T01:17:42.373Z</time>
      </trkpt>
      <trkpt lat="43.605086" lon="10.702378">
        <ele>47.544338</ele>
        <time>2026-05-07T01:17:49.078Z</time>
      </trkpt>
      <trkpt lat="43.605052" lon="10.702543">
        <ele>48.244419</ele>
        <time>2026-05-07T01:17:55.472Z</time>
      </trkpt>
      <trkpt lat="43.605011" lon="10.702739">
        <ele>49.076981</ele>
        <time>2026-05-07T01:18:02.997Z</time>
      </trkpt>
      <trkpt lat="43.604951" lon="10.702903">
        <ele>49.826822</ele>
        <time>2026-05-07T01:18:10.474Z</time>
      </trkpt>
      <trkpt lat="43.605013" lon="10.702920">
        <ele>50.183058</ele>
        <time>2026-05-07T01:18:14.266Z</time>
      </trkpt>
      <trkpt lat="43.605013" lon="10.702920">
        <ele>50.183058</ele>
        <time>2026-05-07T01:18:14.372Z</time>
      </trkpt>
      <trkpt lat="43.605013" lon="10.702920">
        <ele>50.183058</ele>
        <time>2026-05-07T01:18:14.372Z</time>
      </trkpt>
      <trkpt lat="43.605600" lon="10.703144">
        <ele>59.412591</ele>
        <time>2026-05-07T01:18:30.216Z</time>
      </trkpt>
      <trkpt lat="43.605600" lon="10.703144">
        <ele>59.412591</ele>
        <time>2026-05-07T01:18:30.313Z</time>
      </trkpt>
      <trkpt lat="43.605600" lon="10.703144">
        <ele>59.412591</ele>
        <time>2026-05-07T01:18:30.313Z</time>
      </trkpt>
      <trkpt lat="43.606062" lon="10.703116">
        <ele>66.585637</ele>
        <time>2026-05-07T01:18:42.455Z</time>
      </trkpt>
      <trkpt lat="43.606524" lon="10.703089">
        <ele>73.758200</ele>
        <time>2026-05-07T01:18:54.567Z</time>
      </trkpt>
      <trkpt lat="43.606524" lon="10.703089">
        <ele>73.758200</ele>
        <time>2026-05-07T01:18:54.590Z</time>
      </trkpt>
      <trkpt lat="43.606524" lon="10.703089">
        <ele>73.758200</ele>
        <time>2026-05-07T01:18:54.590Z</time>
      </trkpt>
      <trkpt lat="43.606929" lon="10.703600">
        <ele>81.199223</ele>
        <time>2026-05-07T01:19:08.909Z</time>
      </trkpt>
      <trkpt lat="43.606939" lon="10.703829">
        <ele>83.098347</ele>
        <time>2026-05-07T01:19:20.791Z</time>
      </trkpt>
      <trkpt lat="43.606911" lon="10.704274">
        <ele>86.795975</ele>
        <time>2026-05-07T01:19:42.171Z</time>
      </trkpt>
      <trkpt lat="43.606892" lon="10.704322">
        <ele>87.248820</ele>
        <time>2026-05-07T01:19:44.367Z</time>
      </trkpt>
      <trkpt lat="43.606889" lon="10.704345">
        <ele>87.442280</ele>
        <time>2026-05-07T01:19:45.342Z</time>
      </trkpt>
      <trkpt lat="43.606922" lon="10.704327">
        <ele>87.847910</ele>
        <time>2026-05-07T01:19:47.383Z</time>
      </trkpt>
      <trkpt lat="43.607330" lon="10.704295">
        <ele>92.519851</ele>
        <time>2026-05-07T01:20:08.547Z</time>
      </trkpt>
      <trkpt lat="43.607591" lon="10.704487">
        <ele>95.900612</ele>
        <time>2026-05-07T01:20:22.576Z</time>
      </trkpt>
      <trkpt lat="43.607685" lon="10.704583">
        <ele>97.237172</ele>
        <time>2026-05-07T01:20:28.208Z</time>
      </trkpt>
      <trkpt lat="43.607782" lon="10.704675">
        <ele>98.582442</ele>
        <time>2026-05-07T01:20:33.859Z</time>
      </trkpt>
      <trkpt lat="43.608150" lon="10.704876">
        <ele>102.250288</ele>
        <time>2026-05-07T01:20:53.399Z</time>
      </trkpt>
      <trkpt lat="43.608632" lon="10.705032">
        <ele>106.792747</ele>
        <time>2026-05-07T01:21:16.814Z</time>
      </trkpt>
      <trkpt lat="43.608743" lon="10.705110">
        <ele>107.935494</ele>
        <time>2026-05-07T01:21:22.756Z</time>
      </trkpt>
      <trkpt lat="43.609093" lon="10.705744">
        <ele>113.232235</ele>
        <time>2026-05-07T01:21:50.147Z</time>
      </trkpt>
      <trkpt lat="43.609263" lon="10.705904">
        <ele>115.119850</ele>
        <time>2026-05-07T01:21:59.764Z</time>
      </trkpt>
      <trkpt lat="43.609704" lon="10.705978">
        <ele>119.235442</ele>
        <time>2026-05-07T01:22:21.266Z</time>
      </trkpt>
      <trkpt lat="43.610044" lon="10.706212">
        <ele>122.756030</ele>
        <time>2026-05-07T01:22:41.931Z</time>
      </trkpt>
      <trkpt lat="43.610479" lon="10.706298">
        <ele>126.828584</ele>
        <time>2026-05-07T01:23:03.432Z</time>
      </trkpt>
      <trkpt lat="43.610697" lon="10.706221">
        <ele>128.913971</ele>
        <time>2026-05-07T01:23:14.045Z</time>
      </trkpt>
      <trkpt lat="43.610942" lon="10.706008">
        <ele>131.596958</ele>
        <time>2026-05-07T01:23:27.311Z</time>
      </trkpt>
      <trkpt lat="43.610999" lon="10.705971">
        <ele>132.140452</ele>
        <time>2026-05-07T01:23:30.076Z</time>
      </trkpt>
      <trkpt lat="43.611166" lon="10.705877">
        <ele>133.530755</ele>
        <time>2026-05-07T01:23:37.949Z</time>
      </trkpt>
      <trkpt lat="43.611356" lon="10.705862">
        <ele>134.997953</ele>
        <time>2026-05-07T01:23:46.195Z</time>
      </trkpt>
      <trkpt lat="43.611736" lon="10.705964">
        <ele>137.982379</ele>
        <time>2026-05-07T01:24:02.354Z</time>
      </trkpt>
      <trkpt lat="43.612055" lon="10.706110">
        <ele>140.573224</ele>
        <time>2026-05-07T01:24:15.041Z</time>
      </trkpt>
      <trkpt lat="43.612444" lon="10.706333">
        <ele>143.820287</ele>
        <time>2026-05-07T01:24:34.164Z</time>
      </trkpt>
      <trkpt lat="43.612546" lon="10.706423">
        <ele>144.753426</ele>
        <time>2026-05-07T01:24:40.303Z</time>
      </trkpt>
      <trkpt lat="43.612805" lon="10.706899">
        <ele>146.103399</ele>
        <time>2026-05-07T01:25:00.753Z</time>
      </trkpt>
      <trkpt lat="43.612907" lon="10.707241">
        <ele>146.372020</ele>
        <time>2026-05-07T01:25:11.713Z</time>
      </trkpt>
      <trkpt lat="43.612927" lon="10.707448">
        <ele>146.523684</ele>
        <time>2026-05-07T01:25:16.827Z</time>
      </trkpt>
      <trkpt lat="43.612919" lon="10.707683">
        <ele>146.694538</ele>
        <time>2026-05-07T01:25:21.639Z</time>
      </trkpt>
      <trkpt lat="43.612958" lon="10.707822">
        <ele>146.802800</ele>
        <time>2026-05-07T01:25:24.210Z</time>
      </trkpt>
      <trkpt lat="43.613172" lon="10.708154">
        <ele>147.125618</ele>
        <time>2026-05-07T01:25:29.533Z</time>
      </trkpt>
      <trkpt lat="43.613269" lon="10.708305">
        <ele>147.272221</ele>
        <time>2026-05-07T01:25:31.505Z</time>
      </trkpt>
      <trkpt lat="43.613668" lon="10.708992">
        <ele>145.534071</ele>
        <time>2026-05-07T01:25:38.988Z</time>
      </trkpt>
      <trkpt lat="43.613837" lon="10.709528">
        <ele>142.587565</ele>
        <time>2026-05-07T01:25:43.732Z</time>
      </trkpt>
      <trkpt lat="43.614325" lon="10.710866">
        <ele>135.106478</ele>
        <time>2026-05-07T01:25:56.649Z</time>
      </trkpt>
      <trkpt lat="43.614463" lon="10.711136">
        <ele>135.562805</ele>
        <time>2026-05-07T01:26:00.613Z</time>
      </trkpt>
      <trkpt lat="43.614770" lon="10.711578">
        <ele>136.408502</ele>
        <time>2026-05-07T01:26:11.143Z</time>
      </trkpt>
      <trkpt lat="43.614970" lon="10.711898">
        <ele>136.992183</ele>
        <time>2026-05-07T01:26:20.453Z</time>
      </trkpt>
      <trkpt lat="43.615266" lon="10.712456">
        <ele>137.947279</ele>
        <time>2026-05-07T01:26:38.671Z</time>
      </trkpt>
      <trkpt lat="43.615855" lon="10.713318">
        <ele>138.699256</ele>
        <time>2026-05-07T01:27:04.746Z</time>
      </trkpt>
      <trkpt lat="43.616064" lon="10.713730">
        <ele>138.815428</ele>
        <time>2026-05-07T01:27:11.594Z</time>
      </trkpt>
      <trkpt lat="43.616333" lon="10.714379">
        <ele>138.988122</ele>
        <time>2026-05-07T01:27:20.116Z</time>
      </trkpt>
      <trkpt lat="43.616492" lon="10.714700">
        <ele>139.077937</ele>
        <time>2026-05-07T01:27:24.145Z</time>
      </trkpt>
      <trkpt lat="43.616651" lon="10.714956">
        <ele>138.457037</ele>
        <time>2026-05-07T01:27:27.492Z</time>
      </trkpt>
      <trkpt lat="43.616978" lon="10.715394">
        <ele>136.924771</ele>
        <time>2026-05-07T01:27:33.630Z</time>
      </trkpt>
      <trkpt lat="43.617037" lon="10.715606">
        <ele>136.371640</ele>
        <time>2026-05-07T01:27:35.886Z</time>
      </trkpt>
      <trkpt lat="43.617049" lon="10.715909">
        <ele>135.632621</ele>
        <time>2026-05-07T01:27:38.910Z</time>
      </trkpt>
      <trkpt lat="43.616946" lon="10.716420">
        <ele>134.340815</ele>
        <time>2026-05-07T01:27:44.197Z</time>
      </trkpt>
      <trkpt lat="43.616647" lon="10.717355">
        <ele>131.969963</ele>
        <time>2026-05-07T01:27:53.841Z</time>
      </trkpt>
      <trkpt lat="43.616582" lon="10.718186">
        <ele>130.136474</ele>
        <time>2026-05-07T01:28:01.519Z</time>
      </trkpt>
      <trkpt lat="43.616417" lon="10.718569">
        <ele>129.158826</ele>
        <time>2026-05-07T01:28:05.777Z</time>
      </trkpt>
      <trkpt lat="43.616357" lon="10.718797">
        <ele>128.626668</ele>
        <time>2026-05-07T01:28:08.250Z</time>
      </trkpt>
      <trkpt lat="43.616381" lon="10.719257">
        <ele>127.614991</ele>
        <time>2026-05-07T01:28:13.808Z</time>
      </trkpt>
      <trkpt lat="43.616436" lon="10.719739">
        <ele>129.048880</ele>
        <time>2026-05-07T01:28:21.949Z</time>
      </trkpt>
      <trkpt lat="43.616501" lon="10.719996">
        <ele>129.875429</ele>
        <time>2026-05-07T01:28:27.546Z</time>
      </trkpt>
      <trkpt lat="43.616564" lon="10.720104">
        <ele>130.296536</ele>
        <time>2026-05-07T01:28:30.729Z</time>
      </trkpt>
      <trkpt lat="43.616611" lon="10.720136">
        <ele>130.516289</ele>
        <time>2026-05-07T01:28:32.444Z</time>
      </trkpt>
      <trkpt lat="43.616887" lon="10.720130">
        <ele>131.673922</ele>
        <time>2026-05-07T01:28:42.806Z</time>
      </trkpt>
      <trkpt lat="43.618900" lon="10.719963">
        <ele>140.432375</ele>
        <time>2026-05-07T01:29:59.603Z</time>
      </trkpt>
      <trkpt lat="43.618953" lon="10.719487">
        <ele>141.982720</ele>
        <time>2026-05-07T01:30:07.691Z</time>
      </trkpt>
      <trkpt lat="43.619018" lon="10.719257">
        <ele>142.777546</ele>
        <time>2026-05-07T01:30:11.549Z</time>
      </trkpt>
      <trkpt lat="43.619426" lon="10.718327">
        <ele>145.071378</ele>
        <time>2026-05-07T01:30:28.433Z</time>
      </trkpt>
      <trkpt lat="43.619542" lon="10.718138">
        <ele>145.562654</ele>
        <time>2026-05-07T01:30:33.034Z</time>
      </trkpt>
      <trkpt lat="43.619698" lon="10.717979">
        <ele>146.093616</ele>
        <time>2026-05-07T01:30:38.483Z</time>
      </trkpt>
      <trkpt lat="43.619979" lon="10.717790">
        <ele>146.949590</ele>
        <time>2026-05-07T01:30:47.990Z</time>
      </trkpt>
      <trkpt lat="43.620350" lon="10.717655">
        <ele>148.000333</ele>
        <time>2026-05-07T01:31:00.492Z</time>
      </trkpt>
      <trkpt lat="43.620496" lon="10.717637">
        <ele>148.283077</ele>
        <time>2026-05-07T01:31:05.280Z</time>
      </trkpt>
      <trkpt lat="43.621189" lon="10.717679">
        <ele>149.518625</ele>
        <time>2026-05-07T01:31:24.884Z</time>
      </trkpt>
      <trkpt lat="43.621388" lon="10.717653">
        <ele>149.874662</ele>
        <time>2026-05-07T01:31:29.614Z</time>
      </trkpt>
      <trkpt lat="43.621843" lon="10.717476">
        <ele>150.716623</ele>
        <time>2026-05-07T01:31:39.219Z</time>
      </trkpt>
      <trkpt lat="43.622000" lon="10.717062">
        <ele>151.192170</ele>
        <time>2026-05-07T01:31:44.849Z</time>
      </trkpt>
      <trkpt lat="43.622095" lon="10.716731">
        <ele>150.555853</ele>
        <time>2026-05-07T01:31:48.646Z</time>
      </trkpt>
      <trkpt lat="43.622142" lon="10.715971">
        <ele>149.192730</ele>
        <time>2026-05-07T01:31:56.311Z</time>
      </trkpt>
      <trkpt lat="43.622434" lon="10.714824">
        <ele>147.019904</ele>
        <time>2026-05-07T01:32:07.886Z</time>
      </trkpt>
      <trkpt lat="43.622439" lon="10.713481">
        <ele>143.112285</ele>
        <time>2026-05-07T01:32:19.929Z</time>
      </trkpt>
      <trkpt lat="43.622458" lon="10.713101">
        <ele>141.966378</ele>
        <time>2026-05-07T01:32:23.301Z</time>
      </trkpt>
      <trkpt lat="43.622441" lon="10.712767">
        <ele>140.959100</ele>
        <time>2026-05-07T01:32:26.286Z</time>
      </trkpt>
      <trkpt lat="43.622220" lon="10.711833">
        <ele>138.416442</ele>
        <time>2026-05-07T01:32:35.199Z</time>
      </trkpt>
      <trkpt lat="43.622191" lon="10.711546">
        <ele>137.812055</ele>
        <time>2026-05-07T01:32:37.866Z</time>
      </trkpt>
      <trkpt lat="43.622184" lon="10.710977">
        <ele>136.625144</ele>
        <time>2026-05-07T01:32:43.184Z</time>
      </trkpt>
      <trkpt lat="43.622301" lon="10.710300">
        <ele>135.173475</ele>
        <time>2026-05-07T01:32:50.112Z</time>
      </trkpt>
      <trkpt lat="43.622329" lon="10.709904">
        <ele>134.343625</ele>
        <time>2026-05-07T01:32:54.327Z</time>
      </trkpt>
      <trkpt lat="43.622281" lon="10.709427">
        <ele>133.573388</ele>
        <time>2026-05-07T01:32:59.400Z</time>
      </trkpt>
      <trkpt lat="43.622396" lon="10.708637">
        <ele>132.367118</ele>
        <time>2026-05-07T01:33:08.149Z</time>
      </trkpt>
      <trkpt lat="43.622487" lon="10.707730">
        <ele>130.996403</ele>
        <time>2026-05-07T01:33:17.422Z</time>
      </trkpt>
      <trkpt lat="43.622686" lon="10.707474">
        <ele>130.429347</ele>
        <time>2026-05-07T01:33:21.022Z</time>
      </trkpt>
      <trkpt lat="43.622905" lon="10.706962">
        <ele>129.264874</ele>
        <time>2026-05-07T01:33:26.483Z</time>
      </trkpt>
      <trkpt lat="43.623026" lon="10.706820">
        <ele>128.835418</ele>
        <time>2026-05-07T01:33:28.476Z</time>
      </trkpt>
      <trkpt lat="43.623100" lon="10.706799">
        <ele>128.631073</ele>
        <time>2026-05-07T01:33:29.415Z</time>
      </trkpt>
      <trkpt lat="43.623680" lon="10.706889">
        <ele>127.052352</ele>
        <time>2026-05-07T01:33:36.770Z</time>
      </trkpt>
      <trkpt lat="43.623822" lon="10.706825">
        <ele>126.648328</ele>
        <time>2026-05-07T01:33:38.719Z</time>
      </trkpt>
      <trkpt lat="43.623946" lon="10.706688">
        <ele>126.218840</ele>
        <time>2026-05-07T01:33:40.904Z</time>
      </trkpt>
      <trkpt lat="43.624149" lon="10.706132">
        <ele>126.051765</ele>
        <time>2026-05-07T01:33:48.449Z</time>
      </trkpt>
      <trkpt lat="43.624177" lon="10.706053">
        <ele>126.189455</ele>
        <time>2026-05-07T01:33:49.762Z</time>
      </trkpt>
      <trkpt lat="43.624546" lon="10.705603">
        <ele>127.253830</ele>
        <time>2026-05-07T01:34:02.111Z</time>
      </trkpt>
      <trkpt lat="43.624912" lon="10.705399">
        <ele>128.107275</ele>
        <time>2026-05-07T01:34:13.892Z</time>
      </trkpt>
      <trkpt lat="43.625417" lon="10.705299">
        <ele>129.210469</ele>
        <time>2026-05-07T01:34:29.340Z</time>
      </trkpt>
      <trkpt lat="43.625915" lon="10.705046">
        <ele>129.233726</ele>
        <time>2026-05-07T01:34:43.359Z</time>
      </trkpt>
      <trkpt lat="43.626427" lon="10.704621">
        <ele>128.883077</ele>
        <time>2026-05-07T01:34:54.081Z</time>
      </trkpt>
      <trkpt lat="43.626912" lon="10.704162">
        <ele>128.537962</ele>
        <time>2026-05-07T01:35:02.022Z</time>
      </trkpt>
      <trkpt lat="43.627205" lon="10.703957">
        <ele>127.907080</ele>
        <time>2026-05-07T01:35:06.154Z</time>
      </trkpt>
      <trkpt lat="43.627387" lon="10.703876">
        <ele>127.118499</ele>
        <time>2026-05-07T01:35:08.526Z</time>
      </trkpt>
      <trkpt lat="43.628085" lon="10.703631">
        <ele>124.148393</ele>
        <time>2026-05-07T01:35:17.380Z</time>
      </trkpt>
      <trkpt lat="43.628634" lon="10.703805">
        <ele>121.825424</ele>
        <time>2026-05-07T01:35:24.373Z</time>
      </trkpt>
      <trkpt lat="43.629223" lon="10.703553">
        <ele>119.961389</ele>
        <time>2026-05-07T01:35:32.124Z</time>
      </trkpt>
      <trkpt lat="43.629401" lon="10.703451">
        <ele>119.480793</ele>
        <time>2026-05-07T01:35:34.606Z</time>
      </trkpt>
      <trkpt lat="43.629535" lon="10.703320">
        <ele>119.071398</ele>
        <time>2026-05-07T01:35:36.734Z</time>
      </trkpt>
      <trkpt lat="43.629609" lon="10.703169">
        <ele>118.742218</ele>
        <time>2026-05-07T01:35:38.459Z</time>
      </trkpt>
      <trkpt lat="43.629665" lon="10.702979">
        <ele>118.371892</ele>
        <time>2026-05-07T01:35:40.429Z</time>
      </trkpt>
      <trkpt lat="43.629705" lon="10.702548">
        <ele>117.587497</ele>
        <time>2026-05-07T01:35:44.692Z</time>
      </trkpt>
      <trkpt lat="43.629645" lon="10.701834">
        <ele>116.386406</ele>
        <time>2026-05-07T01:35:53.145Z</time>
      </trkpt>
      <trkpt lat="43.629652" lon="10.701656">
        <ele>116.202978</ele>
        <time>2026-05-07T01:35:55.615Z</time>
      </trkpt>
      <trkpt lat="43.629754" lon="10.701199">
        <ele>115.710888</ele>
        <time>2026-05-07T01:36:02.698Z</time>
      </trkpt>
      <trkpt lat="43.629968" lon="10.700968">
        <ele>115.324819</ele>
        <time>2026-05-07T01:36:08.152Z</time>
      </trkpt>
      <trkpt lat="43.630452" lon="10.700258">
        <ele>114.321252</ele>
        <time>2026-05-07T01:36:19.136Z</time>
      </trkpt>
      <trkpt lat="43.630586" lon="10.700122">
        <ele>114.084882</ele>
        <time>2026-05-07T01:36:21.350Z</time>
      </trkpt>
      <trkpt lat="43.631143" lon="10.699754">
        <ele>109.901080</ele>
        <time>2026-05-07T01:36:28.515Z</time>
      </trkpt>
      <trkpt lat="43.631988" lon="10.698979">
        <ele>102.104682</ele>
        <time>2026-05-07T01:36:39.627Z</time>
      </trkpt>
      <trkpt lat="43.632742" lon="10.698223">
        <ele>97.238059</ele>
        <time>2026-05-07T01:36:50.084Z</time>
      </trkpt>
      <trkpt lat="43.632987" lon="10.697772">
        <ele>95.488435</ele>
        <time>2026-05-07T01:36:55.084Z</time>
      </trkpt>
      <trkpt lat="43.633525" lon="10.696845">
        <ele>92.482246</ele>
        <time>2026-05-07T01:37:08.455Z</time>
      </trkpt>
      <trkpt lat="43.633752" lon="10.696408">
        <ele>92.648110</ele>
        <time>2026-05-07T01:37:17.482Z</time>
      </trkpt>
      <trkpt lat="43.634047" lon="10.695610">
        <ele>92.924414</ele>
        <time>2026-05-07T01:37:29.945Z</time>
      </trkpt>
      <trkpt lat="43.634101" lon="10.695348">
        <ele>93.008414</ele>
        <time>2026-05-07T01:37:33.022Z</time>
      </trkpt>
      <trkpt lat="43.634010" lon="10.694759">
        <ele>93.212209</ele>
        <time>2026-05-07T01:37:41.077Z</time>
      </trkpt>
      <trkpt lat="43.634010" lon="10.694487">
        <ele>93.509688</ele>
        <time>2026-05-07T01:37:45.745Z</time>
      </trkpt>
      <trkpt lat="43.634098" lon="10.694091">
        <ele>93.962735</ele>
        <time>2026-05-07T01:37:53.889Z</time>
      </trkpt>
      <trkpt lat="43.634197" lon="10.694006">
        <ele>94.138865</ele>
        <time>2026-05-07T01:37:56.502Z</time>
      </trkpt>
      <trkpt lat="43.634293" lon="10.693938">
        <ele>94.301882</ele>
        <time>2026-05-07T01:37:58.962Z</time>
      </trkpt>
      <trkpt lat="43.635094" lon="10.693793">
        <ele>95.522609</ele>
        <time>2026-05-07T01:38:16.471Z</time>
      </trkpt>
      <trkpt lat="43.635116" lon="10.693767">
        <ele>95.566355</ele>
        <time>2026-05-07T01:38:17.356Z</time>
      </trkpt>
      <trkpt lat="43.635047" lon="10.693599">
        <ele>95.777612</ele>
        <time>2026-05-07T01:38:21.000Z</time>
      </trkpt>
      <trkpt lat="43.634801" lon="10.692558">
        <ele>96.201536</ele>
        <time>2026-05-07T01:38:39.839Z</time>
      </trkpt>
      <trkpt lat="43.634934" lon="10.691169">
        <ele>96.626162</ele>
        <time>2026-05-07T01:38:56.194Z</time>
      </trkpt>
      <trkpt lat="43.634782" lon="10.690193">
        <ele>96.171844</ele>
        <time>2026-05-07T01:39:08.692Z</time>
      </trkpt>
      <trkpt lat="43.634615" lon="10.689458">
        <ele>95.752330</ele>
        <time>2026-05-07T01:39:17.341Z</time>
      </trkpt>
      <trkpt lat="43.634564" lon="10.689069">
        <ele>95.537047</ele>
        <time>2026-05-07T01:39:21.649Z</time>
      </trkpt>
      <trkpt lat="43.634580" lon="10.688730">
        <ele>95.352047</ele>
        <time>2026-05-07T01:39:25.405Z</time>
      </trkpt>
      <trkpt lat="43.634602" lon="10.688665">
        <ele>95.312971</ele>
        <time>2026-05-07T01:39:26.205Z</time>
      </trkpt>
      <trkpt lat="43.634782" lon="10.688265">
        <ele>94.720173</ele>
        <time>2026-05-07T01:39:31.528Z</time>
      </trkpt>
      <trkpt lat="43.634933" lon="10.687884">
        <ele>94.163244</ele>
        <time>2026-05-07T01:39:40.086Z</time>
      </trkpt>
      <trkpt lat="43.634978" lon="10.687711">
        <ele>93.927549</ele>
        <time>2026-05-07T01:39:43.684Z</time>
      </trkpt>
      <trkpt lat="43.635016" lon="10.687394">
        <ele>93.515583</ele>
        <time>2026-05-07T01:39:49.879Z</time>
      </trkpt>
      <trkpt lat="43.635069" lon="10.687307">
        <ele>93.369785</ele>
        <time>2026-05-07T01:39:52.035Z</time>
      </trkpt>
      <trkpt lat="43.635263" lon="10.687188">
        <ele>92.993773</ele>
        <time>2026-05-07T01:39:57.403Z</time>
      </trkpt>
      <trkpt lat="43.635848" lon="10.686949">
        <ele>91.449438</ele>
        <time>2026-05-07T01:40:12.038Z</time>
      </trkpt>
      <trkpt lat="43.636236" lon="10.686638">
        <ele>88.861181</ele>
        <time>2026-05-07T01:40:22.474Z</time>
      </trkpt>
      <trkpt lat="43.636455" lon="10.686512">
        <ele>87.492345</ele>
        <time>2026-05-07T01:40:27.705Z</time>
      </trkpt>
      <trkpt lat="43.637122" lon="10.686410">
        <ele>83.620158</ele>
        <time>2026-05-07T01:40:41.761Z</time>
      </trkpt>
      <trkpt lat="43.637231" lon="10.686305">
        <ele>82.853453</ele>
        <time>2026-05-07T01:40:44.434Z</time>
      </trkpt>
      <trkpt lat="43.637343" lon="10.685993">
        <ele>81.333443</ele>
        <time>2026-05-07T01:40:49.477Z</time>
      </trkpt>
      <trkpt lat="43.637401" lon="10.685832">
        <ele>80.437875</ele>
        <time>2026-05-07T01:40:52.069Z</time>
      </trkpt>
      <trkpt lat="43.637456" lon="10.685752">
        <ele>79.888404</ele>
        <time>2026-05-07T01:40:53.656Z</time>
      </trkpt>
      <trkpt lat="43.637936" lon="10.685239">
        <ele>75.713010</ele>
        <time>2026-05-07T01:41:05.831Z</time>
      </trkpt>
      <trkpt lat="43.638166" lon="10.684927">
        <ele>73.495279</ele>
        <time>2026-05-07T01:41:12.430Z</time>
      </trkpt>
      <trkpt lat="43.638584" lon="10.684531">
        <ele>70.008068</ele>
        <time>2026-05-07T01:41:23.319Z</time>
      </trkpt>
      <trkpt lat="43.638650" lon="10.684499">
        <ele>69.526797</ele>
        <time>2026-05-07T01:41:24.901Z</time>
      </trkpt>
      <trkpt lat="43.639098" lon="10.684428">
        <ele>69.442297</ele>
        <time>2026-05-07T01:41:35.857Z</time>
      </trkpt>
      <trkpt lat="43.639227" lon="10.684377">
        <ele>69.466830</ele>
        <time>2026-05-07T01:41:39.537Z</time>
      </trkpt>
      <trkpt lat="43.639336" lon="10.684243">
        <ele>69.493506</ele>
        <time>2026-05-07T01:41:43.849Z</time>
      </trkpt>
      <trkpt lat="43.639546" lon="10.683747">
        <ele>69.569545</ele>
        <time>2026-05-07T01:41:57.742Z</time>
      </trkpt>
      <trkpt lat="43.639639" lon="10.683586">
        <ele>69.596803</ele>
        <time>2026-05-07T01:42:03.219Z</time>
      </trkpt>
      <trkpt lat="43.639829" lon="10.683373">
        <ele>69.641538</ele>
        <time>2026-05-07T01:42:12.635Z</time>
      </trkpt>
      <trkpt lat="43.639981" lon="10.683325">
        <ele>69.670047</ele>
        <time>2026-05-07T01:42:18.757Z</time>
      </trkpt>
      <trkpt lat="43.640477" lon="10.683386">
        <ele>69.293889</ele>
        <time>2026-05-07T01:42:38.569Z</time>
      </trkpt>
      <trkpt lat="43.640805" lon="10.683351">
        <ele>68.941116</ele>
        <time>2026-05-07T01:42:50.581Z</time>
      </trkpt>
      <trkpt lat="43.641135" lon="10.683394">
        <ele>68.585676</ele>
        <time>2026-05-07T01:43:00.800Z</time>
      </trkpt>
      <trkpt lat="43.641311" lon="10.683383">
        <ele>68.396753</ele>
        <time>2026-05-07T01:43:05.340Z</time>
      </trkpt>
      <trkpt lat="43.641427" lon="10.683343">
        <ele>68.268547</ele>
        <time>2026-05-07T01:43:08.185Z</time>
      </trkpt>
      <trkpt lat="43.641967" lon="10.682864">
        <ele>66.790967</ele>
        <time>2026-05-07T01:43:21.835Z</time>
      </trkpt>
      <trkpt lat="43.642035" lon="10.682848">
        <ele>66.399355</ele>
        <time>2026-05-07T01:43:23.261Z</time>
      </trkpt>
      <trkpt lat="43.642912" lon="10.682927">
        <ele>61.409804</ele>
        <time>2026-05-07T01:43:41.293Z</time>
      </trkpt>
      <trkpt lat="43.644251" lon="10.683102">
        <ele>55.594743</ele>
        <time>2026-05-07T01:44:12.313Z</time>
      </trkpt>
      <trkpt lat="43.644931" lon="10.683118">
        <ele>53.594003</ele>
        <time>2026-05-07T01:44:29.407Z</time>
      </trkpt>
      <trkpt lat="43.645275" lon="10.683223">
        <ele>52.557619</ele>
        <time>2026-05-07T01:44:37.966Z</time>
      </trkpt>
      <trkpt lat="43.645470" lon="10.683196">
        <ele>51.806438</ele>
        <time>2026-05-07T01:44:42.673Z</time>
      </trkpt>
      <trkpt lat="43.645747" lon="10.683111">
        <ele>50.451898</ele>
        <time>2026-05-07T01:44:49.363Z</time>
      </trkpt>
      <trkpt lat="43.645883" lon="10.683006">
        <ele>49.708216</ele>
        <time>2026-05-07T01:44:52.974Z</time>
      </trkpt>
      <trkpt lat="43.646053" lon="10.682755">
        <ele>48.520624</ele>
        <time>2026-05-07T01:44:58.652Z</time>
      </trkpt>
      <trkpt lat="43.646176" lon="10.682643">
        <ele>47.817448</ele>
        <time>2026-05-07T01:45:01.973Z</time>
      </trkpt>
      <trkpt lat="43.646348" lon="10.682573">
        <ele>46.961495</ele>
        <time>2026-05-07T01:45:05.945Z</time>
      </trkpt>
      <trkpt lat="43.646655" lon="10.682539">
        <ele>45.491250</ele>
        <time>2026-05-07T01:45:12.639Z</time>
      </trkpt>
      <trkpt lat="43.646994" lon="10.682951">
        <ele>43.152179</ele>
        <time>2026-05-07T01:45:22.091Z</time>
      </trkpt>
      <trkpt lat="43.647128" lon="10.683015">
        <ele>42.108124</ele>
        <time>2026-05-07T01:45:25.005Z</time>
      </trkpt>
      <trkpt lat="43.647200" lon="10.683006">
        <ele>41.575746</ele>
        <time>2026-05-07T01:45:26.475Z</time>
      </trkpt>
      <trkpt lat="43.647327" lon="10.682947">
        <ele>40.589080</ele>
        <time>2026-05-07T01:45:29.168Z</time>
      </trkpt>
      <trkpt lat="43.647527" lon="10.682715">
        <ele>38.666195</ele>
        <time>2026-05-07T01:45:34.445Z</time>
      </trkpt>
      <trkpt lat="43.647743" lon="10.682532">
        <ele>36.800443</ele>
        <time>2026-05-07T01:45:39.568Z</time>
      </trkpt>
      <trkpt lat="43.647798" lon="10.682434">
        <ele>36.139578</ele>
        <time>2026-05-07T01:45:41.395Z</time>
      </trkpt>
      <trkpt lat="43.647946" lon="10.681951">
        <ele>33.344606</ele>
        <time>2026-05-07T01:45:49.082Z</time>
      </trkpt>
      <trkpt lat="43.647993" lon="10.681914">
        <ele>32.946279</ele>
        <time>2026-05-07T01:45:50.179Z</time>
      </trkpt>
      <trkpt lat="43.648118" lon="10.681940">
        <ele>32.015403</ele>
        <time>2026-05-07T01:45:52.759Z</time>
      </trkpt>
      <trkpt lat="43.648288" lon="10.682133">
        <ele>30.412101</ele>
        <time>2026-05-07T01:45:57.299Z</time>
      </trkpt>
      <trkpt lat="43.648876" lon="10.683267">
        <ele>26.591660</ele>
        <time>2026-05-07T01:46:19.833Z</time>
      </trkpt>
      <trkpt lat="43.648990" lon="10.683439">
        <ele>25.952914</ele>
        <time>2026-05-07T01:46:23.933Z</time>
      </trkpt>
      <trkpt lat="43.649175" lon="10.683260">
        <ele>25.098230</ele>
        <time>2026-05-07T01:46:27.016Z</time>
      </trkpt>
      <trkpt lat="43.649621" lon="10.682997">
        <ele>23.513821</ele>
        <time>2026-05-07T01:46:34.004Z</time>
      </trkpt>
      <trkpt lat="43.650164" lon="10.682584">
        <ele>22.803167</ele>
        <time>2026-05-07T01:46:43.432Z</time>
      </trkpt>
      <trkpt lat="43.650306" lon="10.682518">
        <ele>22.631391</ele>
        <time>2026-05-07T01:46:45.725Z</time>
      </trkpt>
      <trkpt lat="43.650548" lon="10.682321">
        <ele>22.309360</ele>
        <time>2026-05-07T01:46:50.261Z</time>
      </trkpt>
      <trkpt lat="43.650769" lon="10.682091">
        <ele>21.992155</ele>
        <time>2026-05-07T01:46:54.767Z</time>
      </trkpt>
      <trkpt lat="43.651198" lon="10.681567">
        <ele>21.419015</ele>
        <time>2026-05-07T01:47:04.146Z</time>
      </trkpt>
      <trkpt lat="43.651540" lon="10.681276">
        <ele>21.129190</ele>
        <time>2026-05-07T01:47:10.752Z</time>
      </trkpt>
      <trkpt lat="43.651685" lon="10.681099">
        <ele>20.989581</ele>
        <time>2026-05-07T01:47:13.978Z</time>
      </trkpt>
      <trkpt lat="43.651939" lon="10.680541">
        <ele>20.645363</ele>
        <time>2026-05-07T01:47:22.118Z</time>
      </trkpt>
      <trkpt lat="43.652439" lon="10.679579">
        <ele>20.269975</ele>
        <time>2026-05-07T01:47:36.484Z</time>
      </trkpt>
      <trkpt lat="43.652538" lon="10.679407">
        <ele>20.273603</ele>
        <time>2026-05-07T01:47:39.197Z</time>
      </trkpt>
      <trkpt lat="43.652653" lon="10.679280">
        <ele>20.276961</ele>
        <time>2026-05-07T01:47:41.737Z</time>
      </trkpt>
      <trkpt lat="43.652861" lon="10.679159">
        <ele>20.282110</ele>
        <time>2026-05-07T01:47:45.512Z</time>
      </trkpt>
      <trkpt lat="43.653852" lon="10.678884">
        <ele>20.315640</ele>
        <time>2026-05-07T01:48:04.967Z</time>
      </trkpt>
      <trkpt lat="43.654008" lon="10.678772">
        <ele>20.345736</ele>
        <time>2026-05-07T01:48:08.572Z</time>
      </trkpt>
      <trkpt lat="43.654087" lon="10.678688">
        <ele>20.362800</ele>
        <time>2026-05-07T01:48:10.668Z</time>
      </trkpt>
      <trkpt lat="43.654257" lon="10.678400">
        <ele>20.408840</ele>
        <time>2026-05-07T01:48:16.108Z</time>
      </trkpt>
      <trkpt lat="43.654446" lon="10.677933">
        <ele>20.475121</ele>
        <time>2026-05-07T01:48:23.664Z</time>
      </trkpt>
      <trkpt lat="43.654457" lon="10.677749">
        <ele>20.497990</ele>
        <time>2026-05-07T01:48:26.199Z</time>
      </trkpt>
      <trkpt lat="43.654406" lon="10.677069">
        <ele>20.582671</ele>
        <time>2026-05-07T01:48:34.721Z</time>
      </trkpt>
      <trkpt lat="43.654399" lon="10.676589">
        <ele>20.444976</ele>
        <time>2026-05-07T01:48:40.210Z</time>
      </trkpt>
      <trkpt lat="43.654498" lon="10.675313">
        <ele>19.581259</ele>
        <time>2026-05-07T01:48:54.496Z</time>
      </trkpt>
      <trkpt lat="43.654470" lon="10.675106">
        <ele>19.439527</ele>
        <time>2026-05-07T01:48:56.798Z</time>
      </trkpt>
      <trkpt lat="43.654444" lon="10.675016">
        <ele>19.374303</ele>
        <time>2026-05-07T01:48:57.851Z</time>
      </trkpt>
      <trkpt lat="43.654436" lon="10.674847">
        <ele>19.260317</ele>
        <time>2026-05-07T01:48:59.693Z</time>
      </trkpt>
      <trkpt lat="43.654458" lon="10.674724">
        <ele>19.175042</ele>
        <time>2026-05-07T01:49:01.060Z</time>
      </trkpt>
      <trkpt lat="43.654887" lon="10.673314">
        <ele>18.587167</ele>
        <time>2026-05-07T01:49:18.428Z</time>
      </trkpt>
      <trkpt lat="43.655309" lon="10.670988">
        <ele>17.829594</ele>
        <time>2026-05-07T01:49:49.398Z</time>
      </trkpt>
      <trkpt lat="43.655633" lon="10.669201">
        <ele>17.085861</ele>
        <time>2026-05-07T01:50:10.460Z</time>
      </trkpt>
      <trkpt lat="43.655727" lon="10.668610">
        <ele>16.715762</ele>
        <time>2026-05-07T01:50:17.231Z</time>
      </trkpt>
      <trkpt lat="43.655750" lon="10.667597">
        <ele>16.095885</ele>
        <time>2026-05-07T01:50:28.765Z</time>
      </trkpt>
      <trkpt lat="43.655692" lon="10.667082">
        <ele>15.781528</ele>
        <time>2026-05-07T01:50:34.710Z</time>
      </trkpt>
      <trkpt lat="43.655528" lon="10.666199">
        <ele>15.264270</ele>
        <time>2026-05-07T01:50:45.086Z</time>
      </trkpt>
      <trkpt lat="43.655464" lon="10.665582">
        <ele>14.910605</ele>
        <time>2026-05-07T01:50:52.184Z</time>
      </trkpt>
      <trkpt lat="43.655470" lon="10.665231">
        <ele>14.711392</ele>
        <time>2026-05-07T01:50:56.197Z</time>
      </trkpt>
      <trkpt lat="43.655513" lon="10.665033">
        <ele>14.594095</ele>
        <time>2026-05-07T01:50:58.567Z</time>
      </trkpt>
      <trkpt lat="43.656283" lon="10.662786">
        <ele>13.755517</ele>
        <time>2026-05-07T01:51:28.068Z</time>
      </trkpt>
      <trkpt lat="43.656688" lon="10.661145">
        <ele>13.562160</ele>
        <time>2026-05-07T01:51:50.567Z</time>
      </trkpt>
      <trkpt lat="43.657002" lon="10.659775">
        <ele>13.482295</ele>
        <time>2026-05-07T01:52:08.354Z</time>
      </trkpt>
      <trkpt lat="43.657237" lon="10.658731">
        <ele>13.469043</ele>
        <time>2026-05-07T01:52:22.643Z</time>
      </trkpt>
      <trkpt lat="43.657387" lon="10.657927">
        <ele>13.458979</ele>
        <time>2026-05-07T01:52:32.827Z</time>
      </trkpt>
      <trkpt lat="43.657395" lon="10.657877">
        <ele>13.458358</ele>
        <time>2026-05-07T01:52:33.516Z</time>
      </trkpt>
      <trkpt lat="43.657423" lon="10.657738">
        <ele>13.463801</ele>
        <time>2026-05-07T01:52:35.402Z</time>
      </trkpt>
      <trkpt lat="43.657441" lon="10.657652">
        <ele>13.488537</ele>
        <time>2026-05-07T01:52:36.582Z</time>
      </trkpt>
      <trkpt lat="43.657500" lon="10.657425">
        <ele>13.555181</ele>
        <time>2026-05-07T01:52:39.878Z</time>
      </trkpt>
      <trkpt lat="43.657617" lon="10.657011">
        <ele>13.677985</ele>
        <time>2026-05-07T01:52:46.216Z</time>
      </trkpt>
      <trkpt lat="43.657579" lon="10.656910">
        <ele>13.709439</ele>
        <time>2026-05-07T01:52:47.825Z</time>
      </trkpt>
      <trkpt lat="43.657509" lon="10.656861">
        <ele>13.739405</ele>
        <time>2026-05-07T01:52:49.341Z</time>
      </trkpt>
      <trkpt lat="43.657177" lon="10.656876">
        <ele>13.866263</ele>
        <time>2026-05-07T01:52:55.537Z</time>
      </trkpt>
      <trkpt lat="43.657019" lon="10.656847">
        <ele>13.927133</ele>
        <time>2026-05-07T01:52:58.288Z</time>
      </trkpt>
      <trkpt lat="43.655925" lon="10.656518">
        <ele>14.659844</ele>
        <time>2026-05-07T01:53:20.784Z</time>
      </trkpt>
      <trkpt lat="43.655724" lon="10.656318">
        <ele>14.891280</ele>
        <time>2026-05-07T01:53:26.172Z</time>
      </trkpt>
      <trkpt lat="43.655156" lon="10.655430">
        <ele>15.692631</ele>
        <time>2026-05-07T01:53:44.564Z</time>
      </trkpt>
      <trkpt lat="43.655007" lon="10.655208">
        <ele>15.878864</ele>
        <time>2026-05-07T01:53:49.030Z</time>
      </trkpt>
      <trkpt lat="43.654884" lon="10.655020">
        <ele>16.006680</ele>
        <time>2026-05-07T01:53:52.708Z</time>
      </trkpt>
      <trkpt lat="43.654632" lon="10.654639">
        <ele>16.266990</ele>
        <time>2026-05-07T01:54:00.032Z</time>
      </trkpt>
      <trkpt lat="43.654594" lon="10.654533">
        <ele>16.326644</ele>
        <time>2026-05-07T01:54:01.727Z</time>
      </trkpt>
      <trkpt lat="43.654643" lon="10.654254">
        <ele>16.471422</ele>
        <time>2026-05-07T01:54:05.696Z</time>
      </trkpt>
      <trkpt lat="43.654757" lon="10.653854">
        <ele>16.688215</ele>
        <time>2026-05-07T01:54:11.628Z</time>
      </trkpt>
      <trkpt lat="43.655331" lon="10.651472">
        <ele>17.743029</ele>
        <time>2026-05-07T01:54:48.641Z</time>
      </trkpt>
      <trkpt lat="43.654304" lon="10.650993">
        <ele>17.600319</ele>
        <time>2026-05-07T01:55:08.843Z</time>
      </trkpt>
      <trkpt lat="43.654148" lon="10.650925">
        <ele>17.470827</ele>
        <time>2026-05-07T01:55:11.503Z</time>
      </trkpt>
      <trkpt lat="43.653579" lon="10.650678">
        <ele>16.998688</ele>
        <time>2026-05-07T01:55:21.074Z</time>
      </trkpt>
      <trkpt lat="43.653473" lon="10.650524">
        <ele>16.876943</ele>
        <time>2026-05-07T01:55:23.494Z</time>
      </trkpt>
      <trkpt lat="43.653407" lon="10.650453">
        <ele>16.810733</ele>
        <time>2026-05-07T01:55:24.798Z</time>
      </trkpt>
      <trkpt lat="43.653321" lon="10.650363">
        <ele>16.725337</ele>
        <time>2026-05-07T01:55:26.460Z</time>
      </trkpt>
      <trkpt lat="43.653323" lon="10.649927">
        <ele>16.441548</ele>
        <time>2026-05-07T01:55:32.820Z</time>
      </trkpt>
      <trkpt lat="43.653290" lon="10.649536">
        <ele>16.157040</ele>
        <time>2026-05-07T01:55:38.608Z</time>
      </trkpt>
      <trkpt lat="43.653382" lon="10.649025">
        <ele>15.776458</ele>
        <time>2026-05-07T01:55:46.370Z</time>
      </trkpt>
      <trkpt lat="43.653674" lon="10.648205">
        <ele>15.115923</ele>
        <time>2026-05-07T01:56:00.434Z</time>
      </trkpt>
      <trkpt lat="43.653673" lon="10.647909">
        <ele>14.901990</ele>
        <time>2026-05-07T01:56:04.989Z</time>
      </trkpt>
      <trkpt lat="43.653726" lon="10.647780">
        <ele>14.807357</ele>
        <time>2026-05-07T01:56:06.702Z</time>
      </trkpt>
      <trkpt lat="43.654046" lon="10.646938">
        <ele>14.728543</ele>
        <time>2026-05-07T01:56:18.061Z</time>
      </trkpt>
      <trkpt lat="43.654173" lon="10.646584">
        <ele>14.695800</ele>
        <time>2026-05-07T01:56:23.180Z</time>
      </trkpt>
      <trkpt lat="43.654312" lon="10.645943">
        <ele>14.640349</ele>
        <time>2026-05-07T01:56:32.211Z</time>
      </trkpt>
      <trkpt lat="43.654335" lon="10.645591">
        <ele>14.611061</ele>
        <time>2026-05-07T01:56:36.884Z</time>
      </trkpt>
      <trkpt lat="43.654279" lon="10.645154">
        <ele>14.637278</ele>
        <time>2026-05-07T01:56:42.748Z</time>
      </trkpt>
      <trkpt lat="43.654322" lon="10.644978">
        <ele>14.655673</ele>
        <time>2026-05-07T01:56:45.233Z</time>
      </trkpt>
      <trkpt lat="43.654371" lon="10.644851">
        <ele>14.669925</ele>
        <time>2026-05-07T01:56:47.148Z</time>
      </trkpt>
      <trkpt lat="43.654340" lon="10.644675">
        <ele>14.687862</ele>
        <time>2026-05-07T01:56:49.557Z</time>
      </trkpt>
      <trkpt lat="43.654353" lon="10.644274">
        <ele>14.727609</ele>
        <time>2026-05-07T01:56:54.885Z</time>
      </trkpt>
      <trkpt lat="43.654292" lon="10.643683">
        <ele>14.786723</ele>
        <time>2026-05-07T01:57:02.679Z</time>
      </trkpt>
      <trkpt lat="43.653830" lon="10.639423">
        <ele>14.883415</ele>
        <time>2026-05-07T01:57:58.951Z</time>
      </trkpt>
      <trkpt lat="43.653748" lon="10.638553">
        <ele>14.785116</ele>
        <time>2026-05-07T01:58:09.664Z</time>
      </trkpt>
      <trkpt lat="43.653756" lon="10.637816">
        <ele>14.673941</ele>
        <time>2026-05-07T01:58:18.529Z</time>
      </trkpt>
      <trkpt lat="43.653917" lon="10.635976">
        <ele>14.300524</ele>
        <time>2026-05-07T01:58:41.199Z</time>
      </trkpt>
      <trkpt lat="43.653947" lon="10.635839">
        <ele>14.271685</ele>
        <time>2026-05-07T01:58:42.994Z</time>
      </trkpt>
      <trkpt lat="43.654059" lon="10.635617">
        <ele>14.233749</ele>
        <time>2026-05-07T01:58:46.448Z</time>
      </trkpt>
      <trkpt lat="43.654116" lon="10.635550">
        <ele>14.229913</ele>
        <time>2026-05-07T01:58:47.775Z</time>
      </trkpt>
      <trkpt lat="43.654171" lon="10.635380">
        <ele>14.223005</ele>
        <time>2026-05-07T01:58:50.165Z</time>
      </trkpt>
      <trkpt lat="43.654150" lon="10.635195">
        <ele>14.216059</ele>
        <time>2026-05-07T01:58:52.555Z</time>
      </trkpt>
      <trkpt lat="43.654096" lon="10.635095">
        <ele>14.211430</ele>
        <time>2026-05-07T01:58:54.131Z</time>
      </trkpt>
      <trkpt lat="43.654040" lon="10.634833">
        <ele>14.201296</ele>
        <time>2026-05-07T01:58:57.658Z</time>
      </trkpt>
      <trkpt lat="43.654036" lon="10.634651">
        <ele>14.194542</ele>
        <time>2026-05-07T01:58:59.996Z</time>
      </trkpt>
      <trkpt lat="43.654246" lon="10.632250">
        <ele>14.219211</ele>
        <time>2026-05-07T01:59:30.875Z</time>
      </trkpt>
      <trkpt lat="43.654286" lon="10.631815">
        <ele>14.248942</ele>
        <time>2026-05-07T01:59:36.468Z</time>
      </trkpt>
      <trkpt lat="43.654335" lon="10.631486">
        <ele>14.271717</ele>
        <time>2026-05-07T01:59:40.871Z</time>
      </trkpt>
      <trkpt lat="43.654390" lon="10.631410">
        <ele>14.279005</ele>
        <time>2026-05-07T01:59:42.311Z</time>
      </trkpt>
      <trkpt lat="43.654492" lon="10.631362">
        <ele>14.289102</ele>
        <time>2026-05-07T01:59:44.336Z</time>
      </trkpt>
      <trkpt lat="43.654666" lon="10.631375">
        <ele>14.305432</ele>
        <time>2026-05-07T01:59:47.637Z</time>
      </trkpt>
      <trkpt lat="43.654604" lon="10.631337">
        <ele>14.311788</ele>
        <time>2026-05-07T01:59:48.900Z</time>
      </trkpt>
      <trkpt lat="43.654628" lon="10.631289">
        <ele>14.313832</ele>
        <time>2026-05-07T01:59:49.709Z</time>
      </trkpt>
      <trkpt lat="43.654679" lon="10.631313">
        <ele>14.313832</ele>
        <time>2026-05-07T01:59:50.753Z</time>
      </trkpt>
      <trkpt lat="43.654984" lon="10.631432">
        <ele>14.313832</ele>
        <time>2026-05-07T01:59:56.893Z</time>
      </trkpt>
      <trkpt lat="43.655125" lon="10.631413">
        <ele>14.313832</ele>
        <time>2026-05-07T01:59:59.699Z</time>
      </trkpt>
      <trkpt lat="43.655438" lon="10.631528">
        <ele>14.313832</ele>
        <time>2026-05-07T02:00:06.317Z</time>
      </trkpt>
      <trkpt lat="43.655590" lon="10.631469">
        <ele>14.313832</ele>
        <time>2026-05-07T02:00:09.666Z</time>
      </trkpt>
      <trkpt lat="43.655659" lon="10.631488">
        <ele>14.313832</ele>
        <time>2026-05-07T02:00:11.129Z</time>
      </trkpt>
      <trkpt lat="43.655747" lon="10.631021">
        <ele>14.313832</ele>
        <time>2026-05-07T02:00:18.465Z</time>
      </trkpt>
      <trkpt lat="43.655783" lon="10.630798">
        <ele>14.313832</ele>
        <time>2026-05-07T02:00:21.839Z</time>
      </trkpt>
      <trkpt lat="43.655865" lon="10.630705">
        <ele>14.313832</ele>
        <time>2026-05-07T02:00:24.557Z</time>
      </trkpt>
      <trkpt lat="43.655924" lon="10.630280">
        <ele>14.313832</ele>
        <time>2026-05-07T02:00:32.487Z</time>
      </trkpt>
    </trkseg>
  </trk>
</gpx>